[[{"header":{"parameterUnit":"m.s-1","parameterCategory":1,"la1":30.6,"la2":29.2853,"lo1":-89.7004,"lo2":-87.6739,"dy":0.0162,"dx":0.0183,"nx":112,"ny":82,"refTime":"2024-04-17T06:00:00:Z","depth":0,"parameterNumber":2,"parameterNumberName":"U-component_of_WINDS"},"data":[0.0,0.0,0.0,0.0,0.0,0.0,0.0,0.0,0.0,0.0,0.0,0.0,0.0,0.0,0.0,0.0,0.0,0.0,0.0,0.0,0.0,0.0,0.0,0.0,0.0,0.0,0.0,0.0,0.0,0.0,0.0,0.0,0.0,0.0,0.0,0.0,0.0,0.0,0.0,0.0,0.0,0.0,0.0,0.0,0.0,0.0,0.0,0.0,0.0,0.0,0.0,0.0,0.0,0.0,0.0,0.0,0.0,0.0,0.0,0.0,0.0,0.0,0.0,0.0,0.0,0.0,0.0,0.0,0.0,0.0,0.0,0.0,0.0,0.0,0.0,0.0,0.0,0.0,0.0,0.0,0.0,0.0,0.0,0.0,0.0,0.0,0.0,0.0,0.0,0.0,4.5563,4.5968,4.6454,4.6613,4.6262,4.6707,4.7273,4.7809,0.0,0.0,0.0,0.0,0.0,0.0,0.0,0.0,0.0,0.0,0.0,0.0,0.0,0.0,0.0,0.0,0.0,0.0,0.0,0.0,0.0,0.0,0.0,0.0,0.0,0.0,0.0,0.0,0.0,0.0,0.0,0.0,0.0,0.0,0.0,0.0,0.0,0.0,0.0,0.0,0.0,0.0,0.0,0.0,0.0,0.0,0.0,0.0,0.0,0.0,0.0,0.0,0.0,0.0,0.0,0.0,0.0,0.0,0.0,0.0,0.0,0.0,0.0,0.0,0.0,0.0,0.0,0.0,0.0,0.0,0.0,0.0,0.0,0.0,0.0,0.0,0.0,0.0,0.0,0.0,0.0,0.0,0.0,0.0,0.0,0.0,0.0,0.0,0.0,0.0,0.0,0.0,0.0,0.0,0.0,0.0,0.0,0.0,0.0,0.0,0.0,0.0,0.0,0.0,4.5868,4.5459,4.59,4.6358,4.6753,4.7258,4.7687,4.8038,0.0,0.0,0.0,0.0,0.0,0.0,0.0,0.0,0.0,0.0,0.0,0.0,0.0,0.0,0.0,0.0,0.0,0.0,0.0,0.0,0.0,0.0,0.0,0.0,0.0,0.0,0.0,0.0,0.0,0.0,0.0,0.0,0.0,0.0,0.0,0.0,0.0,0.0,0.0,0.0,0.0,0.0,0.0,0.0,0.0,0.0,0.0,0.0,0.0,0.0,0.0,0.0,0.0,0.0,0.0,0.0,0.0,0.0,0.0,0.0,0.0,0.0,0.0,0.0,0.0,0.0,0.0,0.0,0.0,0.0,0.0,0.0,0.0,0.0,0.0,0.0,0.0,0.0,0.0,0.0,0.0,0.0,0.0,0.0,0.0,0.0,0.0,0.0,0.0,0.0,0.0,0.0,0.0,0.0,0.0,0.0,0.0,0.0,0.0,0.0,0.0,0.0,0.0,4.5749,4.5459,4.5197,4.5563,4.6,4.6501,4.7151,4.7687,4.8155,4.8254,0.0,0.0,0.0,0.0,0.0,0.0,0.0,0.0,0.0,0.0,0.0,0.0,0.0,0.0,0.0,0.0,0.0,0.0,0.0,0.0,0.0,0.0,0.0,0.0,0.0,0.0,0.0,0.0,0.0,0.0,0.0,0.0,0.0,0.0,0.0,0.0,0.0,0.0,0.0,0.0,0.0,0.0,0.0,0.0,0.0,0.0,0.0,0.0,0.0,0.0,0.0,0.0,0.0,0.0,0.0,0.0,0.0,0.0,0.0,0.0,0.0,0.0,0.0,0.0,0.0,0.0,0.0,0.0,0.0,0.0,0.0,0.0,0.0,0.0,0.0,0.0,0.0,0.0,0.0,0.0,0.0,0.0,0.0,0.0,0.0,0.0,0.0,0.0,0.0,0.0,0.0,0.0,0.0,0.0,0.0,0.0,0.0,0.0,0.0,0.0,0.0,0.0,4.5108,4.4855,4.4855,4.5161,4.5545,4.6049,4.6707,4.7378,4.8041,4.8346,0.0,0.0,0.0,0.0,0.0,0.0,0.0,0.0,0.0,0.0,0.0,0.0,0.0,0.0,0.0,0.0,0.0,0.0,0.0,0.0,0.0,0.0,0.0,0.0,0.0,0.0,0.0,0.0,0.0,0.0,0.0,0.0,0.0,0.0,0.0,0.0,0.0,0.0,0.0,0.0,0.0,0.0,0.0,0.0,0.0,0.0,0.0,0.0,0.0,0.0,0.0,0.0,0.0,0.0,0.0,0.0,0.0,0.0,0.0,0.0,0.0,0.0,0.0,0.0,0.0,0.0,0.0,0.0,0.0,0.0,0.0,0.0,0.0,0.0,0.0,0.0,0.0,0.0,0.0,0.0,0.0,0.0,0.0,0.0,0.0,0.0,0.0,0.0,0.0,0.0,0.0,0.0,0.0,0.0,0.0,0.0,0.0,0.0,0.0,0.0,0.0,0.0,4.4855,4.4155,4.4155,4.4652,4.5108,4.5511,4.6067,4.6763,4.7775,4.8098,0.0,0.0,0.0,0.0,0.0,0.0,0.0,0.0,0.0,0.0,0.0,0.0,0.0,0.0,0.0,0.0,0.0,0.0,0.0,0.0,0.0,0.0,0.0,0.0,0.0,0.0,0.0,0.0,0.0,0.0,0.0,0.0,0.0,0.0,0.0,0.0,0.0,0.0,0.0,0.0,0.0,0.0,0.0,0.0,0.0,0.0,0.0,0.0,0.0,0.0,0.0,0.0,0.0,0.0,0.0,0.0,0.0,0.0,0.0,0.0,0.0,0.0,0.0,0.0,0.0,0.0,0.0,0.0,0.0,0.0,0.0,0.0,0.0,0.0,0.0,0.0,0.0,0.0,0.0,0.0,0.0,0.0,0.0,0.0,0.0,0.0,0.0,0.0,0.0,0.0,0.0,0.0,0.0,0.0,0.0,0.0,0.0,0.0,0.0,0.0,0.0,0.0,4.502,4.4316,4.3998,4.431,4.4614,4.4763,4.5303,4.6192,4.7362,0.0,0.0,0.0,0.0,0.0,0.0,0.0,0.0,0.0,0.0,0.0,0.0,0.0,0.0,0.0,0.0,0.0,0.0,0.0,0.0,0.0,0.0,0.0,0.0,0.0,0.0,0.0,0.0,0.0,0.0,0.0,0.0,0.0,0.0,0.0,0.0,0.0,0.0,0.0,0.0,0.0,0.0,0.0,0.0,0.0,0.0,0.0,0.0,0.0,0.0,0.0,0.0,0.0,0.0,0.0,0.0,0.0,0.0,0.0,0.0,0.0,0.0,0.0,0.0,0.0,0.0,0.0,0.0,0.0,0.0,0.0,0.0,0.0,0.0,0.0,0.0,0.0,0.0,0.0,0.0,0.0,0.0,0.0,0.0,0.0,0.0,0.0,0.0,0.0,0.0,0.0,0.0,0.0,0.0,0.0,0.0,0.0,0.0,0.0,0.0,0.0,0.0,4.5699,4.4858,4.4145,4.3822,4.3981,4.4138,4.431,4.4708,4.5578,4.7006,0.0,0.0,0.0,0.0,0.0,0.0,0.0,0.0,0.0,0.0,0.0,0.0,0.0,0.0,0.0,0.0,0.0,0.0,0.0,0.0,0.0,0.0,0.0,0.0,0.0,0.0,0.0,0.0,0.0,0.0,0.0,0.0,0.0,0.0,0.0,0.0,0.0,0.0,0.0,0.0,0.0,0.0,0.0,0.0,0.0,0.0,0.0,0.0,0.0,0.0,0.0,0.0,0.0,0.0,0.0,0.0,0.0,0.0,0.0,0.0,0.0,0.0,0.0,0.0,0.0,0.0,0.0,0.0,0.0,0.0,0.0,0.0,0.0,0.0,0.0,0.0,0.0,0.0,0.0,0.0,0.0,0.0,0.0,0.0,0.0,0.0,0.0,0.0,0.0,0.0,0.0,0.0,0.0,0.0,0.0,0.0,0.0,0.0,0.0,0.0,0.0,0.0,4.525,4.4299,4.3628,4.3628,4.3628,4.3789,4.4236,4.4293,4.502,0.0,0.0,0.0,0.0,0.0,0.0,0.0,0.0,0.0,0.0,0.0,0.0,0.0,0.0,0.0,0.0,0.0,0.0,0.0,0.0,0.0,0.0,0.0,0.0,0.0,0.0,0.0,0.0,0.0,0.0,0.0,0.0,0.0,0.0,0.0,0.0,0.0,0.0,0.0,0.0,0.0,0.0,0.0,0.0,0.0,0.0,0.0,0.0,0.0,0.0,0.0,0.0,0.0,0.0,0.0,0.0,0.0,0.0,0.0,0.0,0.0,0.0,0.0,0.0,0.0,0.0,0.0,0.0,0.0,0.0,0.0,0.0,0.0,0.0,0.0,0.0,0.0,0.0,0.0,0.0,0.0,0.0,0.0,0.0,0.0,0.0,0.0,0.0,0.0,0.0,0.0,0.0,0.0,0.0,0.0,0.0,0.0,0.0,0.0,0.0,0.0,0.0,0.0,4.5001,4.4219,4.3628,4.3628,4.3628,4.3687,4.3789,4.3805,4.4512,4.6182,0.0,0.0,0.0,0.0,0.0,0.0,0.0,0.0,0.0,0.0,0.0,0.0,0.0,0.0,0.0,0.0,0.0,0.0,0.0,0.0,0.0,0.0,0.0,0.0,0.0,0.0,0.0,0.0,0.0,0.0,0.0,0.0,0.0,0.0,0.0,0.0,0.0,0.0,0.0,0.0,0.0,0.0,0.0,0.0,0.0,0.0,0.0,0.0,0.0,0.0,0.0,0.0,0.0,0.0,0.0,0.0,0.0,0.0,0.0,0.0,0.0,0.0,0.0,0.0,0.0,0.0,0.0,0.0,0.0,0.0,0.0,0.0,0.0,0.0,0.0,0.0,0.0,0.0,0.0,0.0,0.0,0.0,0.0,0.0,0.0,0.0,0.0,0.0,0.0,0.0,0.0,0.0,0.0,0.0,0.0,0.0,0.0,0.0,0.0,0.0,0.0,0.0,4.4652,4.4064,4.3628,4.3628,4.3628,4.3628,4.3628,4.3628,4.4152,4.5407,0.0,0.0,0.0,0.0,0.0,0.0,0.0,0.0,0.0,0.0,0.0,0.0,0.0,0.0,0.0,0.0,0.0,0.0,0.0,0.0,0.0,0.0,0.0,0.0,0.0,0.0,0.0,0.0,0.0,0.0,0.0,0.0,0.0,0.0,0.0,0.0,0.0,0.0,0.0,0.0,0.0,0.0,0.0,0.0,0.0,0.0,0.0,0.0,0.0,0.0,0.0,0.0,0.0,0.0,0.0,0.0,0.0,0.0,0.0,0.0,0.0,0.0,0.0,0.0,0.0,0.0,0.0,0.0,0.0,0.0,0.0,0.0,0.0,0.0,0.0,0.0,0.0,0.0,0.0,0.0,0.0,0.0,0.0,0.0,0.0,0.0,0.0,0.0,0.0,0.0,0.0,0.0,0.0,0.0,0.0,0.0,0.0,0.0,0.0,0.0,0.0,0.0,4.4253,4.3848,4.3628,4.3628,4.3628,4.3628,4.3628,4.3628,4.3873,4.4456,0.0,0.0,0.0,0.0,0.0,0.0,0.0,0.0,0.0,0.0,0.0,0.0,0.0,0.0,0.0,0.0,0.0,0.0,0.0,0.0,0.0,0.0,0.0,0.0,0.0,0.0,0.0,0.0,0.0,0.0,0.0,0.0,0.0,0.0,0.0,0.0,0.0,0.0,0.0,0.0,0.0,0.0,0.0,0.0,0.0,0.0,0.0,0.0,0.0,0.0,0.0,0.0,0.0,0.0,0.0,0.0,0.0,0.0,0.0,0.0,2.9556,3.0307,0.0,0.0,0.0,0.0,0.0,0.0,0.0,0.0,0.0,0.0,0.0,0.0,0.0,0.0,0.0,0.0,0.0,0.0,0.0,0.0,0.0,0.0,0.0,0.0,0.0,0.0,0.0,0.0,0.0,0.0,0.0,0.0,0.0,0.0,0.0,0.0,0.0,0.0,0.0,0.0,4.3998,4.3747,4.3628,4.3628,4.3628,4.3628,4.3628,4.3628,4.3663,4.3788,4.4224,0.0,0.0,0.0,0.0,0.0,0.0,0.0,0.0,0.0,0.0,0.0,0.0,0.0,0.0,0.0,0.0,0.0,0.0,0.0,0.0,0.0,0.0,0.0,0.0,0.0,0.0,0.0,0.0,0.0,0.0,0.0,0.0,0.0,0.0,0.0,0.0,0.0,0.0,0.0,0.0,0.0,0.0,0.0,0.0,0.0,0.0,0.0,0.0,0.0,0.0,0.0,0.0,0.0,0.0,0.0,0.0,0.0,0.0,0.0,2.7649,2.8512,0.0,0.0,0.0,0.0,0.0,0.0,0.0,0.0,0.0,0.0,0.0,0.0,0.0,0.0,0.0,0.0,0.0,0.0,0.0,0.0,0.0,0.0,0.0,0.0,0.0,0.0,0.0,0.0,0.0,0.0,0.0,0.0,0.0,0.0,0.0,0.0,0.0,0.0,0.0,0.0,4.3312,4.2834,4.271,4.3096,4.3113,4.3113,4.3113,4.3113,4.2986,4.2626,4.2687,0.0,0.0,0.0,0.0,0.0,0.0,0.0,0.0,0.0,0.0,0.0,0.0,0.0,0.0,0.0,0.0,0.0,0.0,0.0,0.0,0.0,0.0,0.0,0.0,0.0,0.0,0.0,0.0,0.0,0.0,0.0,0.0,0.0,0.0,0.0,0.0,0.0,0.0,0.0,0.0,0.0,0.0,0.0,0.0,0.0,0.0,0.0,0.0,0.0,0.0,0.0,0.0,0.0,2.5945,2.6054,2.6164,2.6164,2.5735,2.4855,2.6036,2.6905,2.7356,2.7571,0.0,0.0,0.0,0.0,0.0,0.0,0.0,0.0,0.0,0.0,0.0,0.0,0.0,0.0,0.0,0.0,0.0,0.0,0.0,0.0,0.0,0.0,3.359,3.3953,3.405,3.4288,3.5332,0.0,0.0,0.0,0.0,0.0,0.0,0.0,0.0,0.0,0.0,0.0,4.238,4.1852,4.1787,4.2443,4.2443,4.238,4.2522,4.2285,4.1804,4.1064,4.0814,4.037,0.0,0.0,0.0,0.0,0.0,0.0,0.0,0.0,0.0,0.0,0.0,0.0,0.0,0.0,0.0,0.0,0.0,0.0,0.0,0.0,0.0,0.0,0.0,0.0,0.0,0.0,0.0,0.0,0.0,0.0,0.0,0.0,2.8922,2.8985,0.0,0.0,0.0,0.0,0.0,0.0,0.0,0.0,0.0,0.0,0.0,0.0,0.0,2.7571,2.6698,2.5634,2.4991,2.4991,2.3999,2.3448,2.356,2.356,2.3448,2.3344,2.3448,0.0,2.5507,2.5617,0.0,0.0,0.0,0.0,0.0,0.0,0.0,0.0,0.0,0.0,0.0,0.0,0.0,0.0,0.0,0.0,0.0,0.0,0.0,0.0,0.0,0.0,3.0485,3.2202,3.2575,3.2821,3.3784,3.5006,3.6122,3.7021,3.7548,3.8164,0.0,0.0,0.0,0.0,0.0,0.0,4.1412,4.1444,4.1722,4.2253,4.1771,4.1625,4.2317,4.0888,3.9732,3.9011,3.8429,3.7558,3.6507,3.6445,0.0,0.0,0.0,0.0,0.0,0.0,0.0,0.0,0.0,0.0,0.0,0.0,0.0,0.0,0.0,0.0,0.0,0.0,0.0,0.0,0.0,0.0,0.0,0.0,0.0,0.0,0.0,0.0,0.0,2.8254,2.8415,2.8415,2.8157,2.8361,0.0,0.0,0.0,0.0,0.0,0.0,0.0,0.0,0.0,2.7248,2.6608,2.6073,2.5525,2.4334,2.3792,2.3784,2.3231,2.3014,2.3014,2.3014,2.3014,2.3014,2.3014,2.3344,2.3991,2.4334,2.5203,2.6291,0.0,0.0,0.0,0.0,2.64,2.64,2.5634,2.6924,2.8754,2.8106,0.0,0.0,0.0,0.0,0.0,0.0,0.0,3.0395,3.073,3.092,3.1211,3.2127,3.2747,3.3189,3.3628,3.4121,3.4841,3.5695,3.6132,3.6922,3.8736,3.914,0.0,0.0,0.0,4.0569,4.0485,4.0154,4.0224,4.0894,4.0201,3.9878,4.0224,3.908,3.7986,3.7306,3.6549,3.5625,3.4537,3.3636,3.1872,0.0,0.0,0.0,0.0,0.0,0.0,0.0,0.0,0.0,0.0,0.0,0.0,0.0,0.0,0.0,0.0,0.0,0.0,0.0,0.0,0.0,0.0,0.0,0.0,0.0,0.0,0.0,0.0,2.7815,2.8116,2.7785,2.8009,2.8116,0.0,0.0,0.0,0.0,0.0,0.0,2.6063,2.6063,2.6063,2.6063,2.5203,2.4667,2.4342,2.3456,2.3014,2.3014,2.3014,2.3014,2.3014,2.3014,2.3014,2.3014,2.3014,2.3014,2.3014,2.3464,2.3904,2.4214,2.4454,2.4565,2.4437,2.4565,2.5,2.5322,2.4128,2.5415,2.7571,2.6599,2.7332,2.8576,2.8831,0.0,0.0,0.0,0.0,2.9931,2.9931,3.0485,3.1045,3.1323,3.194,3.2562,3.3104,3.3189,3.353,3.4511,3.4746,3.5507,3.7534,3.776,0.0,3.9652,3.9358,3.8971,3.8898,3.8413,3.8413,3.9086,3.8385,3.7984,3.8178,3.7187,3.6207,3.5372,3.4611,3.35,3.1932,3.0589,2.8495,2.5547,0.0,0.0,0.0,0.0,0.0,0.0,0.0,0.0,0.0,0.0,0.0,0.0,0.0,0.0,0.0,0.0,0.0,0.0,0.0,0.0,0.0,0.0,0.0,0.0,0.0,0.0,0.0,0.0,0.0,2.6698,2.7571,0.0,0.0,0.0,0.0,2.5,2.4889,2.4889,2.4889,2.4889,2.4889,2.4889,2.4778,2.4231,2.3127,2.3014,2.3014,2.3014,2.3014,2.3014,2.3014,2.3014,2.3014,2.3014,2.3014,2.3014,2.3014,2.3014,2.2885,2.2749,2.3568,2.3784,2.3536,2.3792,2.3913,2.3913,2.3239,2.3896,2.5,2.4889,2.6074,2.7412,2.7668,2.7852,0.0,0.0,2.7715,2.7715,2.7536,2.7536,2.7809,2.8631,2.8899,2.9441,3.1347,3.1889,3.2413,3.3543,3.3641,3.3869,3.4979,0.0,3.5278,3.6263,3.642,3.629,3.616,3.6225,3.6562,3.7082,3.6484,3.6341,3.7005,3.548,3.4082,3.3148,3.2451,3.0742,2.7568,2.7557,2.6008,2.2441,2.1127,0.0,0.0,0.0,0.0,0.0,0.0,0.0,0.0,0.0,0.0,0.0,0.0,0.0,0.0,0.0,0.0,0.0,0.0,0.0,0.0,0.0,0.0,0.0,0.0,0.0,0.0,0.0,0.0,2.5533,2.6381,0.0,2.659,2.5845,2.5203,2.4778,2.4119,2.368,2.368,2.4342,2.4454,2.368,2.4454,2.4231,2.3014,2.3014,2.3014,2.3014,2.3014,2.3014,2.3014,2.3014,2.3014,2.3014,2.3014,2.3014,2.3014,2.3014,2.2893,2.2885,2.3231,2.3231,2.3111,2.3239,2.3352,2.3239,2.3014,2.3784,2.4913,2.5903,2.6807,2.7645,2.7438,2.7441,2.7536,2.7441,2.7452,2.7357,2.7357,2.7715,2.8269,2.8631,2.9176,2.9897,3.0531,3.1258,3.1889,3.2239,3.2945,3.3713,3.4664,3.4607,3.4841,3.5842,3.5922,3.5762,3.5695,3.5762,3.5908,3.6105,3.5373,3.4802,3.441,3.3259,3.2215,3.1199,3.0281,2.8984,2.7212,2.5932,2.4076,2.1651,1.9937,1.7508,0.0,0.0,0.0,0.0,0.0,0.0,0.0,0.0,0.0,0.0,0.0,0.0,0.0,0.0,0.0,0.0,0.0,0.0,0.0,0.0,0.0,0.0,0.0,0.0,0.0,2.5423,2.5525,2.4342,2.5516,2.6164,2.5406,2.4982,2.4667,2.4231,2.3456,2.3014,2.3014,2.3792,2.3792,2.3014,2.3784,2.3792,2.3014,2.3014,2.3014,2.3014,2.3014,2.3014,2.3014,2.3014,2.3014,2.3014,2.3014,2.3014,2.3014,2.3014,2.3014,2.3014,2.3014,2.2788,2.2546,2.2901,2.3014,2.3014,2.3014,2.3487,2.4259,2.5414,2.6044,2.632,2.6703,2.6764,2.687,2.7167,2.7262,2.7262,2.7262,2.7715,2.8269,2.8269,2.8713,2.9441,3.0079,3.0711,3.1258,3.1536,3.2513,3.3471,3.4037,3.405,3.4301,3.5237,3.5074,3.4828,3.5156,3.491,3.4746,3.4746,3.4011,3.3164,3.2513,3.194,3.108,2.9806,2.9006,2.7849,2.6174,2.4417,2.2541,2.0341,1.8499,1.6056,1.2911,0.0,0.0,0.0,0.0,0.0,0.0,0.0,0.0,0.0,0.0,0.0,0.0,0.0,0.0,0.0,0.0,0.0,0.0,0.0,0.0,0.0,0.0,0.0,2.4778,2.4778,2.4334,2.3127,2.5075,2.5507,2.3231,2.4119,2.4342,2.3127,2.3014,2.3014,2.3014,2.3014,2.3014,2.3014,2.3014,2.3014,2.3014,2.3014,2.3014,2.3014,2.3014,2.3014,2.3014,2.3014,2.3014,2.3014,2.3014,2.3014,2.3014,2.3014,2.3014,2.3014,2.3014,2.2433,2.1737,2.2667,2.3014,2.3014,2.3006,2.2768,2.263,2.3325,2.3365,2.3373,2.5214,2.5693,2.5984,2.6965,2.7262,2.7262,2.7262,2.7262,2.7262,2.7262,2.7262,2.7809,2.9715,3.017,3.0441,3.1448,3.2351,3.3068,3.3068,3.3081,3.3411,3.423,3.3654,0.0,3.423,3.3654,3.3081,3.3081,3.2264,3.1625,3.1536,3.1536,3.0722,2.8724,2.8544,2.7096,2.4177,2.3011,2.1089,1.8422,1.6624,1.4019,1.0518,0.0,0.0,0.0,0.0,0.0,0.0,0.0,0.0,0.0,0.0,0.0,0.0,0.0,0.0,0.0,0.0,0.0,0.0,0.0,0.0,0.0,2.3904,2.3456,2.3456,2.4231,2.4334,2.3127,2.4326,2.4991,2.4334,2.4565,2.4556,2.3999,2.3344,2.2901,2.2683,2.2901,2.3014,2.3014,2.3014,2.3014,2.3014,2.3014,2.3014,2.3014,2.3014,2.3014,2.3014,2.3014,2.3014,2.3014,2.3014,2.3014,2.3014,2.3014,2.3014,2.3014,2.3014,2.2788,2.2667,2.2893,2.3014,2.2982,2.272,2.2942,2.3308,2.3244,2.3976,2.5045,2.5528,2.6274,2.6965,2.7262,2.7262,2.7262,2.7262,2.7262,2.7262,2.7262,2.7262,2.762,2.8817,2.9715,3.0441,3.1448,3.1813,3.1989,3.1989,3.2624,3.3154,3.3411,3.324,3.3167,3.3411,3.324,3.3081,3.3081,3.2896,3.2077,3.0711,3.0621,2.9418,2.6733,2.5828,2.4328,2.2156,2.1081,1.9339,1.6929,1.4352,1.1959,0.0,0.0,0.0,0.0,0.0,0.0,0.0,0.0,0.0,0.0,0.0,0.0,0.0,0.0,0.0,0.0,0.0,0.0,0.0,0.0,0.0,0.0,2.3456,2.3014,2.3014,2.3568,2.3792,2.3127,2.3568,2.4008,2.4008,2.4008,2.4008,2.3776,2.3344,2.2901,2.2796,2.2901,2.3014,2.3014,2.3014,2.3014,2.3014,2.3014,2.3014,2.3014,2.3014,2.3014,2.3014,2.3014,2.3014,2.3014,2.3014,2.3014,2.3014,2.3014,2.3014,2.3014,0.0,0.0,0.0,0.0,2.3014,2.2966,2.2609,2.2687,2.2847,2.2474,2.3225,2.4402,2.4894,2.5781,2.6764,2.7156,2.7262,2.7262,2.7262,2.7262,2.7262,2.7262,2.7262,2.7536,2.8538,2.9176,2.9897,3.0812,3.0991,0.0,3.0991,3.1801,3.2612,3.292,3.3043,3.3056,3.3006,3.2686,3.2351,3.1889,3.1536,3.08,2.9624,2.9131,0.0,0.0,0.0,2.2941,2.0326,1.922,0.0,0.0,0.0,1.185,0.9992,0.8639,0.0,0.0,0.1871,-0.022,0.0,0.0,0.0,0.0,0.0,0.0,0.0,0.0,0.0,0.0,0.0,0.0,0.0,0.0,0.0,0.0,2.3014,2.3014,2.3014,2.3014,2.3014,2.3014,2.3014,2.3014,2.3014,2.3014,2.3014,2.3014,2.3014,2.3014,2.3014,2.3014,0.0,0.0,0.0,2.3014,2.3014,2.3014,2.3014,2.3014,2.3014,2.3014,2.3014,2.3014,2.3014,2.3014,2.3014,2.3014,2.3014,2.3014,2.3014,2.3014,2.3014,2.3014,2.3014,2.3014,2.299,2.2903,2.2545,0.0,0.0,2.1505,2.1886,2.2619,2.3601,2.4688,2.5887,2.686,2.7262,2.7262,2.7262,2.7262,2.7262,2.7262,2.7262,2.7536,2.8538,2.8724,2.8991,2.9988,3.0079,2.9988,2.9988,3.0812,3.1765,3.266,3.2735,3.2772,3.2746,3.2016,3.108,3.026,0.0,0.0,2.862,2.7819,2.6768,2.5489,2.4122,2.198,1.8844,1.7607,1.6436,1.5335,1.419,1.2715,1.0899,1.0318,0.856,0.5721,0.3659,0.1398,0.0,0.0,0.0,0.0,0.0,0.0,0.0,0.0,0.0,0.0,0.0,0.0,0.0,0.0,0.0,2.3014,2.3014,2.3014,2.3014,2.3014,2.3014,2.3014,2.3014,2.3014,2.3014,2.3014,2.2901,2.2683,2.2901,2.2909,2.2683,2.2901,2.3014,2.3014,2.3014,2.3014,2.3014,2.3014,2.3014,2.3014,2.3014,0.0,2.3014,2.3014,2.3014,2.3014,2.3014,2.3014,2.3014,2.3014,2.3014,2.3014,2.3014,2.3014,2.3014,2.3014,2.2831,2.2537,2.218,2.1838,2.1489,2.1139,2.1571,2.2299,2.2719,2.3989,0.0,2.5877,2.6668,2.7262,2.7262,2.7262,2.7262,2.7262,2.7262,2.7536,2.8538,2.8724,2.8991,2.9988,2.9532,2.8991,2.8991,2.9806,3.08,3.1689,3.1247,3.1069,3.1777,3.1069,3.0441,3.026,2.9988,2.9532,2.8412,2.8226,2.6873,2.398,2.1245,1.9405,1.8556,1.6795,1.5451,1.4413,1.2708,1.1444,1.0619,0.9743,0.872,0.727,0.5393,0.3726,0.0,0.0,0.0,0.0,0.0,0.0,0.0,0.0,0.0,0.0,0.0,2.3014,2.3014,0.0,2.3014,2.3014,2.3014,2.3014,2.3014,2.3014,2.3014,2.3014,2.3014,2.3014,2.3014,2.2901,2.2796,2.2796,2.2796,2.2796,2.2796,2.2909,2.3014,2.3014,2.3014,2.3014,2.3014,2.3014,2.3014,2.3014,2.3014,2.3014,2.3014,2.3014,2.3014,2.3014,2.3014,2.3014,2.3014,2.3014,2.3014,2.3014,2.3014,2.3014,2.299,2.2815,2.253,2.2198,2.1663,2.1258,2.0965,2.0615,2.1097,2.1887,2.2106,2.3493,2.5168,2.5373,2.6274,2.7177,2.7262,2.7262,2.7262,2.7262,2.7262,2.7441,2.7904,2.7998,2.8269,2.9268,2.8631,2.8175,2.8631,2.8631,2.8899,3.0,3.017,3.017,3.017,2.9612,2.9154,2.8806,2.8527,2.8154,2.761,2.6502,2.4742,2.2425,2.021,1.8344,1.7009,1.589,1.4601,1.3049,1.2016,1.1146,1.0429,0.9823,0.9127,0.8244,0.6887,0.5476,0.0,0.0,0.0,0.0,0.0,0.0,0.0,2.058,2.1752,2.2788,2.3014,2.3014,2.3014,2.3014,2.3014,2.3014,2.3014,2.3014,2.3014,2.3014,2.3014,2.3014,2.3014,2.3014,2.3014,2.2796,2.2683,2.2909,2.2683,2.257,2.2788,2.2788,2.2788,2.2788,2.2788,2.2909,2.2901,2.2901,2.2909,2.3014,2.3014,2.3014,2.3014,2.3014,2.3014,2.3014,2.3014,2.3014,2.3014,2.3014,2.3014,2.2901,2.2901,2.2862,2.2767,2.2593,2.2292,2.1768,2.1199,2.0755,2.0445,2.017,2.0688,2.1285,2.1387,2.2693,2.4285,2.4562,2.5479,2.6592,2.6764,2.7061,2.7262,2.7262,2.7262,2.7262,2.7262,2.7262,2.7452,2.8175,2.7809,2.7536,2.8269,2.7536,2.7262,2.8445,2.9176,2.9349,2.862,2.8236,2.7788,2.7262,2.6784,2.6602,2.6699,2.4515,2.2551,2.1378,1.9914,1.8117,1.5995,1.5394,1.4167,1.2297,1.1736,1.1148,1.0436,1.0289,0.9817,0.9023,0.8326,0.7129,1.4867,1.51,1.5688,1.6497,1.8144,1.9666,0.0,2.1509,2.257,2.2901,2.3014,2.3014,2.3014,2.3014,2.3014,2.3014,2.3014,2.3014,2.3014,2.3014,2.3014,2.3014,2.3014,2.3014,2.3014,2.2796,2.257,2.2683,2.2343,2.223,2.223,2.223,2.223,2.223,2.223,2.2343,2.2683,2.2683,2.2796,2.3014,2.3014,2.3014,2.3014,2.3014,2.3014,2.3014,2.3014,2.3014,2.3014,2.3014,2.2909,2.2683,2.2683,2.2263,2.1769,2.2285,2.1868,2.1106,2.1028,2.0593,2.0132,2.0094,1.9983,1.9983,2.0181,2.0987,2.1785,2.1988,2.3583,2.5089,2.5187,2.6091,2.69,2.69,2.69,2.69,2.69,2.69,2.6996,2.7081,2.7167,2.7357,2.7441,2.7177,2.7262,2.8236,2.7704,2.7431,2.7934,2.7421,2.6986,2.6592,2.6496,2.64,2.6197,2.366,2.2059,2.1927,1.9673,1.8105,1.7584,1.5797,1.46,1.4069,1.2211,1.1231,1.1133,1.111,1.0605,0.9821,0.9821,0.8825,1.5445,1.58,1.6391,1.7547,1.8835,2.0012,2.0573,2.1744,2.2683,2.2901,2.3014,2.3014,2.3014,2.3014,2.3014,2.3014,2.3014,2.3014,2.3014,2.2909,2.2796,2.2796,2.257,2.2562,2.2796,2.2343,2.2116,2.2343,2.2002,2.2002,2.2343,2.223,2.2222,2.2562,2.2456,2.257,2.2788,2.2788,2.2909,2.3014,2.3014,2.3014,2.3014,2.3014,2.3014,2.3014,2.2788,2.2909,2.3014,2.2562,2.257,2.2554,2.2119,2.1723,2.1307,2.1635,2.1217,2.0461,2.0264,2.0,1.968,1.968,1.9576,1.948,1.9576,2.0285,2.1081,2.1387,2.2584,2.389,2.4688,2.5294,2.5897,2.6496,2.6699,2.6699,2.6699,2.6699,2.6699,2.6699,2.6794,2.6784,2.6784,2.6592,2.6582,2.6935,2.687,2.6784,2.703,2.6668,2.6304,2.6024,2.6207,2.5799,2.4746,2.2992,2.1536,2.0528,1.8947,1.7577,1.6675,1.5787,1.4768,1.3403,1.2538,1.177,1.1194,1.1194,1.0998,1.0708,1.0216,0.962,1.5908,1.6385,1.7091,1.859,1.9768,2.0594,2.1152,2.2085,2.2796,2.3014,2.3014,2.3127,2.3456,2.3456,2.3456,2.3456,2.3456,2.3344,2.3014,2.3014,2.2901,2.2683,2.278,2.2772,2.2343,2.201,2.1782,2.2002,2.1668,2.1782,2.223,2.2116,2.223,2.2675,2.257,2.257,2.2909,2.2909,2.2909,2.3014,2.3014,2.3014,2.3014,2.3014,2.3014,2.2901,2.2683,2.2683,2.2675,2.2222,2.2168,2.2181,2.1704,2.1235,2.0748,2.0748,2.043,2.0009,1.9762,1.948,1.9279,1.9279,1.9279,1.9279,1.9279,1.9879,2.0483,2.068,2.1684,2.2985,2.3989,2.4688,2.5392,2.6197,2.64,2.64,2.64,2.64,2.64,2.64,2.64,2.6496,2.6496,2.6294,2.61,2.61,2.6197,2.6314,2.6314,2.611,2.5917,2.5732,2.5809,2.5295,2.4096,2.2601,2.1188,1.9894,1.8468,1.7187,1.6285,1.5988,1.5127,1.359,1.3017,1.2344,1.158,1.1389,1.1194,1.1194,1.0609,1.0216,1.579,1.6615,1.7904,2.0099,2.1395,2.2222,2.2788,2.3014,2.3014,2.3014,2.3014,2.3344,2.4565,2.4787,2.4787,2.4787,2.4787,2.4342,2.3127,2.3664,2.3888,2.2683,2.4094,2.4197,2.2002,2.1668,2.1668,2.1668,2.1439,2.1211,2.1211,2.1554,2.1668,2.1782,2.2002,2.223,2.257,2.257,2.2796,2.3014,2.3014,2.3014,2.3014,2.3014,2.2909,2.257,2.257,2.2456,2.2116,2.2116,2.1805,2.1294,2.1175,2.0669,1.9883,1.9883,1.9775,1.9687,1.968,1.948,1.9279,1.9279,1.9279,1.9279,1.9279,1.9272,1.9376,1.9376,2.0885,2.2484,2.2584,2.4295,2.6091,2.61,2.6091,2.6091,2.6091,2.6091,2.6091,2.6091,2.6294,2.6496,2.6496,2.6294,2.61,2.61,2.5917,2.5732,2.5732,2.5742,2.5732,2.5742,2.5352,2.5088,2.5068,2.2487,2.0916,2.089,1.8621,1.734,1.7239,1.6278,1.5798,1.5704,1.3686,1.2635,1.2635,1.1673,1.1194,1.1194,1.1194,1.0703,1.8377,1.8964,1.9673,2.1288,2.1759,2.2002,2.257,2.2562,2.2456,2.2683,2.2683,2.2909,2.3239,2.3456,2.3904,2.4676,2.4778,2.4889,2.4991,2.5084,2.4753,2.3552,2.376,2.3424,2.1888,2.2869,2.3087,2.1432,2.2207,2.232,2.1554,2.1774,2.2002,2.2002,2.223,2.2456,2.257,2.257,2.2683,2.2683,2.2562,2.2456,2.2456,2.2456,2.2335,2.223,2.2124,2.2002,2.2093,2.1421,2.1152,2.113,2.0471,2.006,1.974,1.952,1.9471,1.948,1.948,1.9376,1.9279,1.9279,1.9279,1.9279,1.9279,1.9279,1.9279,1.9279,1.9776,2.068,2.2089,2.3085,2.4097,2.5518,2.582,2.582,2.582,2.582,2.582,2.582,2.5927,2.5927,2.5927,2.5927,2.582,2.582,2.5732,2.5742,2.5742,2.5742,2.5742,2.5742,2.5332,2.4753,2.3796,2.2593,2.1156,1.9627,1.8759,1.7971,1.7326,1.6951,1.6466,1.5798,1.5127,1.407,1.2727,1.2344,1.1868,1.1194,1.1194,1.1096,1.9666,1.9903,2.0263,2.1767,2.1888,2.1782,2.2343,2.223,2.2116,2.2343,2.257,2.2901,2.3648,2.4094,2.465,2.5643,2.5972,2.5972,2.599,2.5744,2.5186,2.3871,2.4197,2.376,2.1774,2.3863,2.4189,2.1432,2.2093,2.232,2.1554,2.1774,2.2002,2.2002,2.223,2.2456,2.2456,2.2456,2.2456,2.2456,2.223,2.2116,2.2116,2.2116,2.2002,2.2002,2.1782,2.1782,2.1744,2.0965,2.0766,2.0715,2.0075,1.9689,1.9564,1.9352,1.9279,1.9279,1.9279,1.9279,1.9279,1.9279,1.9279,1.9279,1.9279,1.9279,1.9279,1.9279,1.9576,2.0181,2.1582,2.2484,2.3393,2.4815,2.543,2.5742,2.5742,2.5742,2.5742,2.5742,2.5742,2.5742,2.5742,2.5742,2.5742,2.5742,2.5742,2.5742,2.5742,2.5742,2.5674,2.5518,2.5098,2.4275,2.2899,2.2016,2.0763,1.8896,1.8427,1.7971,1.7326,1.7326,1.7037,1.6372,1.5988,1.4937,1.3307,1.292,1.2155,1.1194,1.1194,1.1194,1.9666,1.9666,1.9788,2.1645,2.1888,2.1782,2.2002,2.2116,2.2116,2.2116,2.2343,2.3328,2.548,2.6254,2.6816,2.7609,2.8028,2.759,2.6109,2.5872,2.5296,2.3751,2.5305,2.5194,2.1767,2.442,2.4974,2.1546,2.1318,2.1325,2.1211,2.1554,2.1668,2.1668,2.2002,2.2108,2.2116,2.2116,2.2108,2.2002,2.2002,2.2002,2.2002,2.2002,2.1888,2.1668,2.1668,2.1432,2.1159,2.083,2.0501,2.0179,1.9864,1.955,1.9279,1.9279,1.9279,1.9279,1.9279,1.9279,1.9279,1.9279,1.9279,1.9279,1.9279,1.9279,1.9279,1.9279,2.0078,2.0783,2.0885,2.2383,2.3989,2.4088,2.4913,2.5635,2.5645,2.5742,2.5742,2.5742,2.5742,2.5742,2.5742,2.5742,2.5742,2.5742,2.5742,2.5742,2.5742,2.5713,2.5537,2.5117,2.4658,2.3842,2.2501,2.1092,1.9869,1.8972,1.7963,1.7326,1.7326,1.7326,1.7326,1.7326,1.6372,1.5317,1.4268,1.3307,1.2252,1.1194,1.1194,1.1194,2.0737,2.0737,2.0852,2.1318,2.1439,2.1439,2.1782,2.1668,2.1554,2.1782,2.2659,2.3648,2.4292,2.5498,2.6816,2.7609,2.7824,2.7931,2.8165,2.8262,2.7707,2.6499,2.6834,2.64,2.4411,2.4965,2.4744,2.2644,2.2757,2.2312,2.1211,2.166,2.1774,2.1325,2.1774,2.2002,2.1782,2.1782,2.1668,2.1439,2.1439,2.1439,2.1439,2.1439,2.1439,2.1325,2.1325,2.1185,2.0823,2.0494,2.0172,1.985,1.9528,1.9352,1.9279,1.9279,1.9279,1.9279,1.9279,1.9279,1.9279,1.9279,1.9279,1.9279,1.9279,1.9279,1.9279,1.9279,1.948,1.9879,2.068,2.1285,2.2089,2.3692,2.4295,2.4707,2.5538,2.5742,2.5742,2.5742,2.5742,2.5742,2.5742,2.5742,2.5742,2.5742,2.5742,2.5742,2.5742,2.5449,2.5195,2.5078,2.4394,2.3806,2.3419,2.2104,2.0872,1.9877,1.8972,1.8064,1.7326,1.7326,1.7326,1.7326,1.7037,1.6082,1.4268,1.4076,1.2926,1.1194,1.1194,1.1194,2.1211,2.1211,2.1211,2.1211,2.1211,2.1211,2.1439,2.1439,2.1439,2.1668,2.2998,2.4197,2.4616,2.6145,2.7473,2.8262,2.8475,2.8698,2.893,2.8475,2.7921,2.7267,2.6608,2.5726,2.4411,2.4189,2.364,2.2312,2.2869,2.2644,2.1318,2.1546,2.1546,2.1211,2.1546,2.166,2.1439,2.1439,2.1439,2.1211,2.1211,2.1211,2.1211,2.1211,2.1211,2.1203,2.1057,2.0896,2.0684,2.0223,1.9923,1.9733,1.9403,1.9279,1.9279,1.9279,1.9279,1.9279,1.9279,1.9279,1.9279,1.9279,1.9279,1.9279,1.9279,1.9279,1.9279,1.9279,1.9279,1.948,2.0086,2.0585,2.1183,2.2391,2.3085,2.3592,2.4214,2.4716,2.5118,2.5635,2.5742,2.5742,2.5742,2.5742,2.5742,2.5742,2.5742,2.5664,2.5469,2.5225,2.5,2.4805,2.4189,2.3531,2.2971,2.1733,2.0602,1.9695,1.8696,1.7878,1.7246,1.7153,1.7153,1.7153,1.7153,1.648,1.4937,1.4364,1.3307,1.1868,1.1287,1.0998,2.1211,2.1211,2.1211,2.1211,2.1211,2.1211,2.1211,2.1439,2.1668,2.1668,2.3103,2.4753,2.57,2.7239,2.8455,2.9026,2.9237,2.9353,2.8727,2.7824,2.7041,2.6924,2.5818,2.4505,2.3303,2.3199,2.2757,2.1546,2.2425,2.2425,2.1211,2.1211,2.1211,2.1211,2.1211,2.1211,2.1211,2.1211,2.1211,2.1211,2.1211,2.1211,2.1211,2.1211,2.1211,2.1196,2.0867,2.0698,2.0611,2.0011,1.974,1.9667,1.9389,1.9279,1.9279,1.9279,1.9279,1.9279,1.9279,1.9279,1.9279,1.9279,1.9279,1.9279,1.9279,1.9279,1.9279,1.9279,1.9279,1.9279,1.9279,1.9983,2.068,2.0885,2.1582,2.2291,2.2492,2.3185,2.4196,2.5323,2.5333,2.5333,2.543,2.5333,2.5323,2.543,2.5528,2.5373,2.5127,2.5019,2.4814,2.4375,2.3955,2.3178,2.1998,2.0872,1.9869,1.9063,1.7971,1.7239,1.6979,1.6979,1.6979,1.6979,1.6979,1.6581,1.5704,1.4453,1.3494,1.2538,1.1385,1.0801,2.1211,2.1211,2.1211,2.1211,2.1211,2.1211,2.1211,2.1211,2.1325,2.1325,2.3311,2.5075,2.5287,2.7257,2.892,2.8834,2.8834,2.8834,2.8727,2.8514,2.8048,2.7041,2.6698,2.5936,2.4505,2.4394,2.3958,2.2757,2.2869,2.2425,2.1211,2.1211,2.1211,2.1211,2.1211,2.1211,2.1211,2.1211,2.1211,2.1211,2.1211,2.1211,2.1211,2.1211,2.1211,2.1196,2.0867,2.0567,2.0289,1.9916,1.9608,1.9352,1.9294,1.9279,1.9279,1.9279,1.9279,1.9279,1.9279,1.9279,1.9279,1.9279,1.9279,1.9279,1.9279,1.9279,1.9279,1.9279,1.9279,1.9279,1.9279,1.948,1.9776,2.0688,2.1089,2.1387,2.2291,2.2693,2.3094,2.4196,2.3701,2.3294,2.4196,2.3601,2.3393,2.4196,2.4402,2.4547,2.5022,2.4756,2.4365,2.3945,2.3506,2.3125,2.2882,2.123,2.0141,1.9968,1.8334,1.7239,1.6979,1.6979,1.6885,1.6683,1.6885,1.64,1.5242,1.4358,1.3307,1.2073,1.1194,1.0703,2.1211,2.1211,2.1211,2.1211,2.1211,2.1211,2.1211,2.1759,2.2207,2.1546,2.4086,2.6173,2.5516,2.7375,2.9036,2.8727,2.8737,2.8737,2.8737,2.8621,2.8067,2.7032,2.6264,2.527,2.3958,2.3303,2.2644,2.2093,2.2093,2.1759,2.1211,2.1211,2.1211,2.1211,2.1211,2.1211,2.1211,2.1211,2.1211,2.1211,2.1211,2.1211,2.1211,2.1211,2.1115,2.094,2.0611,2.0289,1.9967,1.9645,1.9418,1.9279,1.9279,1.9279,1.9279,1.9279,1.9279,1.9279,1.9279,1.9279,1.9279,1.9279,1.9279,1.9279,1.9279,1.9279,1.9279,1.9279,1.9279,1.9279,1.9279,1.9279,1.9376,1.9776,1.9879,2.0181,2.1183,2.1591,2.1988,2.3085,2.2885,2.2685,2.3185,2.2885,2.2885,2.3989,2.4088,2.417,2.4533,2.3879,2.3594,2.3738,2.2945,2.2599,2.3047,2.0872,1.9695,2.0141,1.8241,1.7066,1.6784,1.6697,1.6501,1.64,1.6501,1.6312,1.5913,1.4268,1.3216,1.2743,1.1091,1.0314,2.1211,2.1211,2.1211,2.1211,2.1211,2.1233,2.1298,2.2428,2.3085,2.1994,2.4761,2.6946,2.5634,2.7375,2.8824,2.8621,2.8621,2.8621,2.8621,2.8398,2.7843,2.6599,2.5388,2.4181,2.2757,2.1767,2.1211,2.1211,2.1211,2.1211,2.1211,2.1211,2.1211,2.1211,2.1211,2.1211,2.1211,2.1211,2.1211,2.1211,2.1211,2.1211,2.1203,2.1137,2.0969,2.0706,2.0303,1.9989,1.974,1.9411,1.9279,1.9272,1.9279,1.9175,1.9175,1.9175,1.9168,1.9063,1.9063,1.9168,1.9175,1.9175,1.9279,1.9279,1.9279,1.9279,1.9279,1.9279,1.9279,1.9279,1.9279,1.9175,1.9175,1.8862,1.8757,1.9063,1.9872,2.0174,2.0672,2.1777,2.1777,2.1676,2.1878,2.1777,2.1979,2.3076,2.3313,2.341,2.3373,2.2823,2.2519,2.2853,2.1878,2.1507,2.2227,2.015,1.8964,1.9687,1.7978,1.6878,1.6494,1.6312,1.613,1.6123,1.613,1.6312,1.64,1.4178,1.3216,1.3318,1.1086,0.992,2.1211,2.1211,2.1211,2.1211,2.1211,2.1284,2.1584,2.2659,2.3221,2.1992,2.4594,2.6727,2.5128,2.6726,2.8398,2.8291,2.8291,2.8291,2.8291,2.8291,2.7403,2.5168,2.4829,2.3847,2.1539,2.1325,2.1211,2.1211,2.1211,2.1211,2.1211,2.1211,2.1211,2.1211,2.1211,2.1211,2.1211,2.1211,2.1211,2.1211,2.1211,2.1211,2.1203,2.0903,2.075,2.0684,2.0077,1.9791,1.974,1.9208,1.9078,1.9279,1.9078,1.8974,1.8974,1.8974,1.875,1.8527,1.8527,1.8646,1.8974,1.8974,1.9078,1.9279,1.9279,1.9279,1.9279,1.9279,1.9279,1.9279,1.8974,1.8974,1.8869,1.8534,1.8422,1.8422,1.8527,1.8632,1.893,2.0033,1.9428,1.9131,2.0033,1.9428,1.9131,2.0238,2.0994,2.1245,2.0916,2.1344,2.1274,2.0044,1.9786,1.977,1.9861,1.8964,1.8326,1.8218,1.7419,1.6791,1.6218,1.6224,1.6123,1.5832,1.6123,1.6123,1.5825,1.3992,1.3022,1.2727,1.089,0.9821,2.1211,2.1211,2.1211,2.1211,2.1211,2.1298,2.162,2.3284,2.4138,2.2408,2.5366,2.752,2.5431,2.6783,2.8291,2.8291,2.8291,2.8291,2.8291,2.8291,2.7628,2.5954,2.5168,2.4069,2.2425,2.1653,2.1211,2.1211,2.1211,2.1211,2.1211,2.1211,2.1211,2.1211,2.1211,2.1211,2.1211,2.1211,2.1211,2.1211,2.1211,2.1108,2.0911,2.0547,2.0279,1.9801,1.9435,1.9106,1.8921,1.8695,1.8639,1.8743,1.8646,1.8646,1.8646,1.8646,1.8534,1.8422,1.8422,1.8534,1.8646,1.8646,1.8639,1.8848,1.8966,1.8959,1.8743,1.8743,1.8743,1.8743,1.8646,1.8436,1.8338,1.822,1.8115,1.8115,1.8115,1.8325,1.8527,1.8923,1.8722,1.852,1.8923,1.8722,1.8722,1.9826,2.0155,2.0218,2.0329,1.9884,1.9255,1.8272,1.8403,1.8856,1.9488,1.8133,1.7498,1.794,1.7044,1.6414,1.6224,1.6028,1.5927,1.5832,1.5927,1.5642,1.4873,1.3511,1.2533,1.1755,1.0404,0.9723,2.1089,2.1211,2.1211,2.1211,2.1211,2.132,2.1745,2.3433,2.4565,2.3184,2.6062,2.808,2.6134,2.7215,2.8437,2.831,2.8291,2.8291,2.8291,2.8291,2.7736,2.6182,2.5177,2.4069,2.2644,2.1653,2.1211,2.1211,2.1211,2.1211,2.1211,2.1211,2.1211,2.1211,2.1211,2.1211,2.1211,2.1211,2.1211,2.1211,2.1089,2.0914,2.0601,2.0165,1.9718,1.922,1.89,1.8625,1.8422,1.8318,1.8325,1.8422,1.8318,1.8325,1.8325,1.8325,1.8213,1.8213,1.8213,1.822,1.8325,1.8325,1.8325,1.8325,1.8548,1.8541,1.8422,1.8422,1.8318,1.8325,1.8325,1.8115,1.7911,1.7911,1.7911,1.7911,1.7911,1.801,1.8213,1.8213,1.8213,1.8213,1.8213,1.8213,1.8408,1.922,1.9269,1.9208,1.9161,1.8474,1.7757,1.6979,1.7124,1.7669,1.8303,1.7217,1.677,1.7304,1.6676,1.6028,1.5642,1.5445,1.5255,1.486,1.486,1.4573,1.3806,1.2732,1.1853,1.117,1.0109,0.9628,2.0859,2.1211,2.1211,2.1211,2.1211,2.1379,2.203,2.3211,2.4228,2.4468,2.6549,2.8077,2.7279,2.8129,2.8779,2.8359,2.8291,2.8291,2.8291,2.8291,2.7394,2.4948,2.4727,2.3735,2.1432,2.1211,2.1211,2.1211,2.1211,2.1211,2.1211,2.1211,2.1211,2.1211,2.1211,2.1211,2.1211,2.1211,2.1211,2.1211,2.0845,2.0558,2.0243,1.9715,1.9185,1.887,1.8562,1.8422,1.8422,1.8115,1.8115,1.8422,1.8122,1.8016,1.8016,1.8016,1.7799,1.7582,1.7582,1.7799,1.8016,1.8016,1.8016,1.8016,1.8016,1.822,1.8422,1.8422,1.822,1.8016,1.8016,1.7799,1.7582,1.7582,1.7582,1.7582,1.7582,1.7582,1.7582,1.7582,1.7582,1.7582,1.7582,1.7582,1.7582,1.7582,1.7999,1.7896,1.69,1.7056,1.6958,1.592,1.5825,1.5832,1.5825,1.6028,1.6123,1.5832,1.6028,1.5642,1.4394,1.4298,1.3806,1.2732,1.2727,1.2727,1.2732,1.1755,1.117,1.117,1.0109,0.9628,1.9557,1.991,2.0148,2.0974,2.1211,2.1379,2.2037,2.3219,2.43,2.4785,2.6738,2.8168,2.7636,2.8217,2.8779,2.8359,2.8291,2.8291,2.8291,2.8291,2.7736,2.6073,2.4522,2.3199,2.2539,2.1653,2.1211,2.1211,2.1211,2.1089,2.0845,2.0845,2.0967,2.1211,2.1211,2.1089,2.0845,2.0845,2.073,2.0622,2.0281,1.9907,1.9708,1.9076,1.8555,1.8259,1.7945,1.7898,1.7898,1.7793,1.7793,1.7793,1.7793,1.7694,1.7694,1.7694,1.7687,1.7582,1.7582,1.7694,1.7694,1.7694,1.7694,1.7694,1.7694,1.7793,1.7898,1.7898,1.7793,1.7694,1.7694,1.7687,1.7582,1.7582,1.7582,1.7582,1.7582,1.7582,1.7582,1.7582,1.7582,1.7582,1.7582,1.7582,1.7582,1.7582,1.7388,1.71,1.6707,1.6477,1.6109,1.5832,1.5832,1.5832,1.5832,1.5927,1.5927,1.5832,1.5255,1.4682,1.4298,1.3613,1.3022,1.2732,1.2727,1.2339,1.1658,1.1365,1.0788,1.0109,0.9723,0.9225,1.8027,1.8971,1.9441,2.0263,2.0946,2.1533,2.2059,2.2841,2.3782,2.483,2.6576,2.7795,2.7591,2.8435,2.8975,2.8389,2.796,2.7745,2.8291,2.7511,2.6509,2.5305,2.3536,2.2312,2.2184,2.141,2.0967,2.0859,2.0859,2.0737,2.0608,2.0493,2.0615,2.0852,2.0859,2.0737,2.0493,2.0493,2.0437,2.0095,1.9793,1.948,1.9069,1.8557,1.809,1.7799,1.7687,1.7582,0.0,1.7582,1.7582,1.7582,1.7582,1.7582,1.7582,1.7582,1.7582,1.7582,1.7582,1.7582,1.7582,1.7582,1.7582,1.7582,1.7582,1.7582,1.7582,1.7582,1.7582,1.7582,1.7582,1.7582,1.7582,1.7582,1.7582,1.7582,1.7582,1.7582,1.7582,1.7582,1.7582,1.7582,1.7582,1.7582,1.7582,1.7582,1.7174,1.6834,1.672,1.6293,1.5952,1.5838,1.5832,1.5832,1.5832,1.5832,1.5635,1.5255,1.4682,1.3908,1.3125,1.2533,1.195,1.157,1.157,1.1179,1.0596,1.0596,1.0207,0.9628,0.9225,0.8623,0.0,1.8033,1.9087,1.921,2.0494,2.1664,2.2111,2.241,0.0,2.4755,2.6139,2.7106,2.7522,2.8625,2.9258,2.8428,2.7295,2.6961,2.8174,2.6173,2.4283,2.3303,2.1979,2.1081,2.0831,2.0716,2.0608,2.027,2.027,2.027,2.027,2.027,2.027,2.0277,2.0277,2.027,2.027,2.0249,2.0095,1.9696,1.9436,1.9015,1.8475,1.8131,1.7856,1.7582,1.7582,1.7582,1.7582,1.7582,1.7582,1.7582,1.7582,1.7582,1.7582,1.7582,1.7582,1.7582,1.7582,1.7582,1.7582,1.7582,1.7582,1.7582,1.7582,1.7582,1.7582,1.7582,1.7582,1.7582,1.7582,1.7582,1.7582,1.7582,1.7582,1.7582,1.7582,1.7582,1.7582,1.7582,1.7582,1.7582,1.7582,1.7582,1.7582,1.7582,1.7335,1.7041,1.674,1.6453,1.6159,1.5865,1.5832,1.5737,1.573,1.5737,1.5255,1.4394,1.4202,1.3221,1.1268,1.117,1.0592,0.9628,0.9628,0.9628,0.9628,0.9628,0.9525,0.9426,0.8425,0.7922,1.4033,0.0,1.6979,1.8855,1.9787,2.0572,0.0,2.241,2.3078,2.4755,2.5811,2.6776,2.7468,2.8378,2.8906,2.8379,2.7295,2.6961,2.8174,2.6173,2.4837,2.5278,2.2733,2.106,2.1737,2.0945,2.0385,2.027,2.027,2.0155,1.9931,1.9931,1.9815,1.9591,1.9597,1.9707,1.9931,1.9704,1.9439,1.9138,1.8574,1.8285,1.8144,1.7802,1.7649,1.7582,1.7582,1.7582,1.7582,1.7582,1.7582,1.7582,1.7582,1.7582,1.7582,1.7582,1.7582,1.7582,1.7582,1.7582,1.7582,1.7582,1.7582,1.7582,1.7582,1.7582,1.7582,1.7582,1.7582,1.7582,1.7582,1.7582,1.7582,1.7582,1.7582,1.7582,1.7582,1.7582,1.7582,1.7582,1.7582,1.7582,1.7582,1.7582,1.7582,1.7582,1.7335,1.7041,1.674,1.6453,1.6159,1.5865,1.5832,1.5445,1.4682,1.4682,1.4586,1.4298,1.2834,1.1755,1.1268,1.04,0.9821,0.9628,0.9628,0.9628,0.9628,0.9628,0.9225,0.8322,0.8124,0.7126,1.2719,1.4147,1.58,1.756,1.8931,2.0127,2.1399,2.2277,2.3017,2.3559,2.4534,2.5365,2.5469,2.6232,2.6967,2.7027,2.5626,2.4514,2.4616,2.395,2.3503,2.3383,2.1722,2.0608,2.106,2.0493,2.0046,1.9938,1.9931,1.9822,1.9591,1.9591,1.9597,1.9366,1.9366,1.9482,1.9591,1.9293,1.8964,1.8718,1.8263,1.7969,1.7829,1.7662,1.7582,1.7582,1.7582,1.7582,1.7582,1.7582,1.7582,1.7582,1.7582,1.7582,1.7582,1.7582,1.7582,1.7582,1.7582,1.7582,1.7582,1.7582,1.7582,1.7582,1.7582,1.7582,1.7582,1.7582,1.7582,1.7582,1.7582,1.7582,1.7582,1.7582,1.7582,1.7582,1.7582,1.7582,1.7582,1.7582,1.7582,1.7582,1.7582,1.7582,1.7582,1.7582,1.7448,1.7241,1.6947,1.6653,1.6157,1.5377,1.5236,1.4675,1.3613,1.3125,1.2834,1.2834,1.1853,1.0979,1.0498,0.9916,0.9628,0.9628,0.9628,0.9628,0.9628,0.9126,0.8524,0.8021,0.7027,0.5932,1.2234,1.3784,1.5203,1.6273,1.7961,1.9702,2.0939,2.2155,2.2716,2.2173,2.3007,2.3758,2.3055,2.3741,2.4637,2.545,2.3838,2.2063,2.0723,2.1517,2.1737,2.0608,2.0385,2.004,1.9815,1.97,1.9591,1.9366,1.9366,1.9366,1.9366,1.9366,1.9366,1.9366,1.9325,1.9299,1.9299,1.9005,1.8711,1.8424,1.8116,1.7836,1.7582,1.7582,1.7582,1.7582,1.7582,1.7582,1.7582,1.7582,1.7582,1.7582,1.7582,1.7582,1.7582,1.7582,1.7582,1.7582,1.7582,1.7582,1.7582,1.7582,1.7582,1.7582,1.7582,1.7582,1.7582,1.7582,1.7582,1.7582,1.7582,1.7582,1.7582,1.7582,1.7582,1.7582,1.7582,1.7582,1.7582,1.7582,1.7582,1.7582,1.7364,1.7364,1.7259,1.7041,1.7041,1.7042,1.6975,1.6475,1.5782,1.4813,1.4352,1.3613,1.2533,1.1658,1.117,1.0979,1.0979,1.0592,0.9628,0.9628,0.9628,0.9628,0.9426,0.9327,0.9327,0.8322,0.7624,0.7425,0.5632,0.4734,1.1868,1.3186,1.4619,1.6155,1.7126,1.8362,2.0698,2.1786,2.2159,2.1782,2.2554,2.3039,2.2681,2.3366,2.4231,2.5415,2.5287,2.4292,2.2078,2.1964,2.1957,2.1479,2.0479,1.9815,1.9482,1.9482,1.9482,1.9366,1.9366,1.9366,1.9366,1.9366,1.9366,1.9366,1.9125,1.8991,1.8991,1.8704,1.841,1.811,1.7802,1.7629,1.7582,1.7582,1.7582,1.7582,1.7582,1.7582,1.7582,1.7582,1.7582,1.7582,1.7582,1.7582,1.7582,1.7582,1.7582,1.7582,1.7582,1.7582,1.7582,1.7582,1.7582,1.7582,1.7582,1.7582,1.7582,1.7582,1.7582,1.7582,1.7582,1.7582,1.7582,1.7582,1.7582,1.7582,1.7582,1.7582,1.7582,1.7582,1.7582,1.7259,1.6287,1.618,1.5855,1.4776,1.4674,1.4904,1.5597,1.4619,1.4066,1.4616,1.3659,1.2538,1.156,1.1268,1.0788,0.992,0.9821,0.9723,0.9628,0.9628,0.9628,0.9628,0.8722,0.8223,0.8223,0.712,0.6226,0.5334,0.4935,0.4334,1.0532,1.1868,1.332,1.5451,1.7022,1.8391,2.0107,2.105,2.1449,2.0944,2.1272,2.1478,2.1085,2.1256,2.1601,2.2168,2.2838,2.262,2.0831,2.0608,2.0608,2.0479,1.9924,1.9591,1.9366,1.9366,1.9366,1.9366,1.9366,1.9366,1.9366,1.9366,1.9366,1.9366,1.9078,1.8844,1.8691,1.8397,1.8183,1.8043,1.7736,1.7582,1.7582,1.7582,1.7582,1.7582,1.7582,1.7582,1.7582,1.7582,1.7582,1.7582,1.7582,1.7582,1.7582,1.7582,1.7582,1.7582,1.7582,1.7582,1.7582,1.7582,1.7582,1.7582,1.7582,1.7582,1.7582,1.7582,1.7582,1.7582,1.7582,1.7582,1.7582,1.7582,1.7582,1.7582,1.7582,1.7147,1.6717,1.6717,1.618,1.5535,1.4995,1.4888,1.4781,1.4137,1.4132,1.4201,1.4624,1.398,1.3437,1.3201,1.2468,1.1594,1.0408,1.0306,1.0113,0.9628,0.9628,0.9628,0.9628,0.9628,0.9327,0.8726,0.8223,0.7723,0.7123,0.6027,0.5331,0.4834,0.4234,0.3632,0.9438,1.1023,1.2724,1.4624,1.6453,1.82,1.9549,2.038,2.0812,2.0268,2.0192,2.0135,1.9831,1.9746,1.9707,1.9482,2.0385,2.0723,1.9591,1.9366,1.9366,1.9366,1.9366,1.9366,1.9366,1.9366,1.9366,1.9366,1.9366,1.9366,1.9366,1.9366,1.9332,1.9265,1.8978,1.8677,1.8273,1.7981,1.7835,1.7936,1.7589,1.7483,1.7483,1.7483,1.7477,1.7371,1.7477,1.7477,1.7371,1.7371,1.7371,1.7371,1.7371,1.7371,1.7371,1.7371,1.7371,1.7371,1.7371,1.7371,1.7371,1.7477,1.7483,1.7483,1.7582,1.7582,1.7582,1.7582,1.7582,1.7582,1.7582,1.7582,1.7582,1.7582,1.7582,1.7582,1.7259,1.6505,1.5861,1.5535,1.4781,1.4024,1.3701,1.3706,1.3593,1.3383,1.3275,1.3383,1.3706,1.3295,1.2675,1.1997,1.1439,1.061,0.964,0.9628,0.9628,0.9628,0.9628,0.9628,0.9628,0.9327,0.8825,0.8021,0.7524,0.6825,0.6027,0.4933,0.4435,0.4435,0.3632,0.323,0.9438,1.1615,1.3665,1.3784,1.5022,1.6765,1.9192,2.0027,2.0154,1.9887,1.9813,1.972,1.9446,2.0284,2.0723,1.9597,2.0385,2.0723,1.9591,1.9366,1.9366,1.9366,1.9366,1.9366,1.9366,1.9366,1.9366,1.9366,1.9366,1.9366,1.9366,1.9366,1.9239,1.8965,1.8677,1.8267,1.7636,1.7349,1.7417,1.7615,1.7397,1.7179,1.7179,1.7179,1.706,1.673,1.706,1.706,1.673,1.673,1.673,1.673,1.673,1.673,1.673,1.673,1.673,1.673,1.673,1.673,1.6842,1.7173,1.7179,1.7279,1.7483,1.7582,1.7582,1.7582,1.7582,1.7582,1.7582,1.7582,1.7582,1.7582,1.7582,1.7259,1.6293,1.5968,1.5535,1.4454,1.4132,1.3814,1.2738,1.2521,1.22,1.1122,1.0907,1.1341,1.2413,1.1388,1.1061,1.2101,1.0918,0.9916,0.9644,0.9628,0.9628,0.9628,0.9628,0.9628,0.9628,0.8623,0.8124,0.8021,0.6032,0.5035,0.4935,0.3833,0.3331,0.3331,0.323,0.323,0.7975,1.0041,1.235,1.3181,1.4436,1.5937,1.796,1.9011,1.9659,1.9553,1.9533,1.9499,1.9392,1.9822,1.9931,1.9482,1.9822,1.9931,1.9482,1.9366,1.9366,1.9366,1.9366,1.9366,1.9366,1.9366,1.9366,1.9366,1.9366,1.9366,1.9366,1.9192,1.8924,1.8691,1.8236,1.7714,1.7373,1.709,1.6948,1.7054,1.6948,1.6842,1.6842,1.6842,1.6842,1.673,1.6842,1.6842,1.673,1.673,1.673,1.673,1.673,1.673,1.673,1.673,1.673,1.673,1.673,1.673,1.673,1.6842,1.6842,1.6842,1.6411,1.6193,1.608,1.5535,1.5423,1.5642,1.6399,1.6505,1.6393,1.5642,1.5423,1.5316,1.4888,1.4245,1.3599,1.3166,1.2521,1.1878,1.1446,1.1341,1.1232,1.0802,1.0692,1.0907,1.1341,1.0849,1.0662,1.1082,1.041,0.986,0.9791,0.908,0.8623,0.8623,0.8623,0.8623,0.8623,0.7621,0.6725,0.6032,0.5233,0.4433,0.3831,0.3432,0.323,0.323,0.323,0.2927,0.7606,0.9438,1.1631,1.3066,1.4257,1.5564,1.7097,1.8525,1.9366,1.9366,1.9366,1.9366,1.9366,1.9366,1.9366,1.9366,1.9366,1.9366,1.9366,1.9366,1.9366,1.9366,1.9366,1.9366,1.9366,1.9366,1.9366,1.9366,1.9366,1.9366,1.9243,1.8964,1.8651,1.8214,1.7741,1.7334,1.6921,1.6725,1.6524,1.6411,1.6411,1.6524,1.6524,1.6524,1.6524,1.6411,1.6524,1.6524,1.6411,1.6411,1.6199,1.5873,1.5873,1.5654,1.5328,1.5328,1.5328,1.5328,1.5328,1.5328,1.5328,1.5429,1.5429,1.5429,1.4894,1.4793,1.4787,1.4132,1.4024,1.4239,1.4674,1.5108,1.5108,1.4352,1.4132,1.4024,1.3599,1.2955,1.2309,1.1878,1.1232,1.0692,1.0692,1.0692,1.0692,1.0692,1.0692,1.0692,1.0692,1.0692,1.0627,1.0452,0.9839,0.9434,0.938,0.851,0.7822,0.7521,0.7223,0.7126,0.7521,0.6426,0.5529,0.4834,0.4433,0.3932,0.323,0.323,0.3029,0.2826,0.2826,0.2422,0.8952,1.0293,1.1631,1.3306,1.4376,1.5558,1.7097,1.8525,1.9366,1.9366,1.9366,1.9366,1.9366,1.9366,1.9366,1.9366,1.9366,1.9366,1.9366,1.9366,1.9366,1.9366,1.9366,1.9366,1.9366,1.9366,1.9366,1.9366,1.9366,1.9243,1.8874,1.8607,1.8207,1.7601,1.7302,1.6914,1.633,1.6324,1.6105,1.5891,1.5891,1.5998,1.6324,1.6324,1.6111,1.5891,1.6217,1.6111,1.5891,1.5891,1.5244,1.4169,1.4169,1.3511,1.2413,1.2417,1.2417,1.2417,1.2417,1.2417,1.2413,1.2724,1.2827,1.2827,1.3156,1.348,1.3701,1.3701,1.3809,1.3814,1.263,1.3166,1.4024,1.4024,1.4024,1.3814,1.263,1.2413,1.2091,1.0907,1.0692,1.0692,1.0692,1.0692,1.0692,1.0692,1.0692,1.0692,1.0692,1.0692,1.0627,1.0349,0.921,0.8421,0.8269,0.8113,0.7524,0.6423,0.5331,0.5231,0.6323,0.5331,0.4834,0.4834,0.3732,0.323,0.323,0.323,0.2725,0.2017,0.2017,0.1513,0.7975,1.0048,1.2113,1.2822,1.4609,1.6273,1.6991,1.8169,1.9004,1.9004,1.9243,1.9366,1.9366,1.9366,1.9366,1.9366,1.9366,1.9366,1.9366,1.9366,1.9366,1.9366,1.9243,1.9004,1.9004,1.8887,1.8655,1.8655,1.8655,1.8571,1.8256,1.7975,1.7588,1.7089,1.6698,1.6398,1.5998,1.5998,1.5998,1.5891,1.5891,1.5891,1.5998,1.5998,1.5998,1.5891,1.5998,1.5998,1.5891,1.5891,1.5672,1.5351,1.4493,1.4487,1.4691,1.2955,1.296,1.3511,1.2743,1.2417,1.2413,1.2516,1.2516,1.2408,1.1864,1.1864,1.1755,1.1114,1.1004,1.1008,1.0903,1.1122,1.1442,1.166,1.166,1.1664,1.1232,1.1232,1.1122,1.0802,1.0692,1.0692,1.0692,1.0692,1.0692,1.0692,1.0692,1.0359,0.9244,0.9133,0.8786,0.7856,0.8281,0.8249,0.7374,0.6413,0.5705,0.5336,0.4232,0.4131,0.5231,0.4232,0.3632,0.3632,0.3331,0.2927,0.2321,0.2321,0.1917,0.1109,0.1109,0.0706,0.931,1.102,1.259,1.4013,1.5316,1.6509,1.7238,1.8175,1.8997,1.912,1.912,1.9243,1.9243,1.9127,1.901,1.9127,1.9243,1.9243,1.9366,1.9366,1.9366,1.9366,1.912,1.8874,1.8874,1.8648,1.8421,1.8421,1.8421,1.83,1.79,1.7628,1.7129,1.663,1.6251,1.6105,1.5891,1.5891,1.5891,1.5891,1.5891,1.5891,1.5891,1.5891,1.5891,1.5891,1.5891,1.5891,1.5891,1.5891,1.5672,1.5137,1.4493,1.4379,1.4256,1.2413,1.22,1.2639,1.1442,1.1004,1.1004,1.1004,1.1004,1.0895,1.0351,1.0351,1.0355,0.9812,0.9706,0.9816,1.0036,1.0147,1.0147,1.0582,1.0692,1.0692,1.0692,1.0692,1.0692,1.0692,1.0692,1.0692,1.0692,1.0692,1.0692,1.0692,1.0245,0.9354,0.7913,0.7246,0.6803,0.6689,0.6918,0.6805,0.6162,0.5428,0.472,0.4239,0.3531,0.3531,0.4133,0.3531,0.323,0.323,0.2927,0.2522,0.2017,0.1714,0.1109,0.0303,0.0303,-0.0101,1.1868,1.2595,1.3186,1.6161,1.6509,1.6509,1.7726,1.8421,1.8881,1.9249,1.9004,1.8881,1.8881,1.8648,1.8532,1.8765,1.8881,1.8997,1.9249,1.9366,1.9366,1.9366,1.9004,1.8765,1.8765,1.8532,1.8305,1.8305,1.8279,1.8024,1.752,1.7247,1.6864,1.6254,1.6012,1.5891,1.5891,1.5891,1.5891,1.5891,1.5891,1.5891,1.5891,1.5891,1.5891,1.5891,1.5891,1.5891,1.5891,1.5891,1.5244,1.4169,1.4056,1.3403,1.22,1.1,1.0566,1.0566,0.9372,0.894,0.894,0.894,0.894,0.894,0.894,0.9158,0.9379,0.9379,0.9489,0.9706,0.9706,0.9816,0.9926,1.0472,1.0692,1.0692,1.0692,1.0692,1.0692,1.0692,1.0692,1.0582,1.0472,1.0468,1.0468,1.0355,0.9023,0.7689,0.6576,0.5248,0.4914,0.6135,0.5286,0.4774,0.5012,0.482,0.4323,0.3243,0.3233,0.313,0.313,0.313,0.313,0.313,0.232,0.1815,0.1816,0.1009,0.0303,-0.0505,-0.0505,-0.0909,1.1503,1.3306,1.509,1.6031,1.6873,1.7719,1.8188,1.8194,1.82,1.8323,1.8428,1.8538,1.8538,1.8421,1.8421,1.8532,1.8538,1.8532,1.8655,1.8655,1.8655,1.8655,1.8311,1.82,1.82,1.7843,1.7719,1.7719,1.7524,1.7291,1.6909,1.663,1.6357,1.5982,1.5922,1.5891,1.5891,1.5891,1.5891,1.5891,1.5891,1.5891,1.5891,1.5891,1.5891,1.5891,1.5891,1.5891,1.5891,1.5891,1.5244,1.4056,1.3181,1.2635,1.22,1.0025,0.9915,1.0566,0.9372,0.894,0.894,0.894,0.894,0.894,0.894,0.8937,0.9047,0.9047,0.9047,0.9158,0.9379,0.9489,0.9596,1.0257,1.0366,1.0472,1.0692,1.0692,1.0692,1.0692,1.0582,1.0139,0.9137,0.8803,0.8251,0.736,0.5913,0.491,0.4576,0.4355,0.3913,0.3248,0.4126,0.4531,0.3594,0.3639,0.3575,0.3305,0.3258,0.2927,0.232,0.2219,0.2219,0.2219,0.1513,0.0706,0.0101,-0.0101,-0.0505,-0.1314,-0.1314,-0.1415,1.2341,1.3784,1.4976,1.6397,1.7361,1.7966,1.7954,1.7843,1.7726,1.7726,1.796,1.8194,1.8194,1.8071,1.8071,1.8194,1.8194,1.8311,1.8421,1.8421,1.8421,1.8421,1.82,1.7972,1.7972,1.7726,1.743,1.7304,1.7171,1.6917,1.6519,1.6362,1.6163,1.5897,1.5891,1.5891,1.5891,1.5891,1.5891,1.5891,1.5891,1.5891,1.5891,1.5891,1.5565,1.5137,1.5672,1.5238,1.4261,1.4809,1.4379,1.329,1.2635,1.2417,1.22,1.046,1.0131,1.0566,0.9372,0.894,0.894,0.894,0.894,0.894,0.894,0.894,0.894,0.894,0.894,0.8937,0.9158,0.9158,0.9268,0.9706,1.0036,1.0366,1.0692,1.0249,0.9805,0.9805,0.9137,0.8355,0.7799,0.736,0.6805,0.5697,0.4691,0.3799,0.3245,0.3022,0.2799,0.2244,0.3138,0.3672,0.3179,0.3123,0.2961,0.2386,0.214,0.1613,0.0705,0.0302,0.0504,0.1412,0.0605,0.0,-0.0404,-0.0808,-0.1212,-0.1617,-0.1617,-0.1617,1.3426,1.4143,1.4857,1.7003,1.7726,1.7849,1.7602,1.7485,1.7485,1.7485,1.7726,1.7966,1.7966,1.7843,1.7837,1.7849,1.8083,1.8194,1.8188,1.8181,1.8181,1.8181,1.8077,1.7966,1.7966,1.7566,1.7328,1.7111,1.7002,1.6754,1.6302,1.6241,1.6115,1.5897,1.5891,1.5891,1.5891,1.5891,1.5891,1.5891,1.5891,1.5785,1.5571,1.5571,1.5137,1.4277,1.5024,1.4153,1.2526,1.3511,1.3181,1.2091,1.2091,1.1978,1.1655,1.0781,1.0347,1.0241,0.9265,0.894,0.894,0.894,0.894,0.894,0.894,0.894,0.894,0.894,0.894,0.894,0.894,0.8716,0.8716,0.9044,0.9261,0.9695,1.0139,0.9471,0.8699,0.8475,0.7246,0.6243,0.6135,0.5802,0.525,0.4474,0.3914,0.3244,0.2243,0.1908,0.1907,0.2132,0.2469,0.2678,0.2971,0.2703,0.2228,0.1249,0.0818,0.0101,-0.1006,-0.161,-0.1309,0.0101,-0.0404,-0.0707,-0.0707,-0.1313,-0.1617,-0.1617,-0.1617,-0.1617,1.3665,1.5332,1.712,1.7361,1.7485,1.7602,1.7485,1.7485,1.7485,1.7485,1.7485,1.7602,1.7602,1.8181,1.8415,1.7719,1.8298,1.8532,1.7713,1.7602,1.7602,1.7602,1.7602,1.7602,1.7602,1.728,1.7129,1.7092,1.6652,1.6356,1.6284,1.6066,1.5928,1.5891,1.5891,1.5891,1.5891,1.5891,1.5891,1.5891,1.5891,1.5351,1.4385,1.4385,1.4385,1.4164,1.329,1.2743,1.2417,1.2526,1.1978,1.0891,1.0891,1.0241,0.9375,0.9154,0.9154,0.9154,0.8937,0.894,0.894,0.894,0.894,0.894,0.894,0.894,0.894,0.894,0.894,0.894,0.894,0.8159,0.7376,0.7817,0.7146,0.6808,0.8029,0.8251,0.7805,0.6805,0.5357,0.4244,0.4026,0.3135,0.2353,0.2242,0.213,0.2018,0.1907,0.1795,0.1795,0.1795,0.2132,0.2242,0.2349,0.1539,0.1079,0.0954,-0.0104,-0.1023,-0.1813,-0.1912,-0.2216,-0.2623,-0.2321,-0.2118,-0.2118,-0.1818,-0.1617,-0.1617,-0.1617,-0.1617,1.4381,1.6048,1.7485,1.7485,1.7485,1.7485,1.7485,1.7948,1.8298,1.8298,1.8298,1.8298,1.8298,1.8648,1.8997,1.8997,1.8991,1.8758,1.8298,1.783,1.7485,1.7485,1.7485,1.7424,1.728,1.7159,1.6966,1.6658,1.6416,1.6217,1.6066,1.5952,1.5891,1.5891,1.5891,1.5891,1.5891,1.5891,1.5891,1.5891,1.5244,1.4708,1.4169,1.2856,1.22,1.22,1.2304,1.1655,1.046,1.1219,1.0785,0.9699,0.9699,0.9372,0.894,0.894,0.894,0.894,0.894,0.894,0.894,0.894,0.894,0.894,0.894,0.838,0.7934,0.7934,0.7485,0.6924,0.6924,0.6589,0.6144,0.6364,0.5919,0.5586,0.5584,0.5804,0.5584,0.425,0.347,0.2912,0.2801,0.2242,0.1795,0.202,0.1907,0.1795,0.1795,0.1795,0.1795,0.1795,0.202,0.2244,0.2244,0.1213,0.0326,-0.0216,-0.1577,-0.2681,-0.3682,-0.3644,-0.3626,-0.3632,-0.2825,-0.2422,-0.2422,-0.1818,-0.1617,-0.1617,-0.1617,-0.1617,1.4976,1.6526,1.7485,1.7485,1.7719,1.783,1.783,1.8525,1.9223,1.9223,1.9223,1.9339,1.9564,1.9455,1.9461,1.9924,1.9686,1.9455,1.8991,1.8298,1.7689,1.7388,1.7382,1.728,1.7014,1.6923,1.6718,1.6308,1.6217,1.6097,1.5897,1.5891,1.5891,1.5891,1.5891,1.5891,1.5891,1.5891,1.5779,1.5458,1.46,1.384,1.3295,1.1546,1.0566,1.0241,1.1114,1.057,0.8937,0.9915,0.9695,0.894,0.894,0.894,0.894,0.894,0.894,0.894,0.894,0.894,0.894,0.894,0.8716,0.8491,0.8491,0.7598,0.6705,0.6705,0.6033,0.5361,0.5361,0.5139,0.4916,0.4916,0.4693,0.436,0.3692,0.3692,0.3469,0.2355,0.2132,0.2132,0.2132,0.1908,0.1907,0.202,0.1908,0.1795,0.1795,0.1795,0.1795,0.1795,0.202,0.2132,0.2132,0.0664,-0.0548,-0.1309,-0.2864,-0.4162,-0.4973,-0.4883,-0.4634,-0.4234,-0.3327,-0.2622,-0.2422,-0.2019,-0.1717,-0.1617,-0.1617,-0.1617,1.5219,1.6526,1.7485,1.7485,1.8181,1.8881,1.8881,1.9577,2.027,2.027,2.027,2.0493,2.1281,2.0831,1.9924,1.9113,2.0364,2.0816,1.9107,1.8881,1.8429,1.7256,1.7111,1.7008,1.6748,1.6483,1.6308,1.6284,1.6048,1.5903,1.5891,1.5891,1.5891,1.5891,1.5891,1.5891,1.5891,1.5891,1.5351,1.4277,1.4277,1.3073,1.0891,1.0781,1.0131,0.9047,0.9047,0.9047,0.894,0.8937,0.8937,0.894,0.894,0.894,0.894,0.894,0.894,0.894,0.894,0.894,0.894,0.894,0.8159,0.7152,0.7152,0.6369,0.5472,0.5472,0.5472,0.5361,0.5361,0.4582,0.3692,0.3692,0.28,0.2242,0.3358,0.2688,0.1907,0.1795,0.1795,0.1795,0.1795,0.1795,0.1795,0.1795,0.1795,0.1795,0.1795,0.1795,0.1795,0.1795,0.1795,0.1795,0.1795,-0.0336,-0.1665,-0.1639,-0.3755,-0.4958,-0.4975,-0.4883,-0.4834,-0.4734,-0.4234,-0.3429,-0.2422,-0.2422,-0.212,-0.1617,-0.1617,-0.1617,1.5213,1.6526,1.7596,1.8298,1.8648,1.9107,1.9693,2.0493,2.1167,2.1167,2.1167,2.1108,2.1249,2.1149,2.1174,2.1524,2.1623,2.1321,2.0451,1.9401,1.8389,1.7647,1.7172,1.6736,1.6459,1.6338,1.6211,1.6042,1.594,1.5891,1.5891,1.5891,1.5891,1.5891,1.5137,1.4482,1.3609,1.3609,1.3501,1.3073,1.2309,1.1542,1.0672,0.9915,0.9265,0.894,0.894,0.894,0.894,0.894,0.894,0.894,0.894,0.894,0.894,0.894,0.894,0.894,0.894,0.838,0.7712,0.7712,0.6927,0.6031,0.6031,0.514,0.4249,0.4249,0.3692,0.3135,0.3135,0.28,0.2465,0.2465,0.213,0.1907,0.2353,0.213,0.1795,0.1795,0.1795,0.1795,0.1795,0.1795,0.1795,0.1795,0.1795,0.1795,0.1795,0.1795,0.1795,0.1795,0.1121,0.0673,0.0673,-0.1567,-0.2902,-0.2884,-0.4368,-0.5155,-0.5063,-0.4971,-0.4692,-0.4334,-0.4435,-0.4131,-0.3429,-0.3128,-0.2826,-0.2625,-0.2322,-0.212,1.4619,1.5875,1.699,1.8043,1.8659,1.9159,1.9501,2.0732,2.163,2.1399,2.1518,2.1681,2.1467,2.1605,2.1861,2.21,2.1981,2.1554,2.1018,1.9647,1.8532,1.7909,1.7104,1.6453,1.6175,1.6151,1.6079,1.5903,1.5891,1.5891,1.5891,1.5891,1.5672,1.5351,1.4159,1.3181,1.2417,1.2417,1.22,1.1873,1.1105,1.0457,1.0021,0.9265,0.894,0.894,0.894,0.894,0.894,0.894,0.894,0.894,0.894,0.894,0.894,0.894,0.894,0.894,0.894,0.8156,0.7152,0.7152,0.6035,0.4804,0.4804,0.3914,0.3024,0.3024,0.2465,0.1795,0.1795,0.1795,0.1795,0.1795,0.1795,0.1795,0.1795,0.1795,0.1795,0.1795,0.1795,0.1795,0.1795,0.1795,0.1795,0.1795,0.1795,0.1795,0.1795,0.1458,0.1234,0.1234,0.0112,-0.056,-0.056,-0.2462,-0.358,-0.358,-0.4629,-0.5216,-0.5157,-0.5065,-0.4769,-0.4376,-0.4679,-0.4663,-0.4234,-0.3732,-0.3331,-0.323,-0.2826,-0.2825,0.0,0.0,0.0,1.673,1.8222,1.9119,1.8333,2.0085,2.1734,2.0861,2.141,2.1957,2.1941,2.1941,2.1726,2.0738,2.1403,2.1626,2.0753,1.9873,1.8885,1.7731,1.6817,1.6169,1.5916,1.5891,1.5891,1.5891,1.5891,1.5891,1.5891,1.5891,1.5351,1.4164,1.2965,1.2309,1.2309,1.2309,1.1764,1.0672,1.0672,1.0025,0.894,0.894,0.894,0.894,0.894,0.8937,0.8937,0.894,0.894,0.894,0.894,0.894,0.894,0.894,0.8826,0.883,0.883,0.8045,0.7041,0.7041,0.5477,0.358,0.358,0.2688,0.1795,0.1795,0.1795,0.1795,0.1795,0.1795,0.1795,0.1795,0.1795,0.1795,0.1795,0.1795,0.1795,0.1795,0.1795,0.1795,0.1795,0.1795,0.1795,0.1795,0.1795,0.1795,0.1795,0.0673,0.0,0.0,-0.112,-0.1903,-0.1903,-0.291,-0.3692,-0.3692,-0.4632,-0.5247,-0.5245,-0.5159,-0.5069,-0.4977,-0.4975,-0.493,-0.4839,-0.4334,-0.3833,-0.3331,-0.3331,-0.3731,1.1858,0.0,0.0,0.0,0.0,0.0,1.9002,2.0092,2.0861,1.9983,2.097,2.1771,2.0887,2.116,2.1399,2.0938,2.1518,2.1548,2.0452,1.9542,1.8555,1.741,1.653,1.597,1.5897,1.5891,1.5891,1.5891,1.5891,1.5891,1.5891,1.5137,1.3722,1.1764,1.1328,1.0785,0.9919,0.9919,0.9699,0.9372,0.9372,0.9265,0.894,0.894,0.894,0.894,0.894,0.8826,0.8598,0.8826,0.894,0.894,0.894,0.894,0.894,0.894,0.838,0.7598,0.7598,0.6258,0.4585,0.4585,0.3582,0.2353,0.2353,0.2018,0.1795,0.1795,0.1795,0.1795,0.1795,0.1795,0.1795,0.1795,0.1795,0.1795,0.1795,0.1795,0.1795,0.1795,0.1795,0.1795,0.1795,0.1795,0.1795,0.1795,0.1009,0.0449,0.0449,-0.056,-0.1344,-0.1344,-0.2351,-0.3134,-0.3134,-0.4255,-0.4929,-0.4929,-0.5133,-0.5314,-0.5247,-0.522,-0.5163,-0.5073,-0.5071,-0.5335,-0.5848,-0.5574,-0.5338,-0.5238,-0.5429,-0.5824,0.0,0.0,0.0,1.5261,0.0,0.0,1.7866,1.8947,1.9485,1.8732,1.9913,2.0832,2.0106,2.0601,2.1059,2.0537,2.0736,2.0817,2.0099,1.8992,1.7968,1.7272,1.6418,1.5891,1.5891,1.5891,1.5891,1.5891,1.5891,1.5672,1.5244,1.3614,1.2091,1.0781,1.0241,0.9588,0.894,0.894,0.894,0.894,0.8826,0.8826,0.8937,0.8826,0.8712,0.8712,0.8712,0.8602,0.8263,0.7928,0.8152,0.8712,0.8266,0.8156,0.8045,0.7595,0.7035,0.6369,0.6369,0.5142,0.358,0.358,0.28,0.1795,0.1795,0.1795,0.1795,0.1795,0.1795,0.1795,0.1795,0.1795,0.1795,0.1795,0.1795,0.1795,0.1795,0.1795,0.1795,0.1795,0.1795,0.1795,0.1795,0.1795,0.1683,0.1121,0.0449,-0.0224,-0.0672,-0.1791,-0.2574,-0.2574,-0.3582,-0.4367,-0.4367,-0.5043,-0.5382,-0.5382,-0.5382,-0.5357,-0.5304,-0.5302,-0.5259,-0.5167,-0.5485,-0.6283,-0.7413,-0.6468,-0.6186,-0.6539,-0.703,-0.7425,0.0,0.0,0.0,0.0,1.4847,0.0,1.5779,1.716,1.7996,1.7252,1.8415,1.9569,1.9465,2.0086,2.0403,1.968,1.9465,1.9465,1.9465,1.8094,1.7147,1.7041,1.6418,1.5891,1.5891,1.5891,1.5891,1.5891,1.5779,1.5137,1.384,1.1873,1.0672,1.0453,0.9482,0.894,0.894,0.8826,0.8826,0.8826,0.8598,0.8598,0.8826,0.8598,0.8374,0.826,0.826,0.8039,0.7485,0.6475,0.6919,0.8149,0.7149,0.6816,0.6705,0.5695,0.525,0.5137,0.5139,0.436,0.3357,0.3357,0.2688,0.1795,0.1795,0.1795,0.1795,0.1795,0.1795,0.1795,0.1795,0.1795,0.1795,0.1795,0.1795,0.1795,0.1795,0.1795,0.1795,0.1795,0.1795,0.1795,0.157,0.157,0.1234,0.0,-0.0336,-0.0784,-0.1903,-0.3022,-0.3805,-0.3805,-0.4706,-0.5382,-0.5382,-0.5382,-0.5382,-0.5382,-0.5382,-0.5382,-0.5382,-0.5382,-0.5343,-0.537,-0.6332,-0.7568,-0.9032,-0.7312,-0.6884,-0.7582,-0.8282,-0.8585,0.0,0.0,0.0,0.0,1.3645,0.0,1.5672,1.673,1.7147,1.6311,1.747,1.8422,1.7779,1.8311,1.884,1.8632,1.8101,1.7674,1.7674,1.7358,1.6935,1.6205,1.5992,1.5891,1.5891,1.5891,1.5891,1.5891,1.503,1.3614,1.1546,1.1,1.0237,0.9261,0.9047,0.894,0.894,0.8712,0.8598,0.8598,0.8266,0.8156,0.8156,0.8156,0.7593,0.6697,0.6697,0.6028,0.4803,0.4804,0.5584,0.6584,0.5475,0.5029,0.5029,0.5025,0.4355,0.3578,0.3914,0.3135,0.213,0.213,0.2019,0.1795,0.1795,0.1795,0.1795,0.1795,0.1795,0.1795,0.1795,0.1795,0.1795,0.1795,0.1795,0.1795,0.1795,0.1795,0.1795,0.1795,0.1795,0.1458,0.0561,0.0336,-0.0112,-0.1232,-0.2239,-0.3021,-0.3245,-0.4255,-0.5043,-0.5043,-0.5268,-0.5382,-0.5382,-0.5382,-0.5382,-0.5382,-0.5382,-0.5382,-0.5382,-0.5382,-0.5706,-0.6349,-0.7895,-0.8797,-0.909,-0.8611,-0.8834,-0.9641,-0.9745,-0.9848,0.0,0.0,0.0,1.1105,1.2417,0.0,0.0,1.5879,1.6418,1.5998,1.6942,1.7681,1.7252,1.7891,1.8318,1.7891,1.7463,1.7041,1.6624,1.6518,1.6411,1.5998,1.5891,1.5891,1.5891,1.5891,1.5672,1.5137,1.3398,1.1982,1.0781,1.0131,0.9482,0.8937,0.8823,0.8712,0.8712,0.8377,0.8266,0.8263,0.7937,0.7826,0.7934,0.7263,0.6591,0.6031,0.5359,0.4691,0.3801,0.3354,0.3466,0.4021,0.3688,0.3576,0.3576,0.3131,0.2573,0.2016,0.2352,0.2017,0.157,0.1795,0.1795,0.1795,0.1795,0.1795,0.1795,0.1795,0.1795,0.1795,0.1795,0.1795,0.1795,0.1795,0.1795,0.1795,0.1795,0.1346,0.0897,0.0897,0.0448,0.0,0.0,-0.0448,-0.1344,-0.2463,-0.3245,-0.3805,-0.4367,-0.5043,-0.5382,-0.5382,-0.5382,-0.5382,-0.5382,-0.5382,-0.5382,-0.5382,-0.5382,-0.5382,-0.5382,-0.5826,-0.6712,-0.8039,-0.8849,-0.9468,-0.9907,-0.9819,-1.0012,-1.016,-1.016,-1.016,0.0,0.0,0.0,0.0,0.0,1.2304,0.0,0.0,0.0,1.5565,1.6305,1.6935,1.6935,1.747,1.7681,1.7041,1.6723,1.6405,1.5672,1.5345,1.5345,1.5885,1.5891,1.5891,1.5891,1.5672,1.4911,1.3619,1.1764,1.0562,1.0347,0.9368,0.8826,0.8826,0.8598,0.8374,0.8374,0.8045,0.7934,0.7934,0.7382,0.7268,0.7487,0.6033,0.5254,0.5029,0.4023,0.3354,0.2797,0.1903,0.1456,0.1456,0.2014,0.2125,0.2014,0.1121,0.0785,0.0897,0.1121,0.1234,0.1234,0.157,0.1795,0.1795,0.1795,0.1795,0.1795,0.1795,0.1795,0.1795,0.1795,0.1795,0.1795,0.1795,0.157,0.1458,0.1458,0.0561,-0.0336,-0.0336,-0.1344,-0.1791,-0.0896,-0.1456,-0.2574,-0.3805,-0.3917,-0.4255,-0.5268,-0.5382,-0.5382,-0.5382,-0.5382,-0.5382,-0.5382,-0.5382,-0.5382,-0.5382,-0.5605,-0.5603,-0.5603,-0.6712,-0.7928,-0.9361,-0.9581,-1.0025,-1.0692,-1.0692,-1.0542,-1.0266,-1.0266,-1.0266,0.0,0.0,0.0,0.0,0.9552,1.0777,1.2309,0.0,1.4379,1.4379,0.0,1.6099,1.6099,0.0,0.0,1.6099,1.5238,1.4487,1.4385,1.3506,1.3609,1.5672,1.5891,1.5891,1.5891,1.4685,1.3161,1.1214,1.0562,0.9908,0.9154,0.8709,0.8595,0.8595,0.8266,0.8045,0.8045,0.7826,0.7607,0.7607,0.6265,0.5706,0.5706,0.4362,0.3244,0.2239,0.2126,0.1456,0.0448,0.0224,0.0224,0.0224,0.0224,0.0336,0.0336,0.0448,0.0449,0.0449,0.0785,0.0897,0.1009,0.1234,0.157,0.1795,0.1795,0.1795,0.1795,0.1795,0.1795,0.1795,0.1795,0.1795,0.1795,0.1795,0.1009,0.0224,0.0224,-0.0784,-0.1567,-0.1567,-0.2574,-0.3357,-0.3245,-0.3357,-0.3805,-0.5043,-0.5156,-0.5268,-0.5382,-0.5382,-0.5382,-0.5382,-0.5382,-0.5382,-0.5382,-0.5382,-0.5382,-0.5382,-0.6161,-0.6604,-0.6604,-0.8146,-0.914,-0.9361,-1.0135,-1.0582,-1.0692,-1.0692,-1.0672,-1.0631,-1.0631,-1.0631,0.0,0.0,0.0,0.0,0.0,0.0,1.0554,0.0,1.2852,1.2625,0.0,0.0,0.0,0.0,0.0,0.0,1.3398,1.3073,1.2965,1.2635,1.2743,1.3717,1.3825,1.3825,1.3825,1.2733,1.1647,1.0781,0.9915,0.9258,0.8709,0.8598,0.8374,0.8266,0.7934,0.7715,0.7715,0.6821,0.6376,0.6265,0.5033,0.4364,0.4364,0.3134,0.2239,0.1791,0.1008,0.0448,0.0,0.0,0.0,0.0,0.0,0.0,0.0,0.0112,0.0112,0.0224,0.0561,0.0561,0.0673,0.1009,0.1234,0.1458,0.1458,0.1683,0.1795,0.1795,0.1795,0.1795,0.1795,0.1795,0.157,0.0897,0.0336,-0.0224,-0.0896,-0.2015,-0.2798,-0.2798,-0.3807,-0.4592,-0.4592,-0.4592,-0.4817,-0.527,-0.5382,-0.5382,-0.5382,-0.5382,-0.5382,-0.5382,-0.5382,-0.5382,-0.5382,-0.5382,-0.5382,-0.5382,-0.627,-0.7154,-0.826,-0.9247,-1.0127,-1.0684,-1.1345,-1.1678,-1.1678,-1.135,-1.124,-1.124,-1.0911,-1.0692,0.0559,0.0,0.0,0.0,0.0,0.0,0.0,0.0,0.0,1.053,1.0975,0.0,0.0,0.0,0.0,0.0,0.0,1.1651,1.1433,1.0988,1.1093,1.2304,1.2309,1.1973,1.1306,1.066,1.0116,0.9677,0.8927,0.8491,0.8484,0.8374,0.8042,0.7374,0.7157,0.6824,0.6485,0.5481,0.4923,0.4923,0.3692,0.3134,0.3022,0.1903,0.1344,0.1232,0.0336,0.0,0.0,0.0,0.0,0.0,0.0,0.0,0.0,0.0,0.0,0.0,0.0224,0.0336,0.0449,0.0673,0.1009,0.1346,0.1346,0.157,0.1795,0.1795,0.1795,0.1683,0.1346,0.1346,0.1009,-0.0224,-0.0784,-0.1232,-0.2127,-0.3245,-0.4142,-0.4142,-0.4817,-0.5491,-0.5491,-0.5493,-0.5382,-0.5382,-0.5382,-0.5382,-0.5491,-0.5491,-0.5491,-0.5605,-0.5605,-0.5826,-0.6044,-0.6156,-0.6376,-0.693,-0.7593,-0.8585,-1.0131,-1.0566,-1.1118,-1.1787,-1.2223,-1.2441,-1.2441,-1.2005,-1.1787,-1.1787,-1.1021,-1.0692,0.0,0.0,0.0,0.2235,0.0,0.0,0.0,0.0,0.6767,0.0,0.0,0.0,0.0,0.0,0.0,0.0,0.0,0.0,0.0,0.791,0.8014,1.1973,1.22,1.0983,0.8439,0.8893,0.8682,0.6922,0.7376,0.7937,0.8484,0.7937,0.7043,0.5922,0.5592,0.4921,0.3692,0.3692,0.3692,0.3692,0.2462,0.1903,0.1791,0.056,0.0112,0.0,0.0,0.0,0.0,0.0,0.0,0.0,0.0,0.0,0.0,0.0,0.0,0.0,0.0,0.0224,0.0449,0.0449,0.0785,0.1346,0.1346,0.157,0.1795,0.1795,0.1795,0.157,0.0336,0.0112,-0.0224,-0.1456,-0.2685,-0.3469,-0.358,-0.448,-0.5382,-0.5382,-0.5601,-0.5822,-0.5822,-0.5603,-0.5382,-0.5382,-0.5382,-0.5491,-0.571,-0.5822,-0.5935,-0.6274,-0.6274,-0.6715,-0.7811,-0.7919,-0.8799,-1.0777,-1.0887,-1.1332,-1.2219,-1.2332,-1.2327,-1.2332,-1.2436,-1.2441,-1.2441,-1.2327,-1.2332,-1.2327,-1.124,-1.0692,0.0,0.0,0.0672,0.0671,0.0,0.0,0.0,0.0,0.0,0.0,0.0,0.0,0.0,0.0,0.0,0.0,0.0,0.0,0.0,0.3106,0.3438,0.5431,0.6443,0.6682,0.5797,0.68,0.7362,0.67,0.7041,0.7152,0.703,0.6144,0.5142,0.436,0.425,0.4027,0.358,0.2797,0.2463,0.2351,0.1232,0.056,0.056,0.0224,0.0,0.0,0.0,0.0,0.0,0.0,0.0,0.0,0.0,0.0,0.0,0.0,0.0,0.0,0.0,0.0112,0.0112,0.0112,0.0561,0.1009,0.1009,0.1346,0.1683,0.0785,0.0561,0.0336,-0.1119,-0.1343,-0.1568,-0.291,-0.3469,-0.3916,-0.4812,-0.5373,-0.5712,-0.594,-0.6051,-0.6161,-0.6161,-0.6051,-0.6051,-0.6051,-0.6051,-0.6051,-0.6161,-0.6161,-0.6161,-0.6274,-0.6274,-0.6715,-0.7919,-0.8686,-0.9783,-1.0996,-1.1105,-1.1442,-1.2332,-1.2767,-1.2989,-1.2989,-1.3423,-1.3537,-1.3537,-1.3207,-1.2989,-1.2989,-1.2743,-1.2417,-0.0896,-0.056,0.0,0.0,0.0,0.0,-0.0557,0.0,-0.0111,0.0,0.0,0.0,0.0,0.0,0.0,0.0,0.0,0.0,0.0,-0.0222,0.0,0.0111,0.223,0.3685,0.3689,0.4806,0.5586,0.5472,0.581,0.5924,0.5695,0.4806,0.3916,0.3021,0.291,0.2798,0.2351,0.1567,0.112,0.112,0.0336,0.0,0.0,0.0,0.0,0.0,0.0,0.0,0.0,0.0,0.0,0.0,0.0,0.0,0.0,0.0,0.0,0.0,0.0,0.0,0.0,0.0,0.0336,0.0673,0.0673,0.0785,0.0672,-0.0112,-0.0672,-0.1231,-0.2682,-0.2908,-0.3132,-0.4477,-0.47,-0.4812,-0.5822,-0.5935,-0.6049,-0.6274,-0.6386,-0.6495,-0.6495,-0.6495,-0.6495,-0.6386,-0.6274,-0.6386,-0.6383,-0.6495,-0.6495,-0.6606,-0.6937,-0.7814,-0.9457,-1.0664,-1.1651,-1.2205,-1.2209,-1.2432,-1.2985,-1.3423,-1.3645,-1.3645,-1.3975,-1.4196,-1.4196,-1.3759,-1.3748,-1.4067,-1.4261,-1.4148]},{"header":{"parameterUnit":"m.s-1","parameterCategory":1,"la1":30.6,"la2":29.2853,"lo1":-89.7004,"lo2":-87.6739,"dy":0.0162,"dx":0.0183,"nx":112,"ny":82,"refTime":"2024-04-17T06:00:00:Z","depth":0,"parameterNumber":3,"parameterNumberName":"V-component_of_WINDS"},"data":[0.0,0.0,0.0,0.0,0.0,0.0,0.0,0.0,0.0,0.0,0.0,0.0,0.0,0.0,0.0,0.0,0.0,0.0,0.0,0.0,0.0,0.0,0.0,0.0,0.0,0.0,0.0,0.0,0.0,0.0,0.0,0.0,0.0,0.0,0.0,0.0,0.0,0.0,0.0,0.0,0.0,0.0,0.0,0.0,0.0,0.0,0.0,0.0,0.0,0.0,0.0,0.0,0.0,0.0,0.0,0.0,0.0,0.0,0.0,0.0,0.0,0.0,0.0,0.0,0.0,0.0,0.0,0.0,0.0,0.0,0.0,0.0,0.0,0.0,0.0,0.0,0.0,0.0,0.0,0.0,0.0,0.0,0.0,0.0,0.0,0.0,0.0,0.0,0.0,0.0,2.3592,2.2793,2.1785,2.1489,2.219,2.1285,1.9945,1.8352,0.0,0.0,0.0,0.0,0.0,0.0,0.0,0.0,0.0,0.0,0.0,0.0,0.0,0.0,0.0,0.0,0.0,0.0,0.0,0.0,0.0,0.0,0.0,0.0,0.0,0.0,0.0,0.0,0.0,0.0,0.0,0.0,0.0,0.0,0.0,0.0,0.0,0.0,0.0,0.0,0.0,0.0,0.0,0.0,0.0,0.0,0.0,0.0,0.0,0.0,0.0,0.0,0.0,0.0,0.0,0.0,0.0,0.0,0.0,0.0,0.0,0.0,0.0,0.0,0.0,0.0,0.0,0.0,0.0,0.0,0.0,0.0,0.0,0.0,0.0,0.0,0.0,0.0,0.0,0.0,0.0,0.0,0.0,0.0,0.0,0.0,0.0,0.0,0.0,0.0,0.0,0.0,0.0,0.0,0.0,0.0,0.0,0.0,0.0,0.0,0.0,0.0,0.0,0.0,2.2994,2.3791,2.2885,2.1988,2.1183,2.0181,1.9146,1.808,0.0,0.0,0.0,0.0,0.0,0.0,0.0,0.0,0.0,0.0,0.0,0.0,0.0,0.0,0.0,0.0,0.0,0.0,0.0,0.0,0.0,0.0,0.0,0.0,0.0,0.0,0.0,0.0,0.0,0.0,0.0,0.0,0.0,0.0,0.0,0.0,0.0,0.0,0.0,0.0,0.0,0.0,0.0,0.0,0.0,0.0,0.0,0.0,0.0,0.0,0.0,0.0,0.0,0.0,0.0,0.0,0.0,0.0,0.0,0.0,0.0,0.0,0.0,0.0,0.0,0.0,0.0,0.0,0.0,0.0,0.0,0.0,0.0,0.0,0.0,0.0,0.0,0.0,0.0,0.0,0.0,0.0,0.0,0.0,0.0,0.0,0.0,0.0,0.0,0.0,0.0,0.0,0.0,0.0,0.0,0.0,0.0,0.0,0.0,0.0,0.0,0.0,0.0,2.3185,2.3791,2.4285,2.3592,2.2685,2.1684,2.038,1.9146,1.7765,1.7325,0.0,0.0,0.0,0.0,0.0,0.0,0.0,0.0,0.0,0.0,0.0,0.0,0.0,0.0,0.0,0.0,0.0,0.0,0.0,0.0,0.0,0.0,0.0,0.0,0.0,0.0,0.0,0.0,0.0,0.0,0.0,0.0,0.0,0.0,0.0,0.0,0.0,0.0,0.0,0.0,0.0,0.0,0.0,0.0,0.0,0.0,0.0,0.0,0.0,0.0,0.0,0.0,0.0,0.0,0.0,0.0,0.0,0.0,0.0,0.0,0.0,0.0,0.0,0.0,0.0,0.0,0.0,0.0,0.0,0.0,0.0,0.0,0.0,0.0,0.0,0.0,0.0,0.0,0.0,0.0,0.0,0.0,0.0,0.0,0.0,0.0,0.0,0.0,0.0,0.0,0.0,0.0,0.0,0.0,0.0,0.0,0.0,0.0,0.0,0.0,0.0,0.0,2.4492,2.4992,2.4992,2.4393,2.3583,2.2584,2.1285,1.9746,1.7962,1.7239,0.0,0.0,0.0,0.0,0.0,0.0,0.0,0.0,0.0,0.0,0.0,0.0,0.0,0.0,0.0,0.0,0.0,0.0,0.0,0.0,0.0,0.0,0.0,0.0,0.0,0.0,0.0,0.0,0.0,0.0,0.0,0.0,0.0,0.0,0.0,0.0,0.0,0.0,0.0,0.0,0.0,0.0,0.0,0.0,0.0,0.0,0.0,0.0,0.0,0.0,0.0,0.0,0.0,0.0,0.0,0.0,0.0,0.0,0.0,0.0,0.0,0.0,0.0,0.0,0.0,0.0,0.0,0.0,0.0,0.0,0.0,0.0,0.0,0.0,0.0,0.0,0.0,0.0,0.0,0.0,0.0,0.0,0.0,0.0,0.0,0.0,0.0,0.0,0.0,0.0,0.0,0.0,0.0,0.0,0.0,0.0,0.0,0.0,0.0,0.0,0.0,0.0,2.4992,2.64,2.64,2.5392,2.4492,2.3692,2.2593,2.1065,1.8819,1.7864,0.0,0.0,0.0,0.0,0.0,0.0,0.0,0.0,0.0,0.0,0.0,0.0,0.0,0.0,0.0,0.0,0.0,0.0,0.0,0.0,0.0,0.0,0.0,0.0,0.0,0.0,0.0,0.0,0.0,0.0,0.0,0.0,0.0,0.0,0.0,0.0,0.0,0.0,0.0,0.0,0.0,0.0,0.0,0.0,0.0,0.0,0.0,0.0,0.0,0.0,0.0,0.0,0.0,0.0,0.0,0.0,0.0,0.0,0.0,0.0,0.0,0.0,0.0,0.0,0.0,0.0,0.0,0.0,0.0,0.0,0.0,0.0,0.0,0.0,0.0,0.0,0.0,0.0,0.0,0.0,0.0,0.0,0.0,0.0,0.0,0.0,0.0,0.0,0.0,0.0,0.0,0.0,0.0,0.0,0.0,0.0,0.0,0.0,0.0,0.0,0.0,0.0,2.4571,2.5974,2.6699,2.61,2.5499,2.5197,2.4088,2.2156,1.9376,0.0,0.0,0.0,0.0,0.0,0.0,0.0,0.0,0.0,0.0,0.0,0.0,0.0,0.0,0.0,0.0,0.0,0.0,0.0,0.0,0.0,0.0,0.0,0.0,0.0,0.0,0.0,0.0,0.0,0.0,0.0,0.0,0.0,0.0,0.0,0.0,0.0,0.0,0.0,0.0,0.0,0.0,0.0,0.0,0.0,0.0,0.0,0.0,0.0,0.0,0.0,0.0,0.0,0.0,0.0,0.0,0.0,0.0,0.0,0.0,0.0,0.0,0.0,0.0,0.0,0.0,0.0,0.0,0.0,0.0,0.0,0.0,0.0,0.0,0.0,0.0,0.0,0.0,0.0,0.0,0.0,0.0,0.0,0.0,0.0,0.0,0.0,0.0,0.0,0.0,0.0,0.0,0.0,0.0,0.0,0.0,0.0,0.0,0.0,0.0,0.0,0.0,2.3285,2.4865,2.6264,2.6986,2.6688,2.639,2.61,2.5294,2.3349,2.0074,0.0,0.0,0.0,0.0,0.0,0.0,0.0,0.0,0.0,0.0,0.0,0.0,0.0,0.0,0.0,0.0,0.0,0.0,0.0,0.0,0.0,0.0,0.0,0.0,0.0,0.0,0.0,0.0,0.0,0.0,0.0,0.0,0.0,0.0,0.0,0.0,0.0,0.0,0.0,0.0,0.0,0.0,0.0,0.0,0.0,0.0,0.0,0.0,0.0,0.0,0.0,0.0,0.0,0.0,0.0,0.0,0.0,0.0,0.0,0.0,0.0,0.0,0.0,0.0,0.0,0.0,0.0,0.0,0.0,0.0,0.0,0.0,0.0,0.0,0.0,0.0,0.0,0.0,0.0,0.0,0.0,0.0,0.0,0.0,0.0,0.0,0.0,0.0,0.0,0.0,0.0,0.0,0.0,0.0,0.0,0.0,0.0,0.0,0.0,0.0,0.0,0.0,2.4187,2.5964,2.7262,2.7262,2.7262,2.6965,2.6187,2.6091,2.4571,0.0,0.0,0.0,0.0,0.0,0.0,0.0,0.0,0.0,0.0,0.0,0.0,0.0,0.0,0.0,0.0,0.0,0.0,0.0,0.0,0.0,0.0,0.0,0.0,0.0,0.0,0.0,0.0,0.0,0.0,0.0,0.0,0.0,0.0,0.0,0.0,0.0,0.0,0.0,0.0,0.0,0.0,0.0,0.0,0.0,0.0,0.0,0.0,0.0,0.0,0.0,0.0,0.0,0.0,0.0,0.0,0.0,0.0,0.0,0.0,0.0,0.0,0.0,0.0,0.0,0.0,0.0,0.0,0.0,0.0,0.0,0.0,0.0,0.0,0.0,0.0,0.0,0.0,0.0,0.0,0.0,0.0,0.0,0.0,0.0,0.0,0.0,0.0,0.0,0.0,0.0,0.0,0.0,0.0,0.0,0.0,0.0,0.0,0.0,0.0,0.0,0.0,0.0,2.4688,2.6177,2.7262,2.7262,2.7262,2.7167,2.6965,2.6976,2.5441,2.1904,0.0,0.0,0.0,0.0,0.0,0.0,0.0,0.0,0.0,0.0,0.0,0.0,0.0,0.0,0.0,0.0,0.0,0.0,0.0,0.0,0.0,0.0,0.0,0.0,0.0,0.0,0.0,0.0,0.0,0.0,0.0,0.0,0.0,0.0,0.0,0.0,0.0,0.0,0.0,0.0,0.0,0.0,0.0,0.0,0.0,0.0,0.0,0.0,0.0,0.0,0.0,0.0,0.0,0.0,0.0,0.0,0.0,0.0,0.0,0.0,0.0,0.0,0.0,0.0,0.0,0.0,0.0,0.0,0.0,0.0,0.0,0.0,0.0,0.0,0.0,0.0,0.0,0.0,0.0,0.0,0.0,0.0,0.0,0.0,0.0,0.0,0.0,0.0,0.0,0.0,0.0,0.0,0.0,0.0,0.0,0.0,0.0,0.0,0.0,0.0,0.0,0.0,2.5392,2.6476,2.7262,2.7262,2.7262,2.7262,2.7262,2.7262,2.6137,2.3511,0.0,0.0,0.0,0.0,0.0,0.0,0.0,0.0,0.0,0.0,0.0,0.0,0.0,0.0,0.0,0.0,0.0,0.0,0.0,0.0,0.0,0.0,0.0,0.0,0.0,0.0,0.0,0.0,0.0,0.0,0.0,0.0,0.0,0.0,0.0,0.0,0.0,0.0,0.0,0.0,0.0,0.0,0.0,0.0,0.0,0.0,0.0,0.0,0.0,0.0,0.0,0.0,0.0,0.0,0.0,0.0,0.0,0.0,0.0,0.0,0.0,0.0,0.0,0.0,0.0,0.0,0.0,0.0,0.0,0.0,0.0,0.0,0.0,0.0,0.0,0.0,0.0,0.0,0.0,0.0,0.0,0.0,0.0,0.0,0.0,0.0,0.0,0.0,0.0,0.0,0.0,0.0,0.0,0.0,0.0,0.0,0.0,0.0,0.0,0.0,0.0,0.0,2.6197,2.687,2.7262,2.7262,2.7262,2.7262,2.7262,2.7262,2.6754,2.5538,0.0,0.0,0.0,0.0,0.0,0.0,0.0,0.0,0.0,0.0,0.0,0.0,0.0,0.0,0.0,0.0,0.0,0.0,0.0,0.0,0.0,0.0,0.0,0.0,0.0,0.0,0.0,0.0,0.0,0.0,0.0,0.0,0.0,0.0,0.0,0.0,0.0,0.0,0.0,0.0,0.0,0.0,0.0,0.0,0.0,0.0,0.0,0.0,0.0,0.0,0.0,0.0,0.0,0.0,0.0,0.0,0.0,0.0,0.0,0.0,4.7996,4.7572,0.0,0.0,0.0,0.0,0.0,0.0,0.0,0.0,0.0,0.0,0.0,0.0,0.0,0.0,0.0,0.0,0.0,0.0,0.0,0.0,0.0,0.0,0.0,0.0,0.0,0.0,0.0,0.0,0.0,0.0,0.0,0.0,0.0,0.0,0.0,0.0,0.0,0.0,0.0,0.0,2.6699,2.7071,2.7262,2.7262,2.7262,2.7262,2.7262,2.7262,2.702,2.6441,2.5276,0.0,0.0,0.0,0.0,0.0,0.0,0.0,0.0,0.0,0.0,0.0,0.0,0.0,0.0,0.0,0.0,0.0,0.0,0.0,0.0,0.0,0.0,0.0,0.0,0.0,0.0,0.0,0.0,0.0,0.0,0.0,0.0,0.0,0.0,0.0,0.0,0.0,0.0,0.0,0.0,0.0,0.0,0.0,0.0,0.0,0.0,0.0,0.0,0.0,0.0,0.0,0.0,0.0,0.0,0.0,0.0,0.0,0.0,0.0,4.912,4.8647,0.0,0.0,0.0,0.0,0.0,0.0,0.0,0.0,0.0,0.0,0.0,0.0,0.0,0.0,0.0,0.0,0.0,0.0,0.0,0.0,0.0,0.0,0.0,0.0,0.0,0.0,0.0,0.0,0.0,0.0,0.0,0.0,0.0,0.0,0.0,0.0,0.0,0.0,0.0,0.0,2.7726,2.8351,2.8538,2.7987,2.7998,2.7998,2.7998,2.7998,2.8049,2.8347,2.7721,0.0,0.0,0.0,0.0,0.0,0.0,0.0,0.0,0.0,0.0,0.0,0.0,0.0,0.0,0.0,0.0,0.0,0.0,0.0,0.0,0.0,0.0,0.0,0.0,0.0,0.0,0.0,0.0,0.0,0.0,0.0,0.0,0.0,0.0,0.0,0.0,0.0,0.0,0.0,0.0,0.0,0.0,0.0,0.0,0.0,0.0,0.0,0.0,0.0,0.0,0.0,0.0,0.0,5.0107,5.005,4.9993,4.9993,5.0237,5.0678,5.0016,4.9554,4.9351,4.9231,0.0,0.0,0.0,0.0,0.0,0.0,0.0,0.0,0.0,0.0,0.0,0.0,0.0,0.0,0.0,0.0,0.0,0.0,0.0,0.0,0.0,0.0,3.8811,3.8546,3.8486,3.8248,3.7232,0.0,0.0,0.0,0.0,0.0,0.0,0.0,0.0,0.0,0.0,0.0,2.8991,2.9715,2.9806,2.8899,2.8899,2.8991,2.8817,2.9061,2.9681,3.0664,3.0477,3.0837,0.0,0.0,0.0,0.0,0.0,0.0,0.0,0.0,0.0,0.0,0.0,0.0,0.0,0.0,0.0,0.0,0.0,0.0,0.0,0.0,0.0,0.0,0.0,0.0,0.0,0.0,0.0,0.0,0.0,0.0,0.0,0.0,4.5398,4.5497,0.0,0.0,0.0,0.0,0.0,0.0,0.0,0.0,0.0,0.0,0.0,0.0,0.0,4.9231,4.9688,5.031,5.0677,5.0677,5.1175,5.1452,5.1401,5.1401,5.1452,5.1521,5.1452,0.0,5.0331,5.0276,0.0,0.0,0.0,0.0,0.0,0.0,0.0,0.0,0.0,0.0,0.0,0.0,0.0,0.0,0.0,0.0,0.0,0.0,0.0,0.0,0.0,0.0,4.1198,3.9945,3.9692,3.9463,3.8694,3.7539,3.6439,3.544,3.4709,3.3913,0.0,0.0,0.0,0.0,0.0,0.0,3.0226,3.0249,2.9897,2.9176,2.9795,2.9966,2.9084,3.0672,3.2031,3.3025,3.3553,3.4265,3.5101,3.5194,0.0,0.0,0.0,0.0,0.0,0.0,0.0,0.0,0.0,0.0,0.0,0.0,0.0,0.0,0.0,0.0,0.0,0.0,0.0,0.0,0.0,0.0,0.0,0.0,0.0,0.0,0.0,0.0,0.0,4.7256,4.7524,4.7524,4.804,4.8147,0.0,0.0,0.0,0.0,0.0,0.0,0.0,0.0,0.0,4.9411,4.978,5.0085,5.0366,5.1017,5.1315,5.1297,5.1571,5.169,5.169,5.169,5.169,5.169,5.169,5.1521,5.1158,5.1017,5.055,4.9971,0.0,0.0,0.0,0.0,4.9913,4.9913,5.031,4.9588,4.8572,4.8927,0.0,0.0,0.0,0.0,0.0,0.0,0.0,4.1264,4.0966,4.0847,4.0675,4.003,3.955,3.9205,3.8855,3.8397,3.7691,3.6802,3.629,3.5345,3.3377,3.2842,0.0,0.0,0.0,3.1412,3.1488,3.194,3.1853,3.0956,3.1692,3.2005,3.1568,3.2792,3.4053,3.4941,3.576,3.657,3.7361,3.8018,3.9358,0.0,0.0,0.0,0.0,0.0,0.0,0.0,0.0,0.0,0.0,0.0,0.0,0.0,0.0,0.0,0.0,0.0,0.0,0.0,0.0,0.0,0.0,0.0,0.0,0.0,0.0,0.0,0.0,4.8666,4.8944,4.911,4.9006,4.8944,0.0,0.0,0.0,0.0,0.0,0.0,5.0067,5.0067,5.0067,5.0067,5.055,5.0857,5.1035,5.147,5.169,5.169,5.169,5.169,5.169,5.169,5.169,5.169,5.169,5.169,5.169,5.1487,5.1263,5.1052,5.0982,5.0928,5.0946,5.0928,5.0694,5.0512,5.1158,5.0422,4.9231,4.9763,4.8065,4.5732,4.5039,0.0,0.0,0.0,0.0,4.1577,4.1577,4.1198,4.0826,4.0638,4.0154,3.9677,3.9277,3.9205,3.8914,3.7994,3.7753,3.693,3.4696,3.4449,0.0,3.2253,3.2734,3.3284,3.3369,3.3985,3.3985,3.3089,3.3811,3.4201,3.3926,3.4982,3.605,3.6951,3.7771,3.8708,3.9786,4.0778,4.2245,4.4248,0.0,0.0,0.0,0.0,0.0,0.0,0.0,0.0,0.0,0.0,0.0,0.0,0.0,0.0,0.0,0.0,0.0,0.0,0.0,0.0,0.0,0.0,0.0,0.0,0.0,0.0,0.0,0.0,0.0,4.9688,4.9231,0.0,0.0,0.0,0.0,5.0694,5.0749,5.0749,5.0749,5.0749,5.0749,5.0749,5.0803,5.1088,5.164,5.169,5.169,5.169,5.169,5.169,5.169,5.169,5.169,5.169,5.169,5.169,5.169,5.169,5.1705,5.1701,5.1418,5.1297,5.1347,5.1315,5.1281,5.1281,5.1589,5.1245,5.0694,5.0749,4.8781,4.6075,4.4065,4.33,0.0,0.0,4.3295,4.3295,4.3432,4.3432,4.3235,4.2648,4.2443,4.2045,4.0668,4.027,3.9849,3.8929,3.887,3.862,3.751,0.0,3.7175,3.6105,3.5946,3.6132,3.6318,3.6225,3.5773,3.5036,3.5853,3.6026,3.5117,3.6901,3.8354,3.8984,3.9718,4.0982,4.3065,4.3048,4.3933,4.601,4.6628,0.0,0.0,0.0,0.0,0.0,0.0,0.0,0.0,0.0,0.0,0.0,0.0,0.0,0.0,0.0,0.0,0.0,0.0,0.0,0.0,0.0,0.0,0.0,0.0,0.0,0.0,0.0,0.0,5.0384,4.9879,0.0,4.9746,5.0181,5.055,5.0803,5.114,5.1367,5.1367,5.1035,5.0982,5.1367,5.0982,5.1088,5.169,5.169,5.169,5.169,5.169,5.169,5.169,5.169,5.169,5.169,5.169,5.169,5.169,5.169,5.1722,5.1705,5.1571,5.1571,5.1604,5.1589,5.1538,5.1589,5.169,5.1297,5.0519,4.8717,4.6903,4.5113,4.391,4.3492,4.3432,4.3492,4.3509,4.3568,4.3568,4.3295,4.2912,4.2648,4.2253,4.1722,4.126,4.0737,4.027,3.999,3.9436,3.8782,3.7829,3.7933,3.7691,3.6632,3.6554,3.671,3.6802,3.671,3.654,3.6263,3.7112,3.7648,3.7717,3.8941,3.996,4.0659,4.1299,4.2172,4.3337,4.4024,4.5043,4.643,4.7255,4.8104,0.0,0.0,0.0,0.0,0.0,0.0,0.0,0.0,0.0,0.0,0.0,0.0,0.0,0.0,0.0,0.0,0.0,0.0,0.0,0.0,0.0,0.0,0.0,0.0,0.0,5.0439,5.0366,5.1035,5.0349,4.9993,5.0404,5.0659,5.0857,5.1088,5.147,5.169,5.169,5.1315,5.1315,5.169,5.1297,5.1315,5.169,5.169,5.169,5.169,5.169,5.169,5.169,5.169,5.169,5.169,5.169,5.169,5.169,5.169,5.169,5.169,5.169,5.179,5.1853,5.174,5.169,5.169,5.169,5.1241,5.0295,4.8048,4.6505,4.5358,4.4223,4.3889,4.3848,4.3687,4.3628,4.3628,4.3628,4.3295,4.2912,4.2912,4.2569,4.2045,4.1591,4.1127,4.0737,4.0547,3.9793,3.9017,3.8472,3.8486,3.8263,3.7295,3.7448,3.7677,3.7372,3.7601,3.7753,3.7753,3.8442,3.9175,3.9617,4.0154,4.0873,4.1787,4.2204,4.2883,4.3994,4.4971,4.5961,4.7062,4.7879,4.8691,4.9476,0.0,0.0,0.0,0.0,0.0,0.0,0.0,0.0,0.0,0.0,0.0,0.0,0.0,0.0,0.0,0.0,0.0,0.0,0.0,0.0,0.0,0.0,0.0,5.0803,5.0803,5.1017,5.164,5.057,5.0331,5.1571,5.114,5.1035,5.164,5.169,5.169,5.169,5.169,5.169,5.169,5.169,5.169,5.169,5.169,5.169,5.169,5.169,5.169,5.169,5.169,5.169,5.169,5.169,5.169,5.169,5.169,5.169,5.169,5.169,5.1902,5.2155,5.1822,5.169,5.169,5.1672,5.1137,5.0236,4.8902,4.7906,4.6879,4.5022,4.4502,4.4333,4.3789,4.3628,4.3628,4.3628,4.3628,4.3628,4.3628,4.3628,4.3235,4.1852,4.1525,4.1327,4.0615,3.995,3.9409,3.9409,3.9424,3.9119,3.8352,3.8885,0.0,3.8352,3.8885,3.9424,3.9424,4.0021,4.0478,4.0547,4.0547,4.1142,4.2585,4.2518,4.3363,4.5233,4.5903,4.6817,4.7992,4.8623,4.9295,5.0019,0.0,0.0,0.0,0.0,0.0,0.0,0.0,0.0,0.0,0.0,0.0,0.0,0.0,0.0,0.0,0.0,0.0,0.0,0.0,0.0,0.0,5.1263,5.147,5.147,5.1088,5.1017,5.164,5.0999,5.0677,5.1017,5.0928,5.091,5.1175,5.1521,5.174,5.1858,5.174,5.169,5.169,5.169,5.169,5.169,5.169,5.169,5.169,5.169,5.169,5.169,5.169,5.169,5.169,5.169,5.169,5.169,5.169,5.169,5.169,5.169,5.179,5.1822,5.1722,5.169,5.1619,5.103,5.0051,4.8866,4.7922,4.6552,4.5183,4.4665,4.4162,4.3789,4.3628,4.3628,4.3628,4.3628,4.3628,4.3628,4.3628,4.3628,4.3355,4.2522,4.1852,4.1327,4.0615,4.0355,4.0216,4.0216,3.9753,3.9337,3.9119,3.9265,3.9352,3.9119,3.9265,3.9424,3.9424,3.9553,4.0146,4.1127,4.1194,4.2013,4.3839,4.4288,4.5041,4.6192,4.6799,4.7567,4.8477,4.924,4.9815,0.0,0.0,0.0,0.0,0.0,0.0,0.0,0.0,0.0,0.0,0.0,0.0,0.0,0.0,0.0,0.0,0.0,0.0,0.0,0.0,0.0,0.0,5.147,5.169,5.169,5.1418,5.1315,5.164,5.1418,5.1193,5.1193,5.1193,5.1193,5.128,5.1521,5.174,5.1808,5.174,5.169,5.169,5.169,5.169,5.169,5.169,5.169,5.169,5.169,5.169,5.169,5.169,5.169,5.169,5.169,5.169,5.169,5.169,5.169,5.169,0.0,0.0,0.0,0.0,5.169,5.1583,5.078,4.9781,4.8717,4.7922,4.6582,4.5178,4.491,4.4429,4.3889,4.3671,4.3628,4.3628,4.3628,4.3628,4.3628,4.3628,4.3628,4.3432,4.271,4.2253,4.1722,4.1075,4.094,0.0,4.094,4.0339,3.9737,3.9406,3.9379,3.9394,3.9334,3.9651,3.995,4.027,4.0547,4.106,4.1917,4.2189,0.0,0.0,0.0,4.5763,4.7026,4.7572,0.0,0.0,0.0,4.9359,4.9669,4.9625,0.0,0.0,5.0434,5.041,0.0,0.0,0.0,0.0,0.0,0.0,0.0,0.0,0.0,0.0,0.0,0.0,0.0,0.0,0.0,0.0,5.169,5.169,5.169,5.169,5.169,5.169,5.169,5.169,5.169,5.169,5.169,5.169,5.169,5.169,5.169,5.169,0.0,0.0,0.0,5.169,5.169,5.169,5.169,5.169,5.169,5.169,5.169,5.169,5.169,5.169,5.169,5.169,5.169,5.169,5.169,5.169,5.169,5.169,5.169,5.169,5.1637,5.144,5.0637,0.0,0.0,4.83,4.7204,4.6119,4.558,4.5001,4.439,4.3831,4.3628,4.3628,4.3628,4.3628,4.3628,4.3628,4.3628,4.3432,4.271,4.2585,4.238,4.1656,4.1591,4.1656,4.1656,4.1075,4.0293,3.9444,3.9535,3.958,3.9373,4.0069,4.0873,4.1459,0.0,0.0,4.2632,4.3043,4.3681,4.4597,4.5129,4.6081,4.7534,4.8047,4.8419,4.8636,4.829,4.8296,4.8658,4.8025,4.7933,4.8334,4.9239,4.9277,0.0,0.0,0.0,0.0,0.0,0.0,0.0,0.0,0.0,0.0,0.0,0.0,0.0,0.0,0.0,5.169,5.169,5.169,5.169,5.169,5.169,5.169,5.169,5.169,5.169,5.169,5.174,5.1858,5.174,5.1758,5.1858,5.174,5.169,5.169,5.169,5.169,5.169,5.169,5.169,5.169,5.169,0.0,5.169,5.169,5.169,5.169,5.169,5.169,5.169,5.169,5.169,5.169,5.169,5.169,5.169,5.169,5.128,5.062,4.9817,4.9049,4.8264,4.7479,4.6791,4.6231,4.607,4.5355,0.0,4.4373,4.3948,4.3628,4.3628,4.3628,4.3628,4.3628,4.3628,4.3432,4.271,4.2585,4.238,4.1656,4.1981,4.238,4.238,4.1787,4.106,4.0378,4.0721,4.0857,4.0309,4.0857,4.1327,4.1459,4.1656,4.1981,4.2724,4.2847,4.3639,4.5338,4.6618,4.7139,4.6807,4.7427,4.7553,4.7143,4.7428,4.7669,4.7899,4.7886,4.7626,4.7237,4.8274,4.8705,0.0,0.0,0.0,0.0,0.0,0.0,0.0,0.0,0.0,0.0,0.0,5.169,5.169,0.0,5.169,5.169,5.169,5.169,5.169,5.169,5.169,5.169,5.169,5.169,5.169,5.174,5.1808,5.1808,5.1808,5.1808,5.1808,5.1758,5.169,5.169,5.169,5.169,5.169,5.169,5.169,5.169,5.169,5.169,5.169,5.169,5.169,5.169,5.169,5.169,5.169,5.169,5.169,5.169,5.169,5.169,5.1637,5.1244,5.0901,5.0449,4.9234,4.8601,4.8217,4.7411,4.6835,4.6406,4.6346,4.5614,4.4712,4.4618,4.4162,4.3704,4.3628,4.3628,4.3628,4.3628,4.3628,4.3492,4.3174,4.3113,4.2912,4.219,4.2648,4.2974,4.2648,4.2648,4.2443,4.1672,4.1525,4.1525,4.1525,4.1901,4.2221,4.2506,4.2694,4.2941,4.3339,4.3889,4.4636,4.5474,4.648,4.687,4.6415,4.681,4.7023,4.7052,4.6883,4.6877,4.7041,4.6713,4.6416,4.6164,4.6781,4.7144,0.0,0.0,0.0,0.0,0.0,0.0,0.0,5.2581,5.2191,5.179,5.169,5.169,5.169,5.169,5.169,5.169,5.169,5.169,5.169,5.169,5.169,5.169,5.169,5.169,5.169,5.1808,5.1858,5.1758,5.1858,5.1907,5.179,5.179,5.179,5.179,5.179,5.1758,5.174,5.174,5.1758,5.169,5.169,5.169,5.169,5.169,5.169,5.169,5.169,5.169,5.169,5.169,5.169,5.174,5.174,5.1651,5.1437,5.0744,5.0365,5.0062,4.8755,4.8308,4.8165,4.7517,4.7017,4.6707,4.666,4.6017,4.5197,4.5003,4.458,4.4039,4.3889,4.373,4.3628,4.3628,4.3628,4.3628,4.3628,4.3628,4.3509,4.2974,4.3235,4.3432,4.2912,4.3432,4.3628,4.2772,4.2253,4.211,4.2632,4.2863,4.3202,4.3628,4.3923,4.4056,4.3998,4.4917,4.5478,4.5329,4.5799,4.5994,4.5803,4.6008,4.634,4.6709,4.6209,4.5992,4.6119,4.5471,4.5216,4.5361,4.5475,4.5658,5.4533,5.4449,5.4262,5.396,5.345,5.295,0.0,5.225,5.1907,5.174,5.169,5.169,5.169,5.169,5.169,5.169,5.169,5.169,5.169,5.169,5.169,5.169,5.169,5.169,5.169,5.1808,5.1907,5.1858,5.2005,5.2054,5.2054,5.2054,5.2054,5.2054,5.2054,5.2005,5.1858,5.1858,5.1808,5.169,5.169,5.169,5.169,5.169,5.169,5.169,5.169,5.169,5.169,5.169,5.1758,5.1858,5.1858,5.1508,5.0976,5.0646,4.9698,4.854,4.836,4.7931,4.7427,4.7338,4.7363,4.7363,4.7258,4.6863,4.6454,4.6358,4.5545,4.4801,4.4746,4.4293,4.3898,4.3898,4.3898,4.3898,4.3898,4.3898,4.3839,4.3763,4.3687,4.3568,4.3492,4.3704,4.3628,4.2863,4.3279,4.3476,4.3015,4.3459,4.3822,4.4039,4.4097,4.4155,4.4253,4.4734,4.4979,4.4957,4.5244,4.5095,4.4356,4.492,4.4934,4.4284,4.4791,4.5047,4.5071,4.4976,4.5038,4.5235,4.5235,4.54,5.4311,5.4209,5.4033,5.3607,5.3189,5.282,5.2563,5.2173,5.1858,5.174,5.169,5.169,5.169,5.169,5.169,5.169,5.169,5.169,5.169,5.1758,5.1808,5.1808,5.1907,5.1889,5.1808,5.2005,5.2102,5.2005,5.215,5.215,5.2005,5.2054,5.2036,5.1889,5.1956,5.1907,5.179,5.179,5.1758,5.169,5.169,5.169,5.169,5.169,5.169,5.169,5.179,5.1758,5.169,5.1889,5.1907,5.1871,5.1484,5.0868,5.0196,5.0056,4.9385,4.8497,4.8029,4.7695,4.7511,4.7511,4.7554,4.7615,4.7554,4.7214,4.6799,4.666,4.6049,4.5407,4.5001,4.4708,4.4406,4.4097,4.3998,4.3998,4.3998,4.3998,4.3998,4.3998,4.3939,4.3923,4.3923,4.4039,4.4023,4.3739,4.3848,4.3923,4.368,4.3948,4.4212,4.44,4.427,4.4238,4.4187,4.4642,4.4648,4.4023,4.4366,4.4338,4.3725,4.397,4.4138,4.4184,4.4457,4.4707,4.4895,4.4895,4.4943,4.5033,4.5148,4.5258,5.4137,5.4015,5.3796,5.3234,5.2871,5.2617,5.2353,5.203,5.1808,5.169,5.169,5.164,5.147,5.147,5.147,5.147,5.147,5.1521,5.169,5.169,5.174,5.1858,5.1772,5.1754,5.2005,5.2168,5.2264,5.215,5.2311,5.2264,5.2054,5.2102,5.2054,5.184,5.1907,5.1907,5.1758,5.1758,5.1758,5.169,5.169,5.169,5.169,5.169,5.169,5.174,5.1858,5.1858,5.184,5.2036,5.191,5.1628,5.1131,5.0333,4.9478,4.9478,4.9018,4.8305,4.771,4.7615,4.7717,4.7717,4.7717,4.7717,4.7717,4.7407,4.7107,4.6999,4.6501,4.585,4.5355,4.5001,4.4652,4.4253,4.4155,4.4155,4.4155,4.4155,4.4155,4.4155,4.4155,4.4097,4.4097,4.4196,4.431,4.431,4.4253,4.4229,4.4229,4.4327,4.444,4.457,4.4255,4.4033,4.3922,4.4118,4.3927,4.3154,4.3508,4.3631,4.3267,4.3336,4.3623,4.4106,4.4299,4.4511,4.4777,4.4846,4.4895,4.4895,4.5057,4.5148,5.4171,5.3924,5.351,5.2704,5.2297,5.2036,5.179,5.169,5.169,5.169,5.169,5.1521,5.0928,5.082,5.082,5.082,5.082,5.1035,5.164,5.1331,5.1228,5.1858,5.1087,5.1017,5.215,5.2311,5.2311,5.2311,5.2405,5.2498,5.2498,5.2358,5.2311,5.2264,5.215,5.2054,5.1907,5.1907,5.1808,5.169,5.169,5.169,5.169,5.169,5.1758,5.1907,5.1907,5.1956,5.2102,5.2102,5.1682,5.1092,5.112,5.0209,4.8905,4.8905,4.8338,4.7529,4.7511,4.7615,4.7717,4.7717,4.7717,4.7717,4.7717,4.7699,4.7657,4.7657,4.6908,4.6098,4.6049,4.5214,4.4293,4.431,4.4293,4.4293,4.4293,4.4293,4.4293,4.4293,4.4196,4.4097,4.4097,4.4196,4.431,4.431,4.444,4.457,4.457,4.4587,4.457,4.4587,4.391,4.3453,4.342,4.2968,4.2647,4.2594,4.2826,4.2918,4.2938,4.3249,4.3406,4.344,4.4076,4.443,4.443,4.4732,4.4895,4.4895,4.4895,4.5014,5.337,5.3185,5.2969,5.2361,5.2209,5.215,5.1907,5.1889,5.1956,5.1858,5.1858,5.1758,5.1589,5.147,5.1263,5.0874,5.0803,5.0749,5.0677,5.0587,5.075,5.1383,5.1244,5.1398,5.2198,5.1669,5.1551,5.2387,5.2,5.1951,5.2358,5.2246,5.215,5.215,5.2054,5.1956,5.1907,5.1907,5.1858,5.1858,5.1889,5.1956,5.1956,5.1956,5.1987,5.2054,5.212,5.215,5.2048,5.1715,5.1383,5.1012,5.0037,4.934,4.8858,4.8315,4.7892,4.7615,4.7615,4.7657,4.7717,4.7717,4.7717,4.7717,4.7717,4.7717,4.7717,4.7717,4.745,4.6999,4.631,4.58,4.532,4.4648,4.4497,4.4497,4.4497,4.4497,4.4497,4.4497,4.4457,4.4457,4.4457,4.4457,4.4497,4.4497,4.457,4.4587,4.4587,4.4587,4.4587,4.4587,4.3876,4.3308,4.3151,4.2492,4.2201,4.2331,4.2382,4.2595,4.2882,4.3032,4.3178,4.3406,4.3623,4.3955,4.4383,4.4511,4.4681,4.4895,4.4895,4.4919,5.295,5.2882,5.2787,5.2228,5.2198,5.2264,5.2005,5.2054,5.2102,5.2005,5.1907,5.174,5.1296,5.1087,5.0822,5.0328,5.0159,5.0159,5.0194,5.0254,5.0515,5.1192,5.1017,5.1244,5.2246,5.1174,5.0999,5.2387,5.2048,5.1951,5.2358,5.2246,5.215,5.215,5.2054,5.1956,5.1956,5.1956,5.1956,5.1956,5.2054,5.2102,5.2102,5.2102,5.215,5.215,5.2264,5.2264,5.2173,5.1565,5.1077,5.0633,4.9376,4.8731,4.8424,4.7898,4.7717,4.7717,4.7717,4.7717,4.7717,4.7717,4.7717,4.7717,4.7717,4.7717,4.7717,4.7717,4.7554,4.7258,4.6548,4.6098,4.5665,4.4998,4.472,4.4587,4.4587,4.4587,4.4587,4.4587,4.4587,4.4587,4.4587,4.4587,4.4587,4.4587,4.4587,4.4587,4.4587,4.4587,4.4468,4.4198,4.347,4.2906,4.2616,4.2068,4.1873,4.2192,4.2378,4.2595,4.2882,4.2882,4.2976,4.3213,4.3336,4.3689,4.4213,4.4327,4.4584,4.4895,4.4895,4.4895,5.295,5.295,5.2926,5.2257,5.2198,5.2264,5.215,5.2102,5.2102,5.2102,5.2005,5.1485,5.0279,4.9901,4.9646,4.9299,4.904,4.9265,5.0154,5.0233,5.046,5.1226,5.0477,5.0532,5.2228,5.0911,5.0642,5.234,5.2434,5.2452,5.2498,5.2358,5.2311,5.2311,5.215,5.2084,5.2102,5.2102,5.2084,5.215,5.215,5.215,5.215,5.215,5.2198,5.2311,5.2311,5.2387,5.2371,5.1556,5.0741,4.9945,4.9166,4.8387,4.7717,4.7717,4.7717,4.7717,4.7717,4.7717,4.7717,4.7717,4.7717,4.7717,4.7717,4.7717,4.7717,4.7717,4.7302,4.6954,4.6908,4.6147,4.5355,4.5303,4.4944,4.4626,4.4643,4.4587,4.4587,4.4587,4.4587,4.4587,4.4587,4.4587,4.4587,4.4587,4.4587,4.4587,4.4587,4.4536,4.4231,4.3504,4.2709,4.2141,4.1877,4.1621,4.1656,4.2115,4.2577,4.2882,4.2882,4.2882,4.2882,4.2882,4.3213,4.3557,4.3912,4.4213,4.4557,4.4895,4.4895,4.4895,5.2645,5.2645,5.2599,5.2434,5.2405,5.2405,5.2264,5.2311,5.2358,5.2264,5.1804,5.1296,5.0929,5.0314,4.9646,4.9299,4.9178,4.9118,4.9029,4.8951,4.9222,4.9838,4.9681,4.9913,5.0893,5.0624,5.0733,5.1768,5.1719,5.1933,5.2498,5.2293,5.2246,5.2452,5.2246,5.215,5.2264,5.2264,5.2311,5.2405,5.2405,5.2405,5.2405,5.2405,5.2405,5.2452,5.2452,5.2108,5.1538,5.0723,4.9927,4.913,4.8333,4.7898,4.7717,4.7717,4.7717,4.7717,4.7717,4.7717,4.7717,4.7717,4.7717,4.7717,4.7717,4.7717,4.7717,4.7717,4.7615,4.7407,4.6999,4.6707,4.631,4.5511,4.5214,4.5035,4.4682,4.4587,4.4587,4.4587,4.4587,4.4587,4.4587,4.4587,4.4587,4.4587,4.4587,4.4587,4.4587,4.4079,4.3639,4.3436,4.2252,4.1442,4.1393,4.1137,4.1185,4.1674,4.2115,4.2555,4.2882,4.2882,4.2882,4.2882,4.2976,4.3301,4.3912,4.3974,4.4346,4.4895,4.4895,4.4895,5.2498,5.2498,5.2498,5.2498,5.2498,5.2498,5.2405,5.2405,5.2405,5.2311,5.1654,5.1017,5.0751,4.9959,4.9308,4.8951,4.8827,4.8719,4.8627,4.8827,4.9101,4.9445,4.978,5.022,5.0893,5.0999,5.1278,5.1933,5.1669,5.1768,5.2434,5.234,5.234,5.2498,5.234,5.2293,5.2405,5.2405,5.2405,5.2498,5.2498,5.2498,5.2498,5.2498,5.2498,5.248,5.2118,5.1719,5.1194,5.0053,4.9311,4.884,4.8025,4.7717,4.7717,4.7717,4.7717,4.7717,4.7717,4.7717,4.7717,4.7717,4.7717,4.7717,4.7717,4.7717,4.7717,4.7717,4.7717,4.7615,4.732,4.7062,4.6753,4.6165,4.58,4.5563,4.5302,4.5052,4.4852,4.4626,4.4587,4.4587,4.4587,4.4587,4.4587,4.4587,4.4587,4.4451,4.4113,4.369,4.3301,4.2963,4.1897,4.1172,4.1017,4.1091,4.1321,4.176,4.2239,4.2634,4.2956,4.2994,4.2994,4.2994,4.2994,4.3214,4.3689,4.3881,4.4213,4.4681,4.4852,4.4943,5.2498,5.2498,5.2498,5.2498,5.2498,5.2498,5.2498,5.2405,5.2311,5.2311,5.1586,5.075,5.0167,4.9393,4.8793,4.8547,4.842,4.8373,4.8769,4.9178,4.9546,4.9588,5.0129,5.0805,5.1432,5.15,5.1719,5.234,5.1884,5.1884,5.2498,5.2498,5.2498,5.2498,5.2498,5.2498,5.2498,5.2498,5.2498,5.2498,5.2498,5.2498,5.2498,5.2498,5.2498,5.2462,5.1647,5.123,5.1013,4.9528,4.8858,4.8677,4.7989,4.7717,4.7717,4.7717,4.7717,4.7717,4.7717,4.7717,4.7717,4.7717,4.7717,4.7717,4.7717,4.7717,4.7717,4.7717,4.7717,4.7717,4.7717,4.7363,4.6999,4.6908,4.6548,4.6213,4.6116,4.5749,4.5267,4.4759,4.4776,4.4776,4.472,4.4776,4.4759,4.472,4.4665,4.4393,4.3521,4.3335,4.298,4.2219,4.1491,4.0968,4.0728,4.1185,4.1656,4.2074,4.2595,4.2938,4.3104,4.3104,4.3104,4.3104,4.3104,4.3196,4.344,4.3831,4.4136,4.4457,4.4827,4.4991,5.2498,5.2498,5.2498,5.2498,5.2498,5.2498,5.2498,5.2498,5.2452,5.2452,5.1449,5.057,5.0442,4.9428,4.861,4.8707,4.8707,4.8707,4.8769,4.8894,4.9073,4.9546,4.9688,5.009,5.0805,5.0858,5.1087,5.1719,5.1669,5.1884,5.2498,5.2498,5.2498,5.2498,5.2498,5.2498,5.2498,5.2498,5.2498,5.2498,5.2498,5.2498,5.2498,5.2498,5.2498,5.2462,5.1647,5.0904,5.0216,4.9293,4.8532,4.7898,4.7753,4.7717,4.7717,4.7717,4.7717,4.7717,4.7717,4.7717,4.7717,4.7717,4.7717,4.7717,4.7717,4.7717,4.7717,4.7717,4.7717,4.7717,4.7717,4.7615,4.745,4.7017,4.6817,4.666,4.6213,4.6017,4.5817,4.5267,4.5528,4.5716,4.5267,4.558,4.5665,4.5267,4.5178,4.4744,4.3559,4.2878,4.2202,4.1474,4.0713,4.0256,4.0238,4.1001,4.1525,4.163,4.2418,4.2938,4.3104,4.3104,4.3141,4.3178,4.3141,4.3286,4.3646,4.3862,4.4213,4.4667,4.4895,4.5014,5.2498,5.2498,5.2498,5.2498,5.2498,5.2498,5.2498,5.2209,5.2,5.234,5.107,5.0011,5.0349,4.9385,4.8564,4.8769,4.8786,4.8786,4.8786,4.8832,4.9107,4.9529,4.9919,5.0407,5.1087,5.1432,5.1768,5.2048,5.2048,5.2209,5.2498,5.2498,5.2498,5.2498,5.2498,5.2498,5.2498,5.2498,5.2498,5.2498,5.2498,5.2498,5.2498,5.2498,5.2263,5.1828,5.1013,5.0216,4.942,4.8623,4.8061,4.7717,4.7717,4.7717,4.7717,4.7717,4.7717,4.7717,4.7717,4.7717,4.7717,4.7717,4.7717,4.7717,4.7717,4.7717,4.7717,4.7717,4.7717,4.7717,4.7717,4.7717,4.7657,4.745,4.7407,4.7258,4.6753,4.6566,4.6358,4.58,4.59,4.6,4.5749,4.59,4.59,4.5355,4.5303,4.4749,4.3141,4.2859,4.2347,4.1323,4.0763,4.0353,4.0121,4.1185,4.176,4.1525,4.2458,4.3049,4.316,4.3215,4.3269,4.3286,4.3269,4.334,4.3426,4.3912,4.426,4.4439,4.49,4.5125,5.2498,5.2498,5.2498,5.2498,5.2498,5.2552,5.2715,5.2202,5.1851,5.245,5.105,4.9887,5.031,4.9385,4.869,4.8832,4.8832,4.8832,4.8832,4.894,4.9212,4.9763,5.0369,5.0982,5.1719,5.2228,5.2498,5.2498,5.2498,5.2498,5.2498,5.2498,5.2498,5.2498,5.2498,5.2498,5.2498,5.2498,5.2498,5.2498,5.2498,5.2498,5.248,5.2317,5.19,5.1249,5.0253,4.9474,4.8858,4.8043,4.7717,4.7699,4.7717,4.7759,4.7759,4.7759,4.7741,4.7783,4.7783,4.7741,4.7759,4.7759,4.7717,4.7717,4.7717,4.7717,4.7717,4.7717,4.7717,4.7717,4.7717,4.7759,4.7759,4.7884,4.7925,4.7783,4.7389,4.724,4.6981,4.6436,4.6436,4.6484,4.6389,4.6436,4.6341,4.5783,4.5509,4.4733,4.3048,4.2923,4.2575,4.1441,4.1147,4.0879,4.0514,4.1543,4.2098,4.1743,4.2613,4.3123,4.3251,4.334,4.3429,4.3411,4.3429,4.334,4.3286,4.3962,4.426,4.425,4.4881,4.5213,5.2498,5.2498,5.2498,5.2498,5.2498,5.2679,5.3422,5.3059,5.2773,5.3424,5.2147,5.08,5.0675,4.9739,4.894,4.9001,4.9001,4.9001,4.9001,4.9001,4.9436,5.048,5.0626,5.1139,5.2322,5.2452,5.2498,5.2498,5.2498,5.2498,5.2498,5.2498,5.2498,5.2498,5.2498,5.2498,5.2498,5.2498,5.2498,5.2498,5.2498,5.2498,5.248,5.1737,5.1357,5.1194,4.9691,4.8985,4.8858,4.8146,4.7819,4.7717,4.7819,4.7861,4.7861,4.7861,4.7907,4.7951,4.7951,4.7947,4.7861,4.7861,4.7819,4.7717,4.7717,4.7717,4.7717,4.7717,4.7717,4.7717,4.7861,4.7861,4.7902,4.797,4.7992,4.7992,4.7951,4.7911,4.7752,4.7194,4.7488,4.765,4.7194,4.7488,4.765,4.7106,4.6067,4.5046,4.41,4.3045,4.2207,4.1789,4.1717,4.1682,4.1639,4.2098,4.24,4.2404,4.2844,4.3178,4.3376,4.3394,4.3411,4.3497,4.3411,4.3411,4.3479,4.4042,4.4318,4.4383,4.4929,4.5235,5.2498,5.2498,5.2498,5.2498,5.2498,5.2715,5.3512,5.2916,5.2661,5.4097,5.2298,5.0686,5.1287,5.0107,4.9001,4.9001,4.9001,4.9001,4.9001,4.9001,4.9333,5.0124,5.048,5.1034,5.1884,5.2275,5.2498,5.2498,5.2498,5.2498,5.2498,5.2498,5.2498,5.2498,5.2498,5.2498,5.2498,5.2498,5.2498,5.2498,5.2498,5.2245,5.1756,5.1502,5.083,4.9949,4.9337,4.8816,4.8343,4.8075,4.7929,4.7888,4.7947,4.7947,4.7947,4.7947,4.797,4.7992,4.7992,4.797,4.7947,4.7947,4.7929,4.7847,4.7842,4.7824,4.7888,4.7888,4.7888,4.7888,4.7947,4.8028,4.8087,4.809,4.813,4.813,4.813,4.805,4.7951,4.7733,4.7834,4.7933,4.7733,4.7834,4.7834,4.7281,4.6354,4.541,4.4352,4.3632,4.2995,4.253,4.2324,4.2103,4.1793,4.2462,4.277,4.2523,4.2995,4.3323,4.3394,4.3446,4.3463,4.3497,4.3463,4.3566,4.3814,4.4192,4.4438,4.465,4.5065,4.5256,5.2526,5.2498,5.2498,5.2498,5.2498,5.277,5.382,5.3256,5.2981,5.4619,5.2849,5.1182,5.1568,5.0385,4.9255,4.9035,4.9001,4.9001,4.9001,4.9001,4.9273,5.0028,5.0497,5.1034,5.1768,5.2275,5.2498,5.2498,5.2498,5.2498,5.2498,5.2498,5.2498,5.2498,5.2498,5.2498,5.2498,5.2498,5.2498,5.2498,5.2526,5.2091,5.1312,5.1191,5.038,4.9107,4.8917,4.8521,4.7992,4.8032,4.805,4.7992,4.8032,4.805,4.805,4.805,4.8072,4.8072,4.8072,4.809,4.805,4.805,4.805,4.805,4.8006,4.7988,4.7992,4.7992,4.8032,4.805,4.805,4.813,4.8226,4.8226,4.8226,4.8226,4.8226,4.8169,4.8072,4.8072,4.8072,4.8072,4.8072,4.8072,4.7955,4.7572,4.6519,4.5528,4.4869,4.4057,4.3403,4.3104,4.2921,4.2657,4.2346,4.2884,4.3123,4.2828,4.316,4.3446,4.3566,4.3615,4.3682,4.3777,4.3777,4.3873,4.4121,4.4402,4.4624,4.48,4.5132,4.5297,5.2618,5.2498,5.2498,5.2498,5.2498,5.2915,5.4526,5.4353,5.41,5.4955,5.4133,5.2804,5.1304,5.0486,4.9847,4.912,4.9001,4.9001,4.9001,4.9001,4.9419,5.0589,5.0697,5.1191,5.2387,5.2498,5.2498,5.2498,5.2498,5.2498,5.2498,5.2498,5.2498,5.2498,5.2498,5.2498,5.2498,5.2498,5.2498,5.2498,5.2581,5.219,5.1391,5.0696,4.9979,4.9159,4.8356,4.7992,4.7992,4.813,4.813,4.7992,4.8148,4.8187,4.8187,4.8187,4.8247,4.8306,4.8306,4.8247,4.8187,4.8187,4.8187,4.8187,4.8187,4.809,4.7992,4.7992,4.809,4.8187,4.8187,4.8247,4.8306,4.8306,4.8306,4.8306,4.8306,4.8306,4.8306,4.8306,4.8306,4.8306,4.8306,4.8306,4.8306,4.8306,4.6585,4.543,4.581,4.4144,4.305,4.3444,4.3479,4.3497,4.3479,4.3446,4.3411,4.3497,4.3446,4.3566,4.3974,4.4005,4.4121,4.4402,4.4383,4.4383,4.4402,4.465,4.48,4.48,4.5132,4.5297,5.3011,5.29,5.2831,5.2572,5.2498,5.2915,5.4544,5.4371,5.426,5.5669,5.4519,5.2977,5.1977,5.0905,4.9847,4.912,4.9001,4.9001,4.9001,4.9001,4.9273,5.0085,5.084,5.15,5.1835,5.2275,5.2498,5.2498,5.2498,5.2526,5.2581,5.2581,5.2554,5.2498,5.2498,5.2526,5.2581,5.2581,5.2627,5.269,5.2152,5.1522,5.0678,5.0021,4.9299,4.8513,4.8318,4.819,4.819,4.8229,4.8229,4.8229,4.8229,4.8286,4.8286,4.8286,4.8267,4.8306,4.8306,4.8286,4.8286,4.8286,4.8286,4.8286,4.8286,4.8229,4.819,4.819,4.8229,4.8286,4.8286,4.8267,4.8306,4.8306,4.8306,4.8306,4.8306,4.8306,4.8306,4.8306,4.8306,4.8306,4.8306,4.8306,4.8306,4.8306,4.6817,4.5736,4.5902,4.4363,4.3375,4.3497,4.3497,4.3497,4.3497,4.3463,4.3463,4.3497,4.3682,4.3878,4.4005,4.4181,4.4318,4.4402,4.4383,4.4493,4.4676,4.4751,4.4934,4.5132,4.5256,4.5341,5.3489,5.3203,5.3054,5.2787,5.2835,5.3295,5.4599,5.4806,5.5022,5.6098,5.5097,5.368,5.2442,5.1298,5.0185,4.9171,4.9168,4.929,4.9001,4.9376,4.9855,5.0477,5.1347,5.1933,5.1946,5.2333,5.2554,5.2618,5.2618,5.2645,5.2654,5.2698,5.2672,5.2599,5.2618,5.2645,5.2698,5.2698,5.2553,5.235,5.1901,5.1079,5.0003,4.9633,4.9035,4.8247,4.8267,4.8306,0.0,4.8306,4.8306,4.8306,4.8306,4.8306,4.8306,4.8306,4.8306,4.8306,4.8306,4.8306,4.8306,4.8306,4.8306,4.8306,4.8306,4.8306,4.8306,4.8306,4.8306,4.8306,4.8306,4.8306,4.8306,4.8306,4.8306,4.8306,4.8306,4.8306,4.8306,4.8306,4.8306,4.8306,4.8306,4.8306,4.8306,4.8306,4.7186,4.625,4.5938,4.4764,4.3828,4.3516,4.3497,4.3497,4.3497,4.3497,4.3548,4.3682,4.3878,4.4109,4.4308,4.4438,4.4599,4.4739,4.4739,4.4838,4.5,4.5,4.5109,4.5297,4.5341,4.5419,0.0,5.3508,5.3162,5.3138,5.3389,5.3958,5.4725,5.5468,0.0,5.6259,5.5738,5.4664,5.2589,5.164,5.0676,4.9238,4.9496,4.9656,4.9046,5.0011,5.0911,5.1432,5.2096,5.2508,5.2545,5.259,5.2654,5.2806,5.2806,5.2806,5.2806,5.2806,5.2806,5.2824,5.2824,5.2806,5.2806,5.2751,5.235,5.1645,5.1639,5.0858,4.9413,4.9478,4.9058,4.8306,4.8306,4.8306,4.8306,4.8306,4.8306,4.8306,4.8306,4.8306,4.8306,4.8306,4.8306,4.8306,4.8306,4.8306,4.8306,4.8306,4.8306,4.8306,4.8306,4.8306,4.8306,4.8306,4.8306,4.8306,4.8306,4.8306,4.8306,4.8306,4.8306,4.8306,4.8306,4.8306,4.8306,4.8306,4.8306,4.8306,4.8306,4.8306,4.8306,4.8306,4.7627,4.6819,4.5993,4.5204,4.4397,4.3589,4.3497,4.3532,4.3513,4.3532,4.3682,4.3974,4.4036,4.4279,4.4776,4.48,4.4981,4.5297,4.5297,4.5297,4.5297,4.5297,4.5298,4.5319,4.5456,4.5507,5.4754,0.0,5.3851,5.3244,5.3634,5.43,0.0,5.5468,5.6061,5.6259,5.5352,5.3999,5.2485,5.1196,5.0067,4.9154,4.9496,4.9656,4.9046,5.0011,5.0643,5.0425,5.1665,5.2454,5.2155,5.2499,5.2761,5.2806,5.2806,5.285,5.2955,5.2955,5.2999,5.3103,5.3121,5.306,5.2955,5.2352,5.1993,5.1875,5.0688,4.99,4.9515,4.8912,4.8489,4.8306,4.8306,4.8306,4.8306,4.8306,4.8306,4.8306,4.8306,4.8306,4.8306,4.8306,4.8306,4.8306,4.8306,4.8306,4.8306,4.8306,4.8306,4.8306,4.8306,4.8306,4.8306,4.8306,4.8306,4.8306,4.8306,4.8306,4.8306,4.8306,4.8306,4.8306,4.8306,4.8306,4.8306,4.8306,4.8306,4.8306,4.8306,4.8306,4.8306,4.8306,4.7627,4.6819,4.5993,4.5204,4.4397,4.3589,4.3497,4.3615,4.3878,4.3878,4.391,4.4005,4.4393,4.465,4.4776,4.5045,4.5235,4.5297,4.5297,4.5297,4.5297,4.5297,4.5341,4.5455,4.5491,4.5638,5.5094,5.4704,5.4209,5.3644,5.4211,5.4924,5.5028,5.5837,5.6613,5.6876,5.5759,5.4396,5.3397,5.2044,5.0718,4.9777,5.0293,5.0822,5.0751,5.1069,5.1276,5.131,5.2119,5.2654,5.2454,5.2698,5.2912,5.2974,5.2955,5.3017,5.3103,5.3103,5.3121,5.3206,5.3206,5.3164,5.3103,5.2297,5.1752,5.1426,5.0178,4.937,4.8985,4.8526,4.8306,4.8306,4.8306,4.8306,4.8306,4.8306,4.8306,4.8306,4.8306,4.8306,4.8306,4.8306,4.8306,4.8306,4.8306,4.8306,4.8306,4.8306,4.8306,4.8306,4.8306,4.8306,4.8306,4.8306,4.8306,4.8306,4.8306,4.8306,4.8306,4.8306,4.8306,4.8306,4.8306,4.8306,4.8306,4.8306,4.8306,4.8306,4.8306,4.8306,4.8306,4.8306,4.7939,4.737,4.6562,4.5755,4.5,4.4343,4.3937,4.386,4.4181,4.4308,4.4393,4.4393,4.4624,4.4868,4.5023,4.5194,4.5297,4.5297,4.5297,4.5297,4.5297,4.5361,4.5438,4.549,4.5654,4.5829,5.5183,5.4776,5.4359,5.4069,5.4869,5.5638,5.5268,5.6243,5.7302,5.7389,5.6237,5.4968,5.4313,5.3012,5.1652,5.0492,5.1121,5.1976,5.2608,5.2268,5.2155,5.2654,5.2761,5.2893,5.2999,5.3042,5.3103,5.3206,5.3206,5.3206,5.3206,5.3206,5.3206,5.3206,5.3096,5.3023,5.3023,5.2215,5.1408,5.0618,4.9774,4.9003,4.8306,4.8306,4.8306,4.8306,4.8306,4.8306,4.8306,4.8306,4.8306,4.8306,4.8306,4.8306,4.8306,4.8306,4.8306,4.8306,4.8306,4.8306,4.8306,4.8306,4.8306,4.8306,4.8306,4.8306,4.8306,4.8306,4.8306,4.8306,4.8306,4.8306,4.8306,4.8306,4.8306,4.8306,4.8306,4.8306,4.8306,4.8306,4.8306,4.8306,4.8364,4.8364,4.8402,4.8458,4.8458,4.8126,4.7279,4.6524,4.5835,4.5254,4.4501,4.4181,4.4438,4.4676,4.48,4.4868,4.4868,4.4981,4.5297,4.5297,4.5297,4.5297,4.5319,4.5339,4.5339,4.5455,4.5558,4.5591,4.5866,4.6007,5.5243,5.4924,5.456,5.4104,5.5156,5.6095,5.5359,5.6387,5.7352,5.6744,5.5473,5.4277,5.3432,5.2175,5.1088,5.0422,5.0442,5.0929,5.2012,5.206,5.2042,5.2177,5.2662,5.2999,5.3164,5.3164,5.3164,5.3206,5.3206,5.3206,5.3206,5.3206,5.3206,5.3206,5.2546,5.2179,5.2179,5.1389,5.0582,4.9756,4.8912,4.8434,4.8306,4.8306,4.8306,4.8306,4.8306,4.8306,4.8306,4.8306,4.8306,4.8306,4.8306,4.8306,4.8306,4.8306,4.8306,4.8306,4.8306,4.8306,4.8306,4.8306,4.8306,4.8306,4.8306,4.8306,4.8306,4.8306,4.8306,4.8306,4.8306,4.8306,4.8306,4.8306,4.8306,4.8306,4.8306,4.8306,4.8306,4.8306,4.8306,4.8402,4.8676,4.8711,4.8797,4.9094,4.9145,4.8749,4.7649,4.7079,4.637,4.5319,4.4677,4.4457,4.4701,4.4776,4.4934,4.5213,4.5235,4.5256,4.5297,4.5297,4.5297,4.5297,4.54,4.5473,4.5473,4.56,4.575,4.5922,4.5986,4.6066,5.5474,5.5243,5.4952,5.433,5.482,5.5365,5.4869,5.556,5.6244,5.6017,5.5057,5.4179,5.3872,5.2943,5.2149,5.191,5.1597,5.1714,5.2545,5.2654,5.2654,5.2662,5.2937,5.3103,5.3206,5.3206,5.3206,5.3206,5.3206,5.3206,5.3206,5.3206,5.3206,5.3206,5.2417,5.1775,5.1353,5.0545,4.9958,4.9572,4.8728,4.8306,4.8306,4.8306,4.8306,4.8306,4.8306,4.8306,4.8306,4.8306,4.8306,4.8306,4.8306,4.8306,4.8306,4.8306,4.8306,4.8306,4.8306,4.8306,4.8306,4.8306,4.8306,4.8306,4.8306,4.8306,4.8306,4.8306,4.8306,4.8306,4.8306,4.8306,4.8306,4.8306,4.8306,4.8306,4.8306,4.8421,4.855,4.855,4.8711,4.89,4.9048,4.908,4.9113,4.9302,4.9283,4.9121,4.8589,4.7965,4.7248,4.6421,4.5733,4.5237,4.5084,4.5087,4.5151,4.5297,4.5297,4.5297,4.5297,4.5297,4.5339,4.5419,4.5473,4.5541,4.5619,4.5777,4.5902,4.5997,4.6075,4.6146,5.5651,5.5418,5.5113,5.4578,5.4667,5.4791,5.4448,5.4873,5.5295,5.531,5.4734,5.4214,5.4118,5.3524,5.306,5.3164,5.2761,5.2608,5.3103,5.3206,5.3206,5.3206,5.3206,5.3206,5.3206,5.3206,5.3206,5.3206,5.3206,5.3206,5.3206,5.3206,5.3115,5.2931,5.2142,5.1316,5.0548,4.974,4.9336,4.9279,4.8656,4.8363,4.8363,4.8363,4.8344,4.8382,4.8344,4.8344,4.8382,4.8382,4.8382,4.8382,4.8382,4.8382,4.8382,4.8382,4.8382,4.8382,4.8382,4.8382,4.8382,4.8344,4.8363,4.8363,4.8306,4.8306,4.8306,4.8306,4.8306,4.8306,4.8306,4.8306,4.8306,4.8306,4.8306,4.8306,4.8402,4.8623,4.8816,4.89,4.9113,4.9314,4.9405,4.9424,4.9435,4.9512,4.9541,4.9512,4.9424,4.8767,4.8144,4.7674,4.6746,4.5959,4.5354,4.5297,4.5297,4.5297,4.5297,4.5297,4.5297,4.5339,4.54,4.549,4.5574,4.5665,4.5777,4.5966,4.6056,4.6056,4.6146,4.6196,5.5651,5.5237,5.4806,5.4776,5.5098,5.5267,5.4575,5.5023,5.5372,5.4638,5.4436,5.4179,5.3427,5.2842,5.2608,5.3121,5.2761,5.2608,5.3103,5.3206,5.3206,5.3206,5.3206,5.3206,5.3206,5.3206,5.3206,5.3206,5.3206,5.3206,5.3206,5.3206,5.2858,5.2105,5.1316,5.053,4.9802,4.8991,4.8511,4.8398,4.8456,4.8513,4.8513,4.8513,4.8513,4.8587,4.8513,4.8513,4.8587,4.8587,4.8587,4.8587,4.8587,4.8587,4.8587,4.8587,4.8587,4.8587,4.8587,4.8587,4.8569,4.8494,4.8513,4.8457,4.8363,4.8306,4.8306,4.8306,4.8306,4.8306,4.8306,4.8306,4.8306,4.8306,4.8306,4.8402,4.8694,4.8781,4.89,4.919,4.9283,4.9394,4.9702,4.9757,4.9857,5.0169,5.0236,5.012,4.9784,4.9327,4.8881,4.8534,4.7291,4.6154,4.5373,4.5297,4.5297,4.5297,4.5297,4.5297,4.5297,4.5419,4.5491,4.549,4.5815,4.5975,4.5986,4.613,4.6189,4.6189,4.6196,4.6196,5.5859,5.5525,5.5138,5.4905,5.4831,5.4678,5.4068,5.4059,5.4014,5.372,5.3665,5.3573,5.328,5.3017,5.2955,5.3164,5.3017,5.2955,5.3164,5.3206,5.3206,5.3206,5.3206,5.3206,5.3206,5.3206,5.3206,5.3206,5.3206,5.3206,5.3206,5.2729,5.2348,5.2059,5.079,5.0022,4.9749,4.8938,4.8532,4.8495,4.8532,4.8569,4.8569,4.8569,4.8569,4.8587,4.8569,4.8569,4.8587,4.8587,4.8587,4.8587,4.8587,4.8587,4.8587,4.8587,4.8587,4.8587,4.8587,4.8587,4.8587,4.8569,4.8569,4.8569,4.8695,4.8748,4.8765,4.89,4.8915,4.8866,4.8658,4.8623,4.864,4.8866,4.8915,4.8949,4.908,4.9271,4.9453,4.957,4.9757,4.9955,5.0076,5.012,5.0144,5.0278,5.0302,5.0236,5.012,4.9968,4.9629,4.8977,4.7446,4.6385,4.6061,4.5649,4.5419,4.5419,4.5419,4.5419,4.5419,4.5539,4.5679,4.5815,4.5933,4.6037,4.6111,4.6181,4.6196,4.6196,4.6196,4.6196,5.5891,5.5651,5.5314,5.4952,5.4635,5.4277,5.3814,5.3422,5.3206,5.3206,5.3206,5.3206,5.3206,5.3206,5.3206,5.3206,5.3206,5.3206,5.3206,5.3206,5.3206,5.3206,5.3206,5.3206,5.3206,5.3206,5.3206,5.3206,5.3206,5.3206,5.323,5.2459,5.1948,5.1793,5.0448,4.9638,4.9492,4.8919,4.8678,4.8695,4.8695,4.8678,4.8678,4.8678,4.8678,4.8695,4.8678,4.8678,4.8695,4.8695,4.8767,4.8853,4.8853,4.8903,4.8986,4.8986,4.8986,4.8986,4.8986,4.8986,4.8986,4.8934,4.8934,4.8934,4.9099,4.915,4.9132,4.9283,4.9314,4.9252,4.9145,4.9034,4.9034,4.924,4.9283,4.9314,4.9453,4.9646,4.983,4.9955,5.0144,5.0302,5.0302,5.0302,5.0302,5.0302,5.0302,5.0302,5.0302,5.0302,4.9996,4.9175,4.7826,4.6892,4.6624,4.5917,4.5524,4.5555,4.5603,4.5638,4.5555,4.5722,4.5859,4.5997,4.6037,4.6102,4.6196,4.6196,4.6209,4.6203,4.6203,4.6206,5.5731,5.5538,5.5314,5.4895,5.4604,5.4259,5.3814,5.3422,5.3206,5.3206,5.3206,5.3206,5.3206,5.3206,5.3206,5.3206,5.3206,5.3206,5.3206,5.3206,5.3206,5.3206,5.3206,5.3206,5.3206,5.3206,5.3206,5.3206,5.3206,5.323,5.33,5.2545,5.1775,5.1117,5.0249,4.9473,4.8805,4.8787,4.8839,4.8909,4.8909,4.8874,4.8787,4.8787,4.8857,4.8909,4.8822,4.8857,4.8909,4.8909,4.9094,4.9415,4.9415,4.9558,4.9784,4.9803,4.9803,4.9803,4.9803,4.9803,4.9784,4.9645,4.9599,4.9599,4.9532,4.9445,4.9405,4.9405,4.9375,4.9394,4.973,4.957,4.9314,4.9314,4.9314,4.9394,4.973,4.9784,4.9884,5.0236,5.0302,5.0302,5.0302,5.0302,5.0302,5.0302,5.0302,5.0302,5.0302,5.0302,4.9996,4.9217,4.8508,4.7759,4.6894,4.6009,4.5574,4.5703,4.5902,4.5914,4.5717,4.5902,4.5997,4.5997,4.6138,4.6196,4.6196,4.6196,4.6209,4.6206,4.6206,4.6206,5.5859,5.5564,5.521,5.499,5.4522,5.4069,5.3889,5.3524,5.3295,5.3295,5.323,5.3206,5.3206,5.3206,5.3206,5.3206,5.3206,5.3206,5.3206,5.3206,5.3206,5.3206,5.323,5.3295,5.3295,5.3336,5.3418,5.3418,5.3418,5.3179,5.2647,5.1835,5.108,5.0343,4.9547,4.9009,4.8874,4.8874,4.8874,4.8909,4.8909,4.8909,4.8874,4.8874,4.8874,4.8909,4.8874,4.8874,4.8909,4.8909,4.8959,4.9061,4.9321,4.9302,4.9201,4.9646,4.9665,4.9558,4.9721,4.9803,4.9784,4.9738,4.9738,4.9765,4.9898,4.9898,4.9924,5.013,5.0155,5.0174,5.0217,5.0169,5.0057,5.0006,5.0006,5.0025,5.0144,5.0144,5.0169,5.0278,5.0302,5.0302,5.0302,5.0302,5.0302,5.0302,5.0302,5.0352,5.0489,5.0509,5.0471,5.0308,4.9488,4.8641,4.7912,4.7124,4.6467,4.5941,4.6056,4.6065,4.5914,4.6056,4.6146,4.6146,4.6189,4.6196,4.6211,4.6211,4.621,4.6198,4.6198,4.6225,5.5633,5.5399,5.5083,5.4678,5.4307,5.3997,5.3851,5.3542,5.3277,5.3254,5.3254,5.323,5.323,5.3272,5.3314,5.3272,5.323,5.323,5.3206,5.3206,5.3206,5.3206,5.3254,5.33,5.33,5.34,5.3499,5.3499,5.3499,5.3148,5.2357,5.1562,5.0824,5.0064,4.9284,4.8839,4.8909,4.8909,4.8909,4.8909,4.8909,4.8909,4.8909,4.8909,4.8909,4.8909,4.8909,4.8909,4.8909,4.8909,4.8959,4.9127,4.9321,4.9334,4.9309,4.9784,4.9857,4.9768,5.0057,5.0155,5.0155,5.0155,5.0155,5.0178,5.0313,5.0313,5.0333,5.0481,5.0521,5.05,5.0457,5.0435,5.0435,5.0325,5.0302,5.0302,5.0302,5.0302,5.0302,5.0302,5.0302,5.0302,5.0302,5.0302,5.0302,5.0302,5.0355,5.0469,5.0675,5.0755,5.0816,5.0811,5.0012,4.9199,4.8438,4.7641,4.6872,4.6134,4.6154,4.6154,4.6084,4.6154,4.6196,4.6196,4.6196,4.6201,4.6206,4.6199,4.6217,4.6249,4.6249,4.6269,5.5243,5.5102,5.4924,5.4123,5.3997,5.3997,5.3754,5.3499,5.3318,5.3248,5.3295,5.3318,5.3318,5.34,5.344,5.3359,5.3318,5.3277,5.3248,5.3206,5.3206,5.3206,5.3295,5.3359,5.3359,5.344,5.3539,5.3539,5.3465,5.3098,5.2361,5.1546,5.0768,5.0023,4.928,4.8909,4.8909,4.8909,4.8909,4.8909,4.8909,4.8909,4.8909,4.8909,4.8909,4.8909,4.8909,4.8909,4.8909,4.8909,4.9094,4.9415,4.9427,4.9588,4.9857,5.0135,5.0249,5.0249,5.0565,5.0702,5.0702,5.0702,5.0702,5.0702,5.0702,5.0643,5.0603,5.0603,5.0582,5.0521,5.0521,5.05,5.0478,5.0348,5.0302,5.0302,5.0302,5.0302,5.0302,5.0302,5.0302,5.0325,5.0348,5.0329,5.0329,5.0333,5.0529,5.069,5.0807,5.1,5.1033,5.0881,5.0289,4.9575,4.8708,4.7863,4.7048,4.6371,4.6235,4.6203,4.6203,4.6203,4.6203,4.6203,4.6192,4.6195,4.6214,4.6219,4.6249,4.6306,4.6306,4.63,5.5301,5.4895,5.4411,5.4121,5.3926,5.3736,5.3579,5.3598,5.3616,5.3595,5.3518,5.3459,5.3459,5.3499,5.3499,5.344,5.3459,5.344,5.3418,5.3418,5.3418,5.3418,5.3558,5.3616,5.3616,5.3716,5.3736,5.3736,5.3142,5.2437,5.1658,5.0804,4.9969,4.9187,4.9002,4.8909,4.8909,4.8909,4.8909,4.8909,4.8909,4.8909,4.8909,4.8909,4.8909,4.8909,4.8909,4.8909,4.8909,4.8909,4.9094,4.9427,4.9627,4.9749,4.9857,5.0399,5.0421,5.0249,5.0565,5.0702,5.0702,5.0702,5.0702,5.0702,5.0702,5.0683,5.0663,5.0663,5.0663,5.0643,5.0603,5.0582,5.0542,5.0412,5.039,5.0348,5.0302,5.0302,5.0302,5.0302,5.0325,5.0396,5.0528,5.0568,5.0661,5.0758,5.0908,5.0994,5.1026,5.1064,5.1139,5.1264,5.1005,5.052,4.9831,4.8966,4.8109,4.7267,4.6585,4.6196,4.6192,4.6197,4.6197,4.6197,4.6206,4.6225,4.6289,4.6289,4.6286,4.6309,4.6309,4.6306,5.5099,5.4776,5.4463,5.4052,5.3832,5.3695,5.3658,5.3716,5.3754,5.3754,5.3676,5.3598,5.3598,5.3619,5.3619,5.3598,5.3598,5.3558,5.3499,5.3499,5.3499,5.3499,5.3616,5.3714,5.3714,5.3754,5.3645,5.3255,5.2847,5.2067,5.0841,5.0358,4.9745,4.8927,4.8909,4.8909,4.8909,4.8909,4.8909,4.8909,4.8909,4.8909,4.8909,4.8909,4.8993,4.9127,4.8959,4.9075,4.9327,4.9206,4.9334,4.9598,4.9749,4.9803,4.9857,5.0291,5.0358,5.0249,5.0565,5.0702,5.0702,5.0702,5.0702,5.0702,5.0702,5.0702,5.0702,5.0702,5.0702,5.0683,5.0643,5.0643,5.0623,5.0521,5.0457,5.039,5.0302,5.0374,5.0442,5.0442,5.0528,5.0604,5.0673,5.0758,5.0835,5.0991,5.1054,5.1128,5.1225,5.1239,5.1271,5.1396,5.131,5.0922,5.0173,4.9296,4.8406,4.7518,4.667,4.6183,4.6147,4.6151,4.6169,4.6209,4.6226,4.6269,4.6307,4.6301,4.6293,4.63,4.63,4.63,5.4866,5.4685,5.4495,5.3926,5.3754,5.3734,5.3774,5.3813,5.3813,5.3813,5.3754,5.3695,5.3695,5.3716,5.3697,5.3734,5.3656,5.3598,5.3579,5.3561,5.3561,5.3561,5.3637,5.3695,5.3695,5.3663,5.333,5.2661,5.2327,5.1565,5.0172,4.9986,4.9596,4.8927,4.8909,4.8909,4.8909,4.8909,4.8909,4.8909,4.8909,4.8943,4.9012,4.9012,4.9127,4.9384,4.9141,4.9358,4.9776,4.9558,4.9627,4.9884,4.9884,4.9891,4.9987,5.0183,5.0294,5.0336,5.0604,5.0702,5.0702,5.0702,5.0702,5.0702,5.0702,5.0702,5.0702,5.0702,5.0702,5.0702,5.0702,5.0721,5.0721,5.0644,5.0585,5.0464,5.0396,5.0486,5.0625,5.0643,5.0755,5.0848,5.0881,5.092,5.102,5.1133,5.1159,5.1206,5.1377,5.141,5.139,5.1401,5.1405,5.1102,5.0381,4.9516,4.8601,4.7679,4.6868,4.6308,4.6102,4.6105,4.6134,4.6191,4.6248,4.6284,4.6284,4.629,4.63,4.63,4.63,4.63,5.4806,5.4364,5.3889,5.3832,5.3813,5.3774,5.3813,5.3813,5.3813,5.3813,5.3813,5.3774,5.3774,5.3561,5.3481,5.3736,5.3521,5.344,5.3717,5.3774,5.3774,5.3774,5.3774,5.3774,5.3774,5.3181,5.2717,5.2605,5.1249,5.0339,5.0116,4.9447,4.902,4.8909,4.8909,4.8909,4.8909,4.8909,4.8909,4.8909,4.8909,4.9061,4.9352,4.9352,4.9352,4.9396,4.9598,4.9721,4.9803,4.9776,4.9891,5.0159,5.0159,5.0336,5.0584,5.0624,5.0624,5.0624,5.0683,5.0702,5.0702,5.0702,5.0702,5.0702,5.0702,5.0702,5.0702,5.0702,5.0702,5.0702,5.0702,5.0794,5.0874,5.0789,5.0848,5.0855,5.0696,5.0661,5.0711,5.0835,5.0969,5.1074,5.115,5.1252,5.1333,5.1357,5.1362,5.1367,5.139,5.1394,5.1394,5.1394,5.1401,5.1357,5.1235,5.0367,4.9461,4.8584,4.7715,4.6903,4.6136,4.6093,4.6138,4.6195,4.6211,4.6201,4.6201,4.6273,4.63,4.63,4.63,4.63,5.4623,5.4177,5.3813,5.3813,5.3813,5.3813,5.3813,5.3639,5.3521,5.3521,5.3521,5.3521,5.3521,5.34,5.3277,5.3277,5.3258,5.3341,5.3521,5.3678,5.3813,5.3813,5.3813,5.3627,5.3181,5.281,5.2215,5.1268,5.0525,4.9912,4.9447,4.9094,4.8909,4.8909,4.8909,4.8909,4.8909,4.8909,4.8909,4.8909,4.9094,4.9257,4.9415,4.9712,4.9857,4.9857,4.9811,4.9987,5.0291,5.0087,5.0202,5.0483,5.0483,5.0565,5.0702,5.0702,5.0702,5.0702,5.0702,5.0702,5.0702,5.0702,5.0702,5.0702,5.0702,5.0758,5.081,5.081,5.0839,5.0879,5.0879,5.0903,5.0959,5.0912,5.0966,5.1004,5.0984,5.094,5.0984,5.1152,5.123,5.1284,5.131,5.1357,5.1394,5.1406,5.139,5.1394,5.1394,5.1394,5.1394,5.1394,5.1406,5.1396,5.1396,5.0532,4.9843,4.9453,4.8158,4.7209,4.6789,4.6302,4.6068,4.6146,4.6183,4.6206,4.6206,4.6273,4.63,4.63,4.63,4.63,5.4463,5.4054,5.3813,5.3813,5.3736,5.3678,5.3678,5.3422,5.3175,5.3175,5.3175,5.3133,5.303,5.3091,5.3109,5.2937,5.3005,5.3091,5.3258,5.3521,5.3643,5.3515,5.3497,5.3181,5.2364,5.2085,5.1454,5.019,4.9912,4.954,4.8927,4.8909,4.8909,4.8909,4.8909,4.8909,4.8909,4.8909,4.8925,4.9027,4.9289,4.9488,4.9617,5.0012,5.0249,5.0336,5.013,5.0268,5.0683,5.0421,5.0464,5.0702,5.0702,5.0702,5.0702,5.0702,5.0702,5.0702,5.0702,5.0702,5.0702,5.0702,5.0721,5.074,5.074,5.0841,5.0928,5.0928,5.0972,5.1008,5.1008,5.1031,5.1053,5.1053,5.1074,5.1123,5.1195,5.1195,5.1211,5.1372,5.1401,5.1401,5.1401,5.141,5.139,5.1406,5.141,5.1394,5.1394,5.1394,5.1394,5.1394,5.1406,5.1401,5.1401,5.0738,5.0231,5.0002,4.8568,4.7572,4.7317,4.6463,4.6017,4.6075,4.613,4.6176,4.6206,4.6245,4.6277,4.63,4.63,4.63,5.4416,5.4054,5.3813,5.3813,5.3561,5.3318,5.3318,5.3066,5.2806,5.2806,5.2806,5.2698,5.2343,5.2545,5.2937,5.3235,5.2707,5.2509,5.3217,5.3318,5.3145,5.2716,5.2661,5.2345,5.1546,5.0729,5.019,5.0116,4.9392,4.8946,4.8909,4.8909,4.8909,4.8909,4.8909,4.8909,4.8909,4.8909,4.9061,4.9384,4.9384,4.9655,5.0159,5.0183,5.0358,5.0663,5.0663,5.0663,5.0702,5.0683,5.0683,5.0702,5.0702,5.0702,5.0702,5.0702,5.0702,5.0702,5.0702,5.0702,5.0702,5.0702,5.0794,5.0887,5.0887,5.0951,5.0996,5.0996,5.0996,5.1008,5.1008,5.1084,5.1195,5.1195,5.1291,5.1357,5.1238,5.1297,5.139,5.1394,5.1394,5.1394,5.1394,5.1394,5.1394,5.1394,5.1394,5.1394,5.1394,5.1394,5.1394,5.1394,5.1394,5.1394,5.1394,5.1307,5.0871,5.0051,4.9075,4.8183,4.7337,4.6463,4.5997,4.6007,4.6075,4.6142,4.6206,4.6206,4.624,4.63,4.63,4.63,5.4397,5.4054,5.3756,5.3521,5.34,5.3217,5.3023,5.2698,5.2389,5.2389,5.2389,5.2245,5.1618,5.2017,5.2408,5.2286,5.2203,5.2116,5.1918,5.2236,5.229,5.1617,5.1695,5.1509,5.0655,5.0283,4.9893,4.9373,4.9057,4.8909,4.8909,4.8909,4.8909,4.8909,4.9127,4.9283,4.9491,4.9491,4.9521,4.9655,4.983,4.9993,5.0206,5.0421,5.0604,5.0702,5.0702,5.0702,5.0702,5.0702,5.0702,5.0702,5.0702,5.0702,5.0702,5.0702,5.0702,5.0702,5.0702,5.0758,5.0844,5.0844,5.0898,5.0953,5.0953,5.105,5.1132,5.1132,5.1195,5.1252,5.1252,5.1291,5.1327,5.1327,5.1362,5.139,5.1333,5.1362,5.1394,5.1394,5.1394,5.1394,5.1394,5.1394,5.1394,5.1394,5.1394,5.1394,5.1394,5.1394,5.1394,5.1394,5.1394,5.1402,5.1402,5.1304,5.1109,5.0797,4.9926,4.9046,4.8172,4.7298,4.66,4.6066,4.6056,4.6065,4.6142,4.6183,4.6203,4.6234,4.6231,4.624,5.456,5.4024,5.3479,5.3154,5.2692,5.2284,5.2157,5.1638,5.1268,5.1344,5.1315,5.1077,5.0574,5.0897,5.1191,5.1131,5.1161,5.1088,5.0741,5.1183,5.1265,5.0575,5.075,5.0636,4.9782,4.9707,4.9485,4.8946,4.8909,4.8909,4.8909,4.8909,4.8959,4.9061,4.9377,4.9627,4.9803,4.9803,4.9857,4.9936,5.0092,5.0272,5.038,5.0604,5.0702,5.0702,5.0702,5.0702,5.0702,5.0702,5.0702,5.0702,5.0702,5.0702,5.0702,5.0702,5.0702,5.0702,5.0702,5.0775,5.0887,5.0887,5.0992,5.1063,5.1063,5.1159,5.1278,5.1278,5.1327,5.1394,5.1394,5.1394,5.1394,5.1394,5.1394,5.1394,5.1394,5.1394,5.1394,5.1394,5.1394,5.1394,5.1394,5.1394,5.1394,5.1394,5.1394,5.1394,5.1394,5.1405,5.1391,5.1391,5.1386,5.1364,5.1364,5.1249,5.1203,5.1203,5.0374,4.9629,4.9066,4.8191,4.7358,4.6513,4.6464,4.6309,4.6075,4.6138,4.6189,4.6196,4.6203,4.6183,0.0,0.0,0.0,5.266,5.1459,5.0464,5.0714,5.0025,4.9395,4.9748,4.9536,4.9317,4.9281,4.9281,4.9377,4.9758,4.9518,4.9442,4.9794,5.013,5.0177,4.9726,4.9898,4.9763,4.8983,4.8909,4.8909,4.8909,4.8909,4.8909,4.8909,4.8909,4.9061,4.9396,4.9684,4.983,4.983,4.983,4.9962,5.0206,5.0206,5.0399,5.0702,5.0702,5.0702,5.0702,5.0702,5.0683,5.0683,5.0702,5.0702,5.0702,5.0702,5.0702,5.0702,5.0702,5.0702,5.0721,5.0721,5.0793,5.0902,5.0902,5.1035,5.1203,5.1203,5.1297,5.1394,5.1394,5.1394,5.1394,5.1394,5.1394,5.1394,5.1394,5.1394,5.1394,5.1394,5.1394,5.1394,5.1394,5.1394,5.1394,5.1394,5.1394,5.1394,5.1394,5.1394,5.1394,5.1394,5.1402,5.1406,5.1406,5.1335,5.1293,5.1293,5.1245,5.1195,5.1195,5.0413,4.992,4.9901,4.9085,4.823,4.7356,4.7337,4.6909,4.6035,4.6066,4.613,4.6189,4.6189,4.6119,5.3486,0.0,0.0,0.0,0.0,0.0,5.0488,5.0043,4.9748,5.0087,4.9703,4.9186,4.891,4.8665,4.8347,4.7867,4.8615,4.9263,4.9073,4.9295,4.9299,4.8825,4.9047,4.915,4.8927,4.8909,4.8909,4.8909,4.8909,4.8909,4.8909,4.9127,4.948,4.9962,5.0062,5.0202,5.044,5.044,5.0483,5.0565,5.0565,5.0604,5.0702,5.0702,5.0702,5.0702,5.0702,5.0702,5.0702,5.0702,5.0702,5.0702,5.0702,5.0702,5.0702,5.0702,5.0758,5.0841,5.0841,5.0965,5.1123,5.1123,5.1222,5.1333,5.1333,5.1367,5.1394,5.1394,5.1394,5.1394,5.1394,5.1394,5.1394,5.1394,5.1394,5.1394,5.1394,5.1394,5.1394,5.1394,5.1394,5.1394,5.1394,5.1394,5.1394,5.1394,5.1396,5.1404,5.1404,5.1364,5.133,5.133,5.1274,5.1232,5.1232,5.121,5.1189,5.1189,5.0973,5.0561,4.992,4.9668,4.9124,4.8269,4.825,4.775,4.6784,4.6228,4.596,4.5972,4.5871,4.5783,0.0,0.0,0.0,5.111,0.0,0.0,4.9761,4.9359,4.915,4.9442,4.8978,4.8488,4.8243,4.7949,4.7579,4.7232,4.7976,4.8452,4.8225,4.8525,4.8705,4.8438,4.8714,4.8909,4.8909,4.8909,4.8909,4.8909,4.8909,4.8959,4.9094,4.951,4.9884,5.0183,5.0336,5.0504,5.0702,5.0702,5.0702,5.0702,5.0702,5.0702,5.0683,5.0702,5.0702,5.0702,5.0702,5.0721,5.0738,5.0771,5.0756,5.0702,5.0757,5.0775,5.0793,5.0822,5.0863,5.0951,5.0951,5.107,5.1203,5.1203,5.1291,5.1394,5.1394,5.1394,5.1394,5.1394,5.1394,5.1394,5.1394,5.1394,5.1394,5.1394,5.1394,5.1394,5.1394,5.1394,5.1394,5.1394,5.1394,5.1394,5.1394,5.1394,5.1398,5.1394,5.1404,5.1386,5.1363,5.1297,5.1263,5.1263,5.1222,5.1201,5.1201,5.1197,5.1202,5.1202,5.1202,5.0969,5.0464,5.0445,5.0037,4.9163,4.9089,4.854,4.7472,4.6762,4.6209,4.5805,4.5673,4.5591,0.0,0.0,0.0,0.0,4.9725,0.0,4.8925,4.8458,4.8132,4.8383,4.7974,4.7536,4.7578,4.732,4.7205,4.7511,4.7578,4.7578,4.7578,4.8075,4.8421,4.8458,4.8714,4.8909,4.8909,4.8909,4.8909,4.8909,4.8925,4.9127,4.9488,4.9936,5.0206,5.0252,5.0544,5.0702,5.0702,5.0702,5.0702,5.0702,5.0702,5.0702,5.0702,5.0702,5.072,5.0718,5.0718,5.0754,5.0839,5.0898,5.084,5.0736,5.0867,5.0913,5.0928,5.0972,5.102,5.1011,5.1031,5.1123,5.1218,5.1218,5.1297,5.1394,5.1394,5.1394,5.1394,5.1394,5.1394,5.1394,5.1394,5.1394,5.1394,5.1394,5.1394,5.1394,5.1394,5.1394,5.1394,5.1394,5.1394,5.1394,5.1402,5.1402,5.1391,5.1387,5.1386,5.1361,5.1293,5.1239,5.1206,5.1206,5.121,5.1202,5.1202,5.1202,5.1202,5.1202,5.1202,5.1202,5.1202,5.1202,5.0833,5.0045,4.9775,4.9167,4.8144,4.7507,4.6761,4.5921,4.58,4.5764,0.0,0.0,0.0,0.0,4.9623,0.0,4.8959,4.8587,4.8421,4.875,4.8326,4.7992,4.8192,4.8014,4.7829,4.7911,4.8093,4.8231,4.8231,4.8345,4.8495,4.8785,4.8855,4.8909,4.8909,4.8909,4.8909,4.8909,4.916,4.951,5.0012,5.0135,5.0317,5.0585,5.0663,5.0702,5.0702,5.0702,5.0702,5.0702,5.0757,5.0775,5.0775,5.0775,5.0803,5.087,5.087,5.0933,5.1044,5.1063,5.0984,5.0865,5.1016,5.1061,5.1061,5.1023,5.1064,5.1164,5.1159,5.1252,5.1362,5.1362,5.1386,5.1394,5.1394,5.1394,5.1394,5.1394,5.1394,5.1394,5.1394,5.1394,5.1394,5.1394,5.1394,5.1394,5.1394,5.1394,5.1394,5.1394,5.1394,5.1405,5.1403,5.1405,5.1386,5.1333,5.1279,5.1219,5.1225,5.121,5.1197,5.1197,5.1194,5.1202,5.1202,5.1202,5.1202,5.1202,5.1202,5.1202,5.1202,5.1202,5.1069,5.0796,4.9847,4.926,4.9047,4.8221,4.7665,4.7388,4.7367,4.7346,0.0,0.0,0.0,5.0092,4.9803,0.0,0.0,4.8872,4.8714,4.8874,4.8514,4.8249,4.8383,4.8172,4.8032,4.8172,4.8307,4.8458,4.8623,4.866,4.8695,4.8874,4.8909,4.8909,4.8909,4.8909,4.8959,4.9127,4.9569,4.991,5.0183,5.0358,5.0544,5.0683,5.0683,5.0702,5.0702,5.0739,5.0757,5.0738,5.0829,5.0846,5.081,5.0871,5.0923,5.0953,5.0989,5.1054,5.1148,5.1179,5.1172,5.1092,5.1137,5.1145,5.1145,5.1193,5.1244,5.1308,5.1294,5.1347,5.1402,5.1394,5.1394,5.1394,5.1394,5.1394,5.1394,5.1394,5.1394,5.1394,5.1394,5.1394,5.1394,5.1394,5.1394,5.1394,5.1394,5.1408,5.1398,5.1398,5.1365,5.1367,5.1387,5.1365,5.133,5.1269,5.1225,5.1206,5.1201,5.1197,5.1202,5.1202,5.1202,5.1202,5.1202,5.1202,5.1202,5.1202,5.1202,5.1202,5.1202,5.1134,5.0986,5.0754,5.0183,4.9871,4.9805,4.9365,4.8668,4.7799,4.7799,4.7799,0.0,0.0,0.0,0.0,0.0,4.9811,0.0,0.0,0.0,4.8993,4.8731,4.8495,4.8495,4.8326,4.8249,4.8458,4.8569,4.8677,4.8959,4.9042,4.9042,4.889,4.8909,4.8909,4.8909,4.8959,4.9155,4.9529,4.9962,5.023,5.0294,5.0545,5.0702,5.0702,5.0702,5.072,5.072,5.0793,5.081,5.081,5.0913,5.0909,5.0858,5.0972,5.1058,5.1061,5.1111,5.1179,5.1232,5.1293,5.1327,5.1307,5.1249,5.1245,5.1249,5.1355,5.14,5.1398,5.1394,5.1391,5.1391,5.1402,5.1394,5.1394,5.1394,5.1394,5.1394,5.1394,5.1394,5.1394,5.1394,5.1394,5.1394,5.1394,5.1402,5.1405,5.1405,5.1384,5.1386,5.1386,5.133,5.1297,5.134,5.1327,5.1263,5.1206,5.1198,5.121,5.1194,5.1202,5.1202,5.1202,5.1202,5.1202,5.1202,5.1202,5.1202,5.1202,5.1178,5.1159,5.1159,5.0986,5.0771,5.0507,5.0466,5.0399,5.0302,5.0302,4.9595,4.8296,4.8296,4.8296,0.0,0.0,0.0,0.0,5.0312,5.0164,4.983,0.0,4.9334,4.9334,0.0,4.882,4.882,0.0,0.0,4.882,4.9075,4.9302,4.9352,4.9539,4.9491,4.8959,4.8909,4.8909,4.8909,4.9182,4.9551,5.0068,5.023,5.0383,5.0624,5.0683,5.0682,5.0682,5.0757,5.0793,5.0793,5.0846,5.0899,5.0899,5.1023,5.1069,5.1069,5.1142,5.1206,5.1279,5.1264,5.1327,5.1385,5.1386,5.1386,5.1386,5.1386,5.1386,5.1386,5.1385,5.1404,5.1404,5.14,5.1398,5.1396,5.1391,5.1402,5.1394,5.1394,5.1394,5.1394,5.1394,5.1394,5.1394,5.1394,5.1394,5.1394,5.1394,5.1396,5.1406,5.1406,5.1342,5.1304,5.1304,5.1263,5.1218,5.1225,5.1218,5.1206,5.1197,5.1206,5.1194,5.1202,5.1202,5.1202,5.1202,5.1202,5.1202,5.1202,5.1202,5.1202,5.1202,5.1095,5.102,5.102,5.0717,5.0547,5.0507,5.0377,5.0325,5.0302,5.0302,5.0206,5.0015,5.0015,5.0015,0.0,0.0,0.0,0.0,0.0,0.0,5.0191,0.0,4.9693,4.9711,0.0,0.0,0.0,0.0,0.0,0.0,4.9569,4.9655,4.9684,4.9749,4.9721,4.9461,4.9431,4.9431,4.9431,4.9683,4.9949,5.0183,5.0421,5.0566,5.0683,5.0702,5.072,5.0757,5.081,5.0863,5.0863,5.0952,5.1009,5.1023,5.11,5.1162,5.1162,5.1232,5.1279,5.1297,5.1338,5.1365,5.1406,5.1406,5.1406,5.1406,5.1406,5.1406,5.1406,5.1406,5.1406,5.1406,5.1403,5.1403,5.1402,5.1396,5.1391,5.1405,5.1405,5.1398,5.1394,5.1394,5.1394,5.1394,5.1394,5.1394,5.1402,5.1398,5.1405,5.1386,5.1359,5.1288,5.1252,5.1252,5.1226,5.1201,5.1201,5.1201,5.12,5.1214,5.1202,5.1202,5.1202,5.1202,5.1202,5.1202,5.1202,5.1202,5.1202,5.1202,5.1202,5.1202,5.1062,5.0906,5.0718,5.0508,5.0339,5.0264,5.0139,5.0082,5.0082,5.0158,5.0182,5.0182,5.0255,5.0302,5.1227,0.0,0.0,0.0,0.0,0.0,0.0,0.0,0.0,5.0077,5.0021,0.0,0.0,0.0,0.0,0.0,0.0,4.9968,5.0019,5.0078,5.0035,4.9811,4.983,4.9872,4.9967,5.0149,5.0281,5.0368,5.0625,5.074,5.0701,5.072,5.0773,5.0855,5.0925,5.0971,5.0976,5.1074,5.1131,5.1131,5.1195,5.1232,5.1239,5.1293,5.133,5.1333,5.1386,5.1406,5.1406,5.1406,5.1406,5.1406,5.1406,5.1406,5.1406,5.1406,5.1406,5.1406,5.1406,5.1405,5.1404,5.1402,5.1396,5.1408,5.1408,5.1402,5.1394,5.1394,5.1394,5.1398,5.1408,5.1408,5.1396,5.1386,5.1361,5.1333,5.1284,5.1225,5.12,5.12,5.12,5.1171,5.1171,5.119,5.1202,5.1202,5.1202,5.1202,5.1171,5.1171,5.1171,5.1178,5.1178,5.1134,5.1069,5.1056,5.1009,5.0917,5.0803,5.0625,5.0358,5.0249,5.0149,5.0057,4.9952,4.9898,4.9898,5.0005,5.0057,5.0057,5.0231,5.0302,0.0,0.0,0.0,5.1201,0.0,0.0,0.0,0.0,5.0545,0.0,0.0,0.0,0.0,0.0,0.0,0.0,0.0,0.0,0.0,5.0656,5.06,4.9872,4.9857,5.0059,5.0431,5.0433,5.0529,5.0859,5.0874,5.0829,5.0701,5.0829,5.0921,5.0985,5.1062,5.1111,5.1195,5.1195,5.1195,5.1195,5.1249,5.1293,5.1297,5.1364,5.1406,5.1406,5.1406,5.1406,5.1406,5.1406,5.1406,5.1406,5.1406,5.1406,5.1406,5.1406,5.1406,5.1406,5.1406,5.1406,5.1404,5.1404,5.14,5.1408,5.1408,5.1402,5.1394,5.1394,5.1394,5.1402,5.1405,5.1406,5.1386,5.1327,5.1238,5.1211,5.1203,5.1211,5.1202,5.1202,5.1139,5.1095,5.1095,5.1159,5.1202,5.1202,5.1202,5.1171,5.1108,5.1095,5.1102,5.1101,5.1101,5.1005,5.075,5.0713,5.0548,5.0164,5.014,5.0081,4.9933,4.9925,4.9906,4.9925,4.9879,4.9898,4.9898,4.9906,4.9925,4.9906,5.0182,5.0302,0.0,0.0,5.1343,5.1226,0.0,0.0,0.0,0.0,0.0,0.0,0.0,0.0,0.0,0.0,0.0,0.0,0.0,0.0,0.0,5.0784,5.0762,5.0608,5.0646,5.0753,5.0882,5.0797,5.0778,5.0889,5.0902,5.0887,5.0825,5.0959,5.107,5.1123,5.1152,5.117,5.1203,5.1232,5.1269,5.1274,5.1333,5.1364,5.1364,5.1386,5.1406,5.1406,5.1406,5.1406,5.1406,5.1406,5.1406,5.1406,5.1406,5.1406,5.1406,5.1406,5.1406,5.1406,5.1406,5.1406,5.1406,5.1406,5.1403,5.1396,5.1396,5.1408,5.1398,5.14,5.1403,5.1386,5.1296,5.1291,5.1324,5.1245,5.1211,5.1178,5.1141,5.1125,5.1127,5.114,5.1127,5.1095,5.1095,5.1127,5.1127,5.1127,5.1127,5.1127,5.1095,5.1095,5.1095,5.1101,5.1101,5.1005,5.0713,5.0548,5.0327,5.0116,5.0092,5.0057,4.9925,4.9816,4.9778,4.9778,4.9663,4.9653,4.9653,4.9721,4.9778,4.9778,4.9721,4.9803,5.1359,5.1364,0.0,5.1289,5.1269,0.0,5.1071,0.0,5.1054,0.0,0.0,0.0,0.0,0.0,0.0,0.0,0.0,0.0,0.0,5.0937,5.0957,5.1054,5.1065,5.1098,5.1156,5.1083,5.1004,5.0996,5.0998,5.1005,5.0972,5.1083,5.1178,5.1219,5.1245,5.1252,5.1274,5.1304,5.1335,5.1335,5.1386,5.1406,5.1406,5.1406,5.1406,5.1406,5.1406,5.1406,5.1406,5.1406,5.1406,5.1406,5.1406,5.1406,5.1406,5.1406,5.1406,5.1406,5.1406,5.1406,5.1406,5.1406,5.1405,5.1402,5.1402,5.1381,5.1363,5.1367,5.1343,5.1294,5.118,5.1206,5.1213,5.1172,5.1152,5.1141,5.1095,5.1102,5.1108,5.1101,5.1087,5.1053,5.1053,5.1053,5.1053,5.1087,5.1101,5.1087,5.1067,5.1053,5.1053,5.1039,5.0975,5.0769,5.041,5.0168,4.9968,4.9876,4.9895,4.986,4.9759,4.9663,4.9623,4.9623,4.9551,4.9509,4.9509,4.9612,4.9574,4.9464,4.9327,4.934]}]]